<?xml version="1.0" encoding="UTF-8" standalone="no" ?>
<gpx xmlns="http://www.topografix.com/GPX/1/1" xmlns:xsi="http://www.w3.org/2001/XMLSchema-instance" xsi:schemaLocation="http://www.topografix.com/GPX/1/1 http://www.topografix.com/GPX/1/1/gpx.xsd" version="1.1" creator="VisuGPX - https://www.visugpx.com">
  <metadata>
    <name>352_Circuit 88 km Les Herbiers_Les Herbiers édité par cth85.com</name>
    <desc><![CDATA[Circuit de 88 km passant par:
Les Herbiers
D11 Les Epesses
D752 Saint Malô du Bois
D752 Saint Laurent sur Sèvre
D752 Le puy Saint Bonnet
Saint Christophe du Bois
La Romagne
Roussay
D146 La Renaudière
rejoindre D63
à gauche le chêne au loups
à gauche D762 Montfaucon
D762 Montigné sur Moine
D67 Torfou
Tiffauges par la masse
D9 direction La Gaubretière
D755 Les Herbiers]]></desc>
  </metadata>
  <trk>
    <name><![CDATA[14883547-88_352]]></name>
    <trkseg>
      <trkpt lat="46.86411" lon="-1.0056">
        <ele>120</ele>
        <time>2022-06-01T20:53:48Z</time>
      </trkpt>
      <trkpt lat="46.86391" lon="-1.00556">
        <ele>120</ele>
        <time>2022-06-01T20:53:52Z</time>
      </trkpt>
      <trkpt lat="46.86381" lon="-1.00562">
        <ele>120</ele>
        <time>2022-06-01T20:53:54Z</time>
      </trkpt>
      <trkpt lat="46.86335" lon="-1.00614">
        <ele>119</ele>
        <time>2022-06-01T20:54:04Z</time>
      </trkpt>
      <trkpt lat="46.86315" lon="-1.00632">
        <ele>119</ele>
        <time>2022-06-01T20:54:08Z</time>
      </trkpt>
      <trkpt lat="46.8627" lon="-1.00662">
        <ele>118</ele>
        <time>2022-06-01T20:54:17Z</time>
      </trkpt>
      <trkpt lat="46.86234" lon="-1.00681">
        <ele>117</ele>
        <time>2022-06-01T20:54:24Z</time>
      </trkpt>
      <trkpt lat="46.86228" lon="-1.00664">
        <ele>117</ele>
        <time>2022-06-01T20:54:26Z</time>
      </trkpt>
      <trkpt lat="46.86189" lon="-1.00512">
        <ele>115</ele>
        <time>2022-06-01T20:54:46Z</time>
      </trkpt>
      <trkpt lat="46.8617" lon="-1.00489">
        <ele>115</ele>
        <time>2022-06-01T20:54:50Z</time>
      </trkpt>
      <trkpt lat="46.8614" lon="-1.00467">
        <ele>116</ele>
        <time>2022-06-01T20:54:56Z</time>
      </trkpt>
      <trkpt lat="46.86041" lon="-1.00409">
        <ele>115</ele>
        <time>2022-06-01T20:55:15Z</time>
      </trkpt>
      <trkpt lat="46.86052" lon="-1.00363">
        <ele>115</ele>
        <time>2022-06-01T20:55:21Z</time>
      </trkpt>
      <trkpt lat="46.86171" lon="-0.99914">
        <ele>118</ele>
        <time>2022-06-01T20:56:20Z</time>
      </trkpt>
      <trkpt lat="46.86212" lon="-0.99771">
        <ele>120</ele>
        <time>2022-06-01T20:56:38Z</time>
      </trkpt>
      <trkpt lat="46.86221" lon="-0.99734">
        <ele>120</ele>
        <time>2022-06-01T20:56:43Z</time>
      </trkpt>
      <trkpt lat="46.86312" lon="-0.99257">
        <ele>125</ele>
        <time>2022-06-01T20:57:43Z</time>
      </trkpt>
      <trkpt lat="46.86335" lon="-0.99141">
        <ele>128</ele>
        <time>2022-06-01T20:57:58Z</time>
      </trkpt>
      <trkpt lat="46.86345" lon="-0.99102">
        <ele>129</ele>
        <time>2022-06-01T20:58:03Z</time>
      </trkpt>
      <trkpt lat="46.86362" lon="-0.9905">
        <ele>131</ele>
        <time>2022-06-01T20:58:10Z</time>
      </trkpt>
      <trkpt lat="46.86373" lon="-0.99021">
        <ele>132</ele>
        <time>2022-06-01T20:58:14Z</time>
      </trkpt>
      <trkpt lat="46.86399" lon="-0.98966">
        <ele>134</ele>
        <time>2022-06-01T20:58:22Z</time>
      </trkpt>
      <trkpt lat="46.86448" lon="-0.98872">
        <ele>139</ele>
        <time>2022-06-01T20:58:37Z</time>
      </trkpt>
      <trkpt lat="46.86514" lon="-0.98737">
        <ele>145</ele>
        <time>2022-06-01T20:58:57Z</time>
      </trkpt>
      <trkpt lat="46.86527" lon="-0.98706">
        <ele>145</ele>
        <time>2022-06-01T20:59:01Z</time>
      </trkpt>
      <trkpt lat="46.86563" lon="-0.98597">
        <ele>148</ele>
        <time>2022-06-01T20:59:16Z</time>
      </trkpt>
      <trkpt lat="46.86601" lon="-0.98456">
        <ele>149</ele>
        <time>2022-06-01T20:59:35Z</time>
      </trkpt>
      <trkpt lat="46.86614" lon="-0.98397">
        <ele>148</ele>
        <time>2022-06-01T20:59:42Z</time>
      </trkpt>
      <trkpt lat="46.86619" lon="-0.98385">
        <ele>147</ele>
        <time>2022-06-01T20:59:44Z</time>
      </trkpt>
      <trkpt lat="46.86629" lon="-0.9837">
        <ele>146</ele>
        <time>2022-06-01T20:59:46Z</time>
      </trkpt>
      <trkpt lat="46.86629" lon="-0.98233">
        <ele>147</ele>
        <time>2022-06-01T21:00:03Z</time>
      </trkpt>
      <trkpt lat="46.86624" lon="-0.98135">
        <ele>150</ele>
        <time>2022-06-01T21:00:15Z</time>
      </trkpt>
      <trkpt lat="46.86637" lon="-0.98132">
        <ele>148</ele>
        <time>2022-06-01T21:00:17Z</time>
      </trkpt>
      <trkpt lat="46.8665" lon="-0.98123">
        <ele>147</ele>
        <time>2022-06-01T21:00:20Z</time>
      </trkpt>
      <trkpt lat="46.86692" lon="-0.98032">
        <ele>144</ele>
        <time>2022-06-01T21:00:33Z</time>
      </trkpt>
      <trkpt lat="46.86837" lon="-0.97683">
        <ele>138</ele>
        <time>2022-06-01T21:01:23Z</time>
      </trkpt>
      <trkpt lat="46.86945" lon="-0.97416">
        <ele>139</ele>
        <time>2022-06-01T21:02:01Z</time>
      </trkpt>
      <trkpt lat="46.86953" lon="-0.97379">
        <ele>140</ele>
        <time>2022-06-01T21:02:05Z</time>
      </trkpt>
      <trkpt lat="46.86954" lon="-0.9736">
        <ele>141</ele>
        <time>2022-06-01T21:02:08Z</time>
      </trkpt>
      <trkpt lat="46.86951" lon="-0.97352">
        <ele>141</ele>
        <time>2022-06-01T21:02:09Z</time>
      </trkpt>
      <trkpt lat="46.8695" lon="-0.97339">
        <ele>142</ele>
        <time>2022-06-01T21:02:10Z</time>
      </trkpt>
      <trkpt lat="46.86956" lon="-0.97324">
        <ele>142</ele>
        <time>2022-06-01T21:02:13Z</time>
      </trkpt>
      <trkpt lat="46.86964" lon="-0.97316">
        <ele>142</ele>
        <time>2022-06-01T21:02:14Z</time>
      </trkpt>
      <trkpt lat="46.86971" lon="-0.97303">
        <ele>142</ele>
        <time>2022-06-01T21:02:16Z</time>
      </trkpt>
      <trkpt lat="46.86978" lon="-0.97274">
        <ele>142</ele>
        <time>2022-06-01T21:02:20Z</time>
      </trkpt>
      <trkpt lat="46.86982" lon="-0.9725">
        <ele>142</ele>
        <time>2022-06-01T21:02:23Z</time>
      </trkpt>
      <trkpt lat="46.86985" lon="-0.97194">
        <ele>143</ele>
        <time>2022-06-01T21:02:30Z</time>
      </trkpt>
      <trkpt lat="46.87001" lon="-0.96834">
        <ele>144</ele>
        <time>2022-06-01T21:03:14Z</time>
      </trkpt>
      <trkpt lat="46.87009" lon="-0.96763">
        <ele>143</ele>
        <time>2022-06-01T21:03:22Z</time>
      </trkpt>
      <trkpt lat="46.87018" lon="-0.96705">
        <ele>143</ele>
        <time>2022-06-01T21:03:30Z</time>
      </trkpt>
      <trkpt lat="46.87037" lon="-0.96619">
        <ele>143</ele>
        <time>2022-06-01T21:03:41Z</time>
      </trkpt>
      <trkpt lat="46.87048" lon="-0.96579">
        <ele>143</ele>
        <time>2022-06-01T21:03:46Z</time>
      </trkpt>
      <trkpt lat="46.87062" lon="-0.96534">
        <ele>142</ele>
        <time>2022-06-01T21:03:52Z</time>
      </trkpt>
      <trkpt lat="46.87246" lon="-0.96059">
        <ele>147</ele>
        <time>2022-06-01T21:04:58Z</time>
      </trkpt>
      <trkpt lat="46.87266" lon="-0.95997">
        <ele>149</ele>
        <time>2022-06-01T21:05:07Z</time>
      </trkpt>
      <trkpt lat="46.87274" lon="-0.95957">
        <ele>149</ele>
        <time>2022-06-01T21:05:12Z</time>
      </trkpt>
      <trkpt lat="46.87283" lon="-0.95879">
        <ele>149</ele>
        <time>2022-06-01T21:05:21Z</time>
      </trkpt>
      <trkpt lat="46.87311" lon="-0.95551">
        <ele>151</ele>
        <time>2022-06-01T21:06:02Z</time>
      </trkpt>
      <trkpt lat="46.87312" lon="-0.95518">
        <ele>152</ele>
        <time>2022-06-01T21:06:06Z</time>
      </trkpt>
      <trkpt lat="46.8731" lon="-0.95485">
        <ele>152</ele>
        <time>2022-06-01T21:06:10Z</time>
      </trkpt>
      <trkpt lat="46.87308" lon="-0.9545">
        <ele>153</ele>
        <time>2022-06-01T21:06:14Z</time>
      </trkpt>
      <trkpt lat="46.87302" lon="-0.9541">
        <ele>153</ele>
        <time>2022-06-01T21:06:19Z</time>
      </trkpt>
      <trkpt lat="46.87283" lon="-0.95333">
        <ele>149</ele>
        <time>2022-06-01T21:06:29Z</time>
      </trkpt>
      <trkpt lat="46.87229" lon="-0.95185">
        <ele>145</ele>
        <time>2022-06-01T21:06:49Z</time>
      </trkpt>
      <trkpt lat="46.87213" lon="-0.95127">
        <ele>143</ele>
        <time>2022-06-01T21:06:57Z</time>
      </trkpt>
      <trkpt lat="46.87206" lon="-0.95091">
        <ele>142</ele>
        <time>2022-06-01T21:07:01Z</time>
      </trkpt>
      <trkpt lat="46.872" lon="-0.95052">
        <ele>140</ele>
        <time>2022-06-01T21:07:06Z</time>
      </trkpt>
      <trkpt lat="46.87197" lon="-0.95003">
        <ele>139</ele>
        <time>2022-06-01T21:07:12Z</time>
      </trkpt>
      <trkpt lat="46.87196" lon="-0.94969">
        <ele>137</ele>
        <time>2022-06-01T21:07:16Z</time>
      </trkpt>
      <trkpt lat="46.87198" lon="-0.94913">
        <ele>134</ele>
        <time>2022-06-01T21:07:23Z</time>
      </trkpt>
      <trkpt lat="46.87202" lon="-0.94879">
        <ele>133</ele>
        <time>2022-06-01T21:07:27Z</time>
      </trkpt>
      <trkpt lat="46.87254" lon="-0.94604">
        <ele>122</ele>
        <time>2022-06-01T21:08:02Z</time>
      </trkpt>
      <trkpt lat="46.87262" lon="-0.94569">
        <ele>123</ele>
        <time>2022-06-01T21:08:07Z</time>
      </trkpt>
      <trkpt lat="46.87415" lon="-0.93784">
        <ele>149</ele>
        <time>2022-06-01T21:09:46Z</time>
      </trkpt>
      <trkpt lat="46.87426" lon="-0.93717">
        <ele>151</ele>
        <time>2022-06-01T21:09:54Z</time>
      </trkpt>
      <trkpt lat="46.8743" lon="-0.93681">
        <ele>151</ele>
        <time>2022-06-01T21:09:59Z</time>
      </trkpt>
      <trkpt lat="46.87443" lon="-0.93435">
        <ele>156</ele>
        <time>2022-06-01T21:10:29Z</time>
      </trkpt>
      <trkpt lat="46.87451" lon="-0.93323">
        <ele>159</ele>
        <time>2022-06-01T21:10:42Z</time>
      </trkpt>
      <trkpt lat="46.8746" lon="-0.93278">
        <ele>160</ele>
        <time>2022-06-01T21:10:48Z</time>
      </trkpt>
      <trkpt lat="46.8747" lon="-0.93251">
        <ele>161</ele>
        <time>2022-06-01T21:10:52Z</time>
      </trkpt>
      <trkpt lat="46.87487" lon="-0.93218">
        <ele>162</ele>
        <time>2022-06-01T21:10:57Z</time>
      </trkpt>
      <trkpt lat="46.87498" lon="-0.93201">
        <ele>163</ele>
        <time>2022-06-01T21:11:00Z</time>
      </trkpt>
      <trkpt lat="46.87531" lon="-0.93159">
        <ele>168</ele>
        <time>2022-06-01T21:11:08Z</time>
      </trkpt>
      <trkpt lat="46.87543" lon="-0.93135">
        <ele>170</ele>
        <time>2022-06-01T21:11:11Z</time>
      </trkpt>
      <trkpt lat="46.87556" lon="-0.931">
        <ele>172</ele>
        <time>2022-06-01T21:11:16Z</time>
      </trkpt>
      <trkpt lat="46.87577" lon="-0.93016">
        <ele>178</ele>
        <time>2022-06-01T21:11:27Z</time>
      </trkpt>
      <trkpt lat="46.87589" lon="-0.92964">
        <ele>181</ele>
        <time>2022-06-01T21:11:34Z</time>
      </trkpt>
      <trkpt lat="46.87604" lon="-0.92876">
        <ele>186</ele>
        <time>2022-06-01T21:11:45Z</time>
      </trkpt>
      <trkpt lat="46.87621" lon="-0.92754">
        <ele>191</ele>
        <time>2022-06-01T21:12:00Z</time>
      </trkpt>
      <trkpt lat="46.87625" lon="-0.92684">
        <ele>189</ele>
        <time>2022-06-01T21:12:08Z</time>
      </trkpt>
      <trkpt lat="46.8762" lon="-0.92678">
        <ele>188</ele>
        <time>2022-06-01T21:12:09Z</time>
      </trkpt>
      <trkpt lat="46.87617" lon="-0.92669">
        <ele>187</ele>
        <time>2022-06-01T21:12:11Z</time>
      </trkpt>
      <trkpt lat="46.87616" lon="-0.9266">
        <ele>187</ele>
        <time>2022-06-01T21:12:12Z</time>
      </trkpt>
      <trkpt lat="46.87617" lon="-0.92651">
        <ele>187</ele>
        <time>2022-06-01T21:12:13Z</time>
      </trkpt>
      <trkpt lat="46.87619" lon="-0.92643">
        <ele>187</ele>
        <time>2022-06-01T21:12:14Z</time>
      </trkpt>
      <trkpt lat="46.87624" lon="-0.92636">
        <ele>187</ele>
        <time>2022-06-01T21:12:15Z</time>
      </trkpt>
      <trkpt lat="46.8764" lon="-0.92621">
        <ele>188</ele>
        <time>2022-06-01T21:12:18Z</time>
      </trkpt>
      <trkpt lat="46.8765" lon="-0.92592">
        <ele>188</ele>
        <time>2022-06-01T21:12:22Z</time>
      </trkpt>
      <trkpt lat="46.87677" lon="-0.92536">
        <ele>190</ele>
        <time>2022-06-01T21:12:31Z</time>
      </trkpt>
      <trkpt lat="46.87739" lon="-0.9242">
        <ele>193</ele>
        <time>2022-06-01T21:12:49Z</time>
      </trkpt>
      <trkpt lat="46.87753" lon="-0.92387">
        <ele>194</ele>
        <time>2022-06-01T21:12:53Z</time>
      </trkpt>
      <trkpt lat="46.87762" lon="-0.9235">
        <ele>195</ele>
        <time>2022-06-01T21:12:58Z</time>
      </trkpt>
      <trkpt lat="46.87791" lon="-0.92192">
        <ele>195</ele>
        <time>2022-06-01T21:13:18Z</time>
      </trkpt>
      <trkpt lat="46.878" lon="-0.92151">
        <ele>195</ele>
        <time>2022-06-01T21:13:23Z</time>
      </trkpt>
      <trkpt lat="46.87812" lon="-0.92111">
        <ele>194</ele>
        <time>2022-06-01T21:13:29Z</time>
      </trkpt>
      <trkpt lat="46.87907" lon="-0.91829">
        <ele>198</ele>
        <time>2022-06-01T21:14:07Z</time>
      </trkpt>
      <trkpt lat="46.87931" lon="-0.91762">
        <ele>201</ele>
        <time>2022-06-01T21:14:16Z</time>
      </trkpt>
      <trkpt lat="46.87944" lon="-0.91729">
        <ele>202</ele>
        <time>2022-06-01T21:14:21Z</time>
      </trkpt>
      <trkpt lat="46.88045" lon="-0.91505">
        <ele>206</ele>
        <time>2022-06-01T21:14:53Z</time>
      </trkpt>
      <trkpt lat="46.88064" lon="-0.91467">
        <ele>206</ele>
        <time>2022-06-01T21:14:59Z</time>
      </trkpt>
      <trkpt lat="46.88101" lon="-0.91411">
        <ele>207</ele>
        <time>2022-06-01T21:15:09Z</time>
      </trkpt>
      <trkpt lat="46.88187" lon="-0.91313">
        <ele>208</ele>
        <time>2022-06-01T21:15:28Z</time>
      </trkpt>
      <trkpt lat="46.88217" lon="-0.91275">
        <ele>210</ele>
        <time>2022-06-01T21:15:35Z</time>
      </trkpt>
      <trkpt lat="46.8828" lon="-0.91166">
        <ele>209</ele>
        <time>2022-06-01T21:15:52Z</time>
      </trkpt>
      <trkpt lat="46.88293" lon="-0.91139">
        <ele>208</ele>
        <time>2022-06-01T21:15:56Z</time>
      </trkpt>
      <trkpt lat="46.88303" lon="-0.91113">
        <ele>207</ele>
        <time>2022-06-01T21:16:00Z</time>
      </trkpt>
      <trkpt lat="46.88307" lon="-0.91064">
        <ele>205</ele>
        <time>2022-06-01T21:16:06Z</time>
      </trkpt>
      <trkpt lat="46.88301" lon="-0.91052">
        <ele>205</ele>
        <time>2022-06-01T21:16:08Z</time>
      </trkpt>
      <trkpt lat="46.88299" lon="-0.91044">
        <ele>205</ele>
        <time>2022-06-01T21:16:09Z</time>
      </trkpt>
      <trkpt lat="46.883" lon="-0.91029">
        <ele>204</ele>
        <time>2022-06-01T21:16:11Z</time>
      </trkpt>
      <trkpt lat="46.88303" lon="-0.91021">
        <ele>204</ele>
        <time>2022-06-01T21:16:12Z</time>
      </trkpt>
      <trkpt lat="46.88308" lon="-0.91013">
        <ele>204</ele>
        <time>2022-06-01T21:16:13Z</time>
      </trkpt>
      <trkpt lat="46.88315" lon="-0.91008">
        <ele>204</ele>
        <time>2022-06-01T21:16:14Z</time>
      </trkpt>
      <trkpt lat="46.8832" lon="-0.91006">
        <ele>205</ele>
        <time>2022-06-01T21:16:15Z</time>
      </trkpt>
      <trkpt lat="46.88327" lon="-0.90994">
        <ele>205</ele>
        <time>2022-06-01T21:16:17Z</time>
      </trkpt>
      <trkpt lat="46.88339" lon="-0.90958">
        <ele>206</ele>
        <time>2022-06-01T21:16:22Z</time>
      </trkpt>
      <trkpt lat="46.88363" lon="-0.90858">
        <ele>208</ele>
        <time>2022-06-01T21:16:35Z</time>
      </trkpt>
      <trkpt lat="46.88367" lon="-0.90812">
        <ele>208</ele>
        <time>2022-06-01T21:16:41Z</time>
      </trkpt>
      <trkpt lat="46.88365" lon="-0.90783">
        <ele>208</ele>
        <time>2022-06-01T21:16:44Z</time>
      </trkpt>
      <trkpt lat="46.88359" lon="-0.90744">
        <ele>207</ele>
        <time>2022-06-01T21:16:49Z</time>
      </trkpt>
      <trkpt lat="46.88348" lon="-0.90698">
        <ele>206</ele>
        <time>2022-06-01T21:16:55Z</time>
      </trkpt>
      <trkpt lat="46.8835" lon="-0.90695">
        <ele>206</ele>
        <time>2022-06-01T21:16:56Z</time>
      </trkpt>
      <trkpt lat="46.88354" lon="-0.90685">
        <ele>207</ele>
        <time>2022-06-01T21:16:57Z</time>
      </trkpt>
      <trkpt lat="46.88358" lon="-0.90624">
        <ele>207</ele>
        <time>2022-06-01T21:17:04Z</time>
      </trkpt>
      <trkpt lat="46.88362" lon="-0.90599">
        <ele>208</ele>
        <time>2022-06-01T21:17:08Z</time>
      </trkpt>
      <trkpt lat="46.88385" lon="-0.90505">
        <ele>211</ele>
        <time>2022-06-01T21:17:20Z</time>
      </trkpt>
      <trkpt lat="46.88396" lon="-0.90434">
        <ele>211</ele>
        <time>2022-06-01T21:17:29Z</time>
      </trkpt>
      <trkpt lat="46.88424" lon="-0.90323">
        <ele>210</ele>
        <time>2022-06-01T21:17:43Z</time>
      </trkpt>
      <trkpt lat="46.88436" lon="-0.90267">
        <ele>209</ele>
        <time>2022-06-01T21:17:50Z</time>
      </trkpt>
      <trkpt lat="46.88459" lon="-0.90201">
        <ele>208</ele>
        <time>2022-06-01T21:17:59Z</time>
      </trkpt>
      <trkpt lat="46.88469" lon="-0.90176">
        <ele>208</ele>
        <time>2022-06-01T21:18:03Z</time>
      </trkpt>
      <trkpt lat="46.88474" lon="-0.90169">
        <ele>208</ele>
        <time>2022-06-01T21:18:04Z</time>
      </trkpt>
      <trkpt lat="46.88488" lon="-0.9016">
        <ele>208</ele>
        <time>2022-06-01T21:18:07Z</time>
      </trkpt>
      <trkpt lat="46.88496" lon="-0.90158">
        <ele>209</ele>
        <time>2022-06-01T21:18:08Z</time>
      </trkpt>
      <trkpt lat="46.8854" lon="-0.90159">
        <ele>207</ele>
        <time>2022-06-01T21:18:16Z</time>
      </trkpt>
      <trkpt lat="46.88558" lon="-0.90154">
        <ele>206</ele>
        <time>2022-06-01T21:18:19Z</time>
      </trkpt>
      <trkpt lat="46.88588" lon="-0.90132">
        <ele>205</ele>
        <time>2022-06-01T21:18:25Z</time>
      </trkpt>
      <trkpt lat="46.886" lon="-0.90142">
        <ele>204</ele>
        <time>2022-06-01T21:18:28Z</time>
      </trkpt>
      <trkpt lat="46.88617" lon="-0.90152">
        <ele>204</ele>
        <time>2022-06-01T21:18:31Z</time>
      </trkpt>
      <trkpt lat="46.8869" lon="-0.90172">
        <ele>199</ele>
        <time>2022-06-01T21:18:44Z</time>
      </trkpt>
      <trkpt lat="46.88713" lon="-0.90181">
        <ele>198</ele>
        <time>2022-06-01T21:18:48Z</time>
      </trkpt>
      <trkpt lat="46.88805" lon="-0.90207">
        <ele>194</ele>
        <time>2022-06-01T21:19:05Z</time>
      </trkpt>
      <trkpt lat="46.88862" lon="-0.90221">
        <ele>191</ele>
        <time>2022-06-01T21:19:15Z</time>
      </trkpt>
      <trkpt lat="46.88907" lon="-0.90229">
        <ele>189</ele>
        <time>2022-06-01T21:19:23Z</time>
      </trkpt>
      <trkpt lat="46.88956" lon="-0.90231">
        <ele>187</ele>
        <time>2022-06-01T21:19:32Z</time>
      </trkpt>
      <trkpt lat="46.89016" lon="-0.90225">
        <ele>185</ele>
        <time>2022-06-01T21:19:43Z</time>
      </trkpt>
      <trkpt lat="46.89068" lon="-0.90211">
        <ele>187</ele>
        <time>2022-06-01T21:19:52Z</time>
      </trkpt>
      <trkpt lat="46.89102" lon="-0.90196">
        <ele>186</ele>
        <time>2022-06-01T21:19:58Z</time>
      </trkpt>
      <trkpt lat="46.89253" lon="-0.90116">
        <ele>184</ele>
        <time>2022-06-01T21:20:27Z</time>
      </trkpt>
      <trkpt lat="46.89779" lon="-0.89849">
        <ele>189</ele>
        <time>2022-06-01T21:22:06Z</time>
      </trkpt>
      <trkpt lat="46.89809" lon="-0.89836">
        <ele>190</ele>
        <time>2022-06-01T21:22:12Z</time>
      </trkpt>
      <trkpt lat="46.89844" lon="-0.89826">
        <ele>192</ele>
        <time>2022-06-01T21:22:18Z</time>
      </trkpt>
      <trkpt lat="46.89877" lon="-0.89823">
        <ele>193</ele>
        <time>2022-06-01T21:22:24Z</time>
      </trkpt>
      <trkpt lat="46.89916" lon="-0.89826">
        <ele>195</ele>
        <time>2022-06-01T21:22:31Z</time>
      </trkpt>
      <trkpt lat="46.90136" lon="-0.89892">
        <ele>194</ele>
        <time>2022-06-01T21:23:11Z</time>
      </trkpt>
      <trkpt lat="46.90194" lon="-0.89899">
        <ele>195</ele>
        <time>2022-06-01T21:23:21Z</time>
      </trkpt>
      <trkpt lat="46.90223" lon="-0.89896">
        <ele>196</ele>
        <time>2022-06-01T21:23:26Z</time>
      </trkpt>
      <trkpt lat="46.90255" lon="-0.8989">
        <ele>197</ele>
        <time>2022-06-01T21:23:32Z</time>
      </trkpt>
      <trkpt lat="46.90352" lon="-0.89865">
        <ele>194</ele>
        <time>2022-06-01T21:23:50Z</time>
      </trkpt>
      <trkpt lat="46.9039" lon="-0.89863">
        <ele>192</ele>
        <time>2022-06-01T21:23:56Z</time>
      </trkpt>
      <trkpt lat="46.90538" lon="-0.89871">
        <ele>184</ele>
        <time>2022-06-01T21:24:23Z</time>
      </trkpt>
      <trkpt lat="46.90647" lon="-0.89873">
        <ele>184</ele>
        <time>2022-06-01T21:24:42Z</time>
      </trkpt>
      <trkpt lat="46.90763" lon="-0.89861">
        <ele>183</ele>
        <time>2022-06-01T21:25:03Z</time>
      </trkpt>
      <trkpt lat="46.90782" lon="-0.89855">
        <ele>182</ele>
        <time>2022-06-01T21:25:06Z</time>
      </trkpt>
      <trkpt lat="46.90814" lon="-0.89838">
        <ele>180</ele>
        <time>2022-06-01T21:25:12Z</time>
      </trkpt>
      <trkpt lat="46.91228" lon="-0.89539">
        <ele>159</ele>
        <time>2022-06-01T21:26:34Z</time>
      </trkpt>
      <trkpt lat="46.91261" lon="-0.89522">
        <ele>158</ele>
        <time>2022-06-01T21:26:41Z</time>
      </trkpt>
      <trkpt lat="46.91285" lon="-0.89517">
        <ele>157</ele>
        <time>2022-06-01T21:26:45Z</time>
      </trkpt>
      <trkpt lat="46.91316" lon="-0.89521">
        <ele>157</ele>
        <time>2022-06-01T21:26:50Z</time>
      </trkpt>
      <trkpt lat="46.91334" lon="-0.89529">
        <ele>156</ele>
        <time>2022-06-01T21:26:54Z</time>
      </trkpt>
      <trkpt lat="46.9137" lon="-0.89555">
        <ele>156</ele>
        <time>2022-06-01T21:27:01Z</time>
      </trkpt>
      <trkpt lat="46.91431" lon="-0.89603">
        <ele>153</ele>
        <time>2022-06-01T21:27:13Z</time>
      </trkpt>
      <trkpt lat="46.91451" lon="-0.89616">
        <ele>153</ele>
        <time>2022-06-01T21:27:17Z</time>
      </trkpt>
      <trkpt lat="46.91562" lon="-0.89661">
        <ele>152</ele>
        <time>2022-06-01T21:27:38Z</time>
      </trkpt>
      <trkpt lat="46.91576" lon="-0.89669">
        <ele>152</ele>
        <time>2022-06-01T21:27:40Z</time>
      </trkpt>
      <trkpt lat="46.91587" lon="-0.89678">
        <ele>152</ele>
        <time>2022-06-01T21:27:43Z</time>
      </trkpt>
      <trkpt lat="46.91607" lon="-0.89703">
        <ele>152</ele>
        <time>2022-06-01T21:27:47Z</time>
      </trkpt>
      <trkpt lat="46.91622" lon="-0.89729">
        <ele>152</ele>
        <time>2022-06-01T21:27:51Z</time>
      </trkpt>
      <trkpt lat="46.91657" lon="-0.8982">
        <ele>154</ele>
        <time>2022-06-01T21:28:04Z</time>
      </trkpt>
      <trkpt lat="46.91679" lon="-0.89862">
        <ele>155</ele>
        <time>2022-06-01T21:28:11Z</time>
      </trkpt>
      <trkpt lat="46.917" lon="-0.89895">
        <ele>156</ele>
        <time>2022-06-01T21:28:16Z</time>
      </trkpt>
      <trkpt lat="46.91718" lon="-0.89917">
        <ele>156</ele>
        <time>2022-06-01T21:28:20Z</time>
      </trkpt>
      <trkpt lat="46.9206" lon="-0.90246">
        <ele>175</ele>
        <time>2022-06-01T21:29:33Z</time>
      </trkpt>
      <trkpt lat="46.92095" lon="-0.90273">
        <ele>175</ele>
        <time>2022-06-01T21:29:40Z</time>
      </trkpt>
      <trkpt lat="46.92121" lon="-0.90286">
        <ele>176</ele>
        <time>2022-06-01T21:29:45Z</time>
      </trkpt>
      <trkpt lat="46.92153" lon="-0.90291">
        <ele>178</ele>
        <time>2022-06-01T21:29:51Z</time>
      </trkpt>
      <trkpt lat="46.92168" lon="-0.90289">
        <ele>179</ele>
        <time>2022-06-01T21:29:53Z</time>
      </trkpt>
      <trkpt lat="46.92188" lon="-0.90283">
        <ele>179</ele>
        <time>2022-06-01T21:29:57Z</time>
      </trkpt>
      <trkpt lat="46.92223" lon="-0.90259">
        <ele>181</ele>
        <time>2022-06-01T21:30:04Z</time>
      </trkpt>
      <trkpt lat="46.92382" lon="-0.90105">
        <ele>182</ele>
        <time>2022-06-01T21:30:38Z</time>
      </trkpt>
      <trkpt lat="46.92417" lon="-0.90077">
        <ele>182</ele>
        <time>2022-06-01T21:30:45Z</time>
      </trkpt>
      <trkpt lat="46.92455" lon="-0.9006">
        <ele>184</ele>
        <time>2022-06-01T21:30:52Z</time>
      </trkpt>
      <trkpt lat="46.92471" lon="-0.90055">
        <ele>185</ele>
        <time>2022-06-01T21:30:55Z</time>
      </trkpt>
      <trkpt lat="46.92516" lon="-0.90049">
        <ele>188</ele>
        <time>2022-06-01T21:31:03Z</time>
      </trkpt>
      <trkpt lat="46.92519" lon="-0.90038">
        <ele>188</ele>
        <time>2022-06-01T21:31:04Z</time>
      </trkpt>
      <trkpt lat="46.92525" lon="-0.90031">
        <ele>188</ele>
        <time>2022-06-01T21:31:06Z</time>
      </trkpt>
      <trkpt lat="46.92533" lon="-0.9003">
        <ele>188</ele>
        <time>2022-06-01T21:31:07Z</time>
      </trkpt>
      <trkpt lat="46.9254" lon="-0.90037">
        <ele>189</ele>
        <time>2022-06-01T21:31:09Z</time>
      </trkpt>
      <trkpt lat="46.92542" lon="-0.90047">
        <ele>189</ele>
        <time>2022-06-01T21:31:10Z</time>
      </trkpt>
      <trkpt lat="46.92658" lon="-0.90028">
        <ele>195</ele>
        <time>2022-06-01T21:31:31Z</time>
      </trkpt>
      <trkpt lat="46.92845" lon="-0.90002">
        <ele>194</ele>
        <time>2022-06-01T21:32:04Z</time>
      </trkpt>
      <trkpt lat="46.92872" lon="-0.9">
        <ele>194</ele>
        <time>2022-06-01T21:32:09Z</time>
      </trkpt>
      <trkpt lat="46.93111" lon="-0.90073">
        <ele>196</ele>
        <time>2022-06-01T21:32:52Z</time>
      </trkpt>
      <trkpt lat="46.93133" lon="-0.90073">
        <ele>195</ele>
        <time>2022-06-01T21:32:56Z</time>
      </trkpt>
      <trkpt lat="46.93148" lon="-0.90069">
        <ele>194</ele>
        <time>2022-06-01T21:32:59Z</time>
      </trkpt>
      <trkpt lat="46.93163" lon="-0.90057">
        <ele>194</ele>
        <time>2022-06-01T21:33:02Z</time>
      </trkpt>
      <trkpt lat="46.93257" lon="-0.89973">
        <ele>194</ele>
        <time>2022-06-01T21:33:22Z</time>
      </trkpt>
      <trkpt lat="46.93319" lon="-0.89907">
        <ele>194</ele>
        <time>2022-06-01T21:33:35Z</time>
      </trkpt>
      <trkpt lat="46.93402" lon="-0.89814">
        <ele>192</ele>
        <time>2022-06-01T21:33:54Z</time>
      </trkpt>
      <trkpt lat="46.93423" lon="-0.89794">
        <ele>191</ele>
        <time>2022-06-01T21:33:58Z</time>
      </trkpt>
      <trkpt lat="46.93476" lon="-0.89763">
        <ele>188</ele>
        <time>2022-06-01T21:34:08Z</time>
      </trkpt>
      <trkpt lat="46.93474" lon="-0.89757">
        <ele>188</ele>
        <time>2022-06-01T21:34:09Z</time>
      </trkpt>
      <trkpt lat="46.93475" lon="-0.89746">
        <ele>188</ele>
        <time>2022-06-01T21:34:11Z</time>
      </trkpt>
      <trkpt lat="46.93477" lon="-0.8974">
        <ele>188</ele>
        <time>2022-06-01T21:34:11Z</time>
      </trkpt>
      <trkpt lat="46.93481" lon="-0.89735">
        <ele>188</ele>
        <time>2022-06-01T21:34:12Z</time>
      </trkpt>
      <trkpt lat="46.93485" lon="-0.89732">
        <ele>187</ele>
        <time>2022-06-01T21:34:13Z</time>
      </trkpt>
      <trkpt lat="46.9349" lon="-0.89732">
        <ele>187</ele>
        <time>2022-06-01T21:34:14Z</time>
      </trkpt>
      <trkpt lat="46.93495" lon="-0.89735">
        <ele>187</ele>
        <time>2022-06-01T21:34:15Z</time>
      </trkpt>
      <trkpt lat="46.93498" lon="-0.8974">
        <ele>187</ele>
        <time>2022-06-01T21:34:16Z</time>
      </trkpt>
      <trkpt lat="46.93501" lon="-0.89753">
        <ele>187</ele>
        <time>2022-06-01T21:34:17Z</time>
      </trkpt>
      <trkpt lat="46.93635" lon="-0.8975">
        <ele>179</ele>
        <time>2022-06-01T21:34:41Z</time>
      </trkpt>
      <trkpt lat="46.93783" lon="-0.89756">
        <ele>176</ele>
        <time>2022-06-01T21:35:08Z</time>
      </trkpt>
      <trkpt lat="46.93888" lon="-0.89766">
        <ele>175</ele>
        <time>2022-06-01T21:35:26Z</time>
      </trkpt>
      <trkpt lat="46.93939" lon="-0.89767">
        <ele>175</ele>
        <time>2022-06-01T21:35:35Z</time>
      </trkpt>
      <trkpt lat="46.94197" lon="-0.89739">
        <ele>172</ele>
        <time>2022-06-01T21:36:21Z</time>
      </trkpt>
      <trkpt lat="46.94254" lon="-0.89728">
        <ele>174</ele>
        <time>2022-06-01T21:36:32Z</time>
      </trkpt>
      <trkpt lat="46.9445" lon="-0.89664">
        <ele>173</ele>
        <time>2022-06-01T21:37:07Z</time>
      </trkpt>
      <trkpt lat="46.94555" lon="-0.89634">
        <ele>171</ele>
        <time>2022-06-01T21:37:26Z</time>
      </trkpt>
      <trkpt lat="46.94577" lon="-0.89633">
        <ele>170</ele>
        <time>2022-06-01T21:37:30Z</time>
      </trkpt>
      <trkpt lat="46.94612" lon="-0.89635">
        <ele>169</ele>
        <time>2022-06-01T21:37:37Z</time>
      </trkpt>
      <trkpt lat="46.94656" lon="-0.89644">
        <ele>168</ele>
        <time>2022-06-01T21:37:45Z</time>
      </trkpt>
      <trkpt lat="46.94677" lon="-0.89652">
        <ele>167</ele>
        <time>2022-06-01T21:37:48Z</time>
      </trkpt>
      <trkpt lat="46.9473" lon="-0.89681">
        <ele>165</ele>
        <time>2022-06-01T21:37:58Z</time>
      </trkpt>
      <trkpt lat="46.94755" lon="-0.89693">
        <ele>165</ele>
        <time>2022-06-01T21:38:03Z</time>
      </trkpt>
      <trkpt lat="46.94782" lon="-0.897">
        <ele>164</ele>
        <time>2022-06-01T21:38:08Z</time>
      </trkpt>
      <trkpt lat="46.94827" lon="-0.89706">
        <ele>163</ele>
        <time>2022-06-01T21:38:16Z</time>
      </trkpt>
      <trkpt lat="46.94829" lon="-0.89698">
        <ele>163</ele>
        <time>2022-06-01T21:38:17Z</time>
      </trkpt>
      <trkpt lat="46.94832" lon="-0.89692">
        <ele>163</ele>
        <time>2022-06-01T21:38:18Z</time>
      </trkpt>
      <trkpt lat="46.94837" lon="-0.89688">
        <ele>163</ele>
        <time>2022-06-01T21:38:19Z</time>
      </trkpt>
      <trkpt lat="46.94842" lon="-0.89687">
        <ele>163</ele>
        <time>2022-06-01T21:38:20Z</time>
      </trkpt>
      <trkpt lat="46.94848" lon="-0.89689">
        <ele>162</ele>
        <time>2022-06-01T21:38:21Z</time>
      </trkpt>
      <trkpt lat="46.94852" lon="-0.89693">
        <ele>162</ele>
        <time>2022-06-01T21:38:22Z</time>
      </trkpt>
      <trkpt lat="46.9494" lon="-0.89606">
        <ele>158</ele>
        <time>2022-06-01T21:38:41Z</time>
      </trkpt>
      <trkpt lat="46.94962" lon="-0.89589">
        <ele>158</ele>
        <time>2022-06-01T21:38:45Z</time>
      </trkpt>
      <trkpt lat="46.94977" lon="-0.89581">
        <ele>158</ele>
        <time>2022-06-01T21:38:48Z</time>
      </trkpt>
      <trkpt lat="46.95004" lon="-0.8957">
        <ele>157</ele>
        <time>2022-06-01T21:38:53Z</time>
      </trkpt>
      <trkpt lat="46.95031" lon="-0.89565">
        <ele>156</ele>
        <time>2022-06-01T21:38:58Z</time>
      </trkpt>
      <trkpt lat="46.95067" lon="-0.89566">
        <ele>155</ele>
        <time>2022-06-01T21:39:04Z</time>
      </trkpt>
      <trkpt lat="46.95099" lon="-0.89574">
        <ele>154</ele>
        <time>2022-06-01T21:39:10Z</time>
      </trkpt>
      <trkpt lat="46.95133" lon="-0.8959">
        <ele>151</ele>
        <time>2022-06-01T21:39:16Z</time>
      </trkpt>
      <trkpt lat="46.95219" lon="-0.89649">
        <ele>148</ele>
        <time>2022-06-01T21:39:33Z</time>
      </trkpt>
      <trkpt lat="46.95269" lon="-0.89674">
        <ele>148</ele>
        <time>2022-06-01T21:39:43Z</time>
      </trkpt>
      <trkpt lat="46.95448" lon="-0.89773">
        <ele>143</ele>
        <time>2022-06-01T21:40:17Z</time>
      </trkpt>
      <trkpt lat="46.9548" lon="-0.89788">
        <ele>143</ele>
        <time>2022-06-01T21:40:23Z</time>
      </trkpt>
      <trkpt lat="46.95533" lon="-0.89806">
        <ele>142</ele>
        <time>2022-06-01T21:40:32Z</time>
      </trkpt>
      <trkpt lat="46.95609" lon="-0.89803">
        <ele>141</ele>
        <time>2022-06-01T21:40:46Z</time>
      </trkpt>
      <trkpt lat="46.95638" lon="-0.89788">
        <ele>140</ele>
        <time>2022-06-01T21:40:51Z</time>
      </trkpt>
      <trkpt lat="46.95676" lon="-0.89756">
        <ele>139</ele>
        <time>2022-06-01T21:40:59Z</time>
      </trkpt>
      <trkpt lat="46.95754" lon="-0.89661">
        <ele>135</ele>
        <time>2022-06-01T21:41:17Z</time>
      </trkpt>
      <trkpt lat="46.95806" lon="-0.89603">
        <ele>135</ele>
        <time>2022-06-01T21:41:29Z</time>
      </trkpt>
      <trkpt lat="46.95813" lon="-0.89591">
        <ele>135</ele>
        <time>2022-06-01T21:41:31Z</time>
      </trkpt>
      <trkpt lat="46.95818" lon="-0.89583">
        <ele>134</ele>
        <time>2022-06-01T21:41:32Z</time>
      </trkpt>
      <trkpt lat="46.95805" lon="-0.89569">
        <ele>135</ele>
        <time>2022-06-01T21:41:35Z</time>
      </trkpt>
      <trkpt lat="46.95774" lon="-0.89546">
        <ele>135</ele>
        <time>2022-06-01T21:41:41Z</time>
      </trkpt>
      <trkpt lat="46.95781" lon="-0.89517">
        <ele>135</ele>
        <time>2022-06-01T21:41:45Z</time>
      </trkpt>
      <trkpt lat="46.95804" lon="-0.89463">
        <ele>133</ele>
        <time>2022-06-01T21:41:53Z</time>
      </trkpt>
      <trkpt lat="46.9584" lon="-0.89307">
        <ele>127</ele>
        <time>2022-06-01T21:42:13Z</time>
      </trkpt>
      <trkpt lat="46.95844" lon="-0.89292">
        <ele>126</ele>
        <time>2022-06-01T21:42:15Z</time>
      </trkpt>
      <trkpt lat="46.9586" lon="-0.89271">
        <ele>125</ele>
        <time>2022-06-01T21:42:18Z</time>
      </trkpt>
      <trkpt lat="46.95864" lon="-0.8926">
        <ele>125</ele>
        <time>2022-06-01T21:42:20Z</time>
      </trkpt>
      <trkpt lat="46.95881" lon="-0.89177">
        <ele>123</ele>
        <time>2022-06-01T21:42:30Z</time>
      </trkpt>
      <trkpt lat="46.95883" lon="-0.89155">
        <ele>123</ele>
        <time>2022-06-01T21:42:33Z</time>
      </trkpt>
      <trkpt lat="46.95896" lon="-0.89122">
        <ele>122</ele>
        <time>2022-06-01T21:42:38Z</time>
      </trkpt>
      <trkpt lat="46.95901" lon="-0.89115">
        <ele>122</ele>
        <time>2022-06-01T21:42:39Z</time>
      </trkpt>
      <trkpt lat="46.9592" lon="-0.89097">
        <ele>121</ele>
        <time>2022-06-01T21:42:43Z</time>
      </trkpt>
      <trkpt lat="46.95927" lon="-0.89094">
        <ele>121</ele>
        <time>2022-06-01T21:42:44Z</time>
      </trkpt>
      <trkpt lat="46.95928" lon="-0.89091">
        <ele>121</ele>
        <time>2022-06-01T21:42:45Z</time>
      </trkpt>
      <trkpt lat="46.95931" lon="-0.89086">
        <ele>121</ele>
        <time>2022-06-01T21:42:46Z</time>
      </trkpt>
      <trkpt lat="46.95934" lon="-0.89087">
        <ele>121</ele>
        <time>2022-06-01T21:42:46Z</time>
      </trkpt>
      <trkpt lat="46.95942" lon="-0.8908">
        <ele>120</ele>
        <time>2022-06-01T21:42:48Z</time>
      </trkpt>
      <trkpt lat="46.95971" lon="-0.89036">
        <ele>117</ele>
        <time>2022-06-01T21:42:55Z</time>
      </trkpt>
      <trkpt lat="46.95994" lon="-0.88991">
        <ele>115</ele>
        <time>2022-06-01T21:43:02Z</time>
      </trkpt>
      <trkpt lat="46.96008" lon="-0.88954">
        <ele>113</ele>
        <time>2022-06-01T21:43:07Z</time>
      </trkpt>
      <trkpt lat="46.96014" lon="-0.88926">
        <ele>112</ele>
        <time>2022-06-01T21:43:11Z</time>
      </trkpt>
      <trkpt lat="46.96021" lon="-0.88887">
        <ele>112</ele>
        <time>2022-06-01T21:43:16Z</time>
      </trkpt>
      <trkpt lat="46.9603" lon="-0.88844">
        <ele>112</ele>
        <time>2022-06-01T21:43:21Z</time>
      </trkpt>
      <trkpt lat="46.96037" lon="-0.88794">
        <ele>112</ele>
        <time>2022-06-01T21:43:27Z</time>
      </trkpt>
      <trkpt lat="46.96041" lon="-0.88746">
        <ele>113</ele>
        <time>2022-06-01T21:43:33Z</time>
      </trkpt>
      <trkpt lat="46.96039" lon="-0.8873">
        <ele>113</ele>
        <time>2022-06-01T21:43:35Z</time>
      </trkpt>
      <trkpt lat="46.96036" lon="-0.88721">
        <ele>113</ele>
        <time>2022-06-01T21:43:36Z</time>
      </trkpt>
      <trkpt lat="46.96038" lon="-0.88711">
        <ele>113</ele>
        <time>2022-06-01T21:43:38Z</time>
      </trkpt>
      <trkpt lat="46.96045" lon="-0.88706">
        <ele>112</ele>
        <time>2022-06-01T21:43:39Z</time>
      </trkpt>
      <trkpt lat="46.96052" lon="-0.88709">
        <ele>112</ele>
        <time>2022-06-01T21:43:40Z</time>
      </trkpt>
      <trkpt lat="46.96054" lon="-0.88714">
        <ele>112</ele>
        <time>2022-06-01T21:43:41Z</time>
      </trkpt>
      <trkpt lat="46.96055" lon="-0.88724">
        <ele>112</ele>
        <time>2022-06-01T21:43:42Z</time>
      </trkpt>
      <trkpt lat="46.96122" lon="-0.88756">
        <ele>112</ele>
        <time>2022-06-01T21:43:55Z</time>
      </trkpt>
      <trkpt lat="46.96138" lon="-0.88766">
        <ele>112</ele>
        <time>2022-06-01T21:43:58Z</time>
      </trkpt>
      <trkpt lat="46.96191" lon="-0.88805">
        <ele>115</ele>
        <time>2022-06-01T21:44:08Z</time>
      </trkpt>
      <trkpt lat="46.96259" lon="-0.88874">
        <ele>117</ele>
        <time>2022-06-01T21:44:23Z</time>
      </trkpt>
      <trkpt lat="46.96297" lon="-0.88908">
        <ele>117</ele>
        <time>2022-06-01T21:44:31Z</time>
      </trkpt>
      <trkpt lat="46.96392" lon="-0.88955">
        <ele>122</ele>
        <time>2022-06-01T21:44:49Z</time>
      </trkpt>
      <trkpt lat="46.96413" lon="-0.88967">
        <ele>123</ele>
        <time>2022-06-01T21:44:53Z</time>
      </trkpt>
      <trkpt lat="46.96434" lon="-0.88982">
        <ele>124</ele>
        <time>2022-06-01T21:44:57Z</time>
      </trkpt>
      <trkpt lat="46.96458" lon="-0.89004">
        <ele>126</ele>
        <time>2022-06-01T21:45:02Z</time>
      </trkpt>
      <trkpt lat="46.965" lon="-0.89053">
        <ele>130</ele>
        <time>2022-06-01T21:45:12Z</time>
      </trkpt>
      <trkpt lat="46.96513" lon="-0.89071">
        <ele>131</ele>
        <time>2022-06-01T21:45:15Z</time>
      </trkpt>
      <trkpt lat="46.96559" lon="-0.89144">
        <ele>132</ele>
        <time>2022-06-01T21:45:27Z</time>
      </trkpt>
      <trkpt lat="46.96577" lon="-0.89169">
        <ele>132</ele>
        <time>2022-06-01T21:45:31Z</time>
      </trkpt>
      <trkpt lat="46.96594" lon="-0.89187">
        <ele>133</ele>
        <time>2022-06-01T21:45:35Z</time>
      </trkpt>
      <trkpt lat="46.96721" lon="-0.89278">
        <ele>140</ele>
        <time>2022-06-01T21:46:00Z</time>
      </trkpt>
      <trkpt lat="46.96737" lon="-0.89287">
        <ele>140</ele>
        <time>2022-06-01T21:46:03Z</time>
      </trkpt>
      <trkpt lat="46.96755" lon="-0.8929">
        <ele>141</ele>
        <time>2022-06-01T21:46:06Z</time>
      </trkpt>
      <trkpt lat="46.96767" lon="-0.89302">
        <ele>141</ele>
        <time>2022-06-01T21:46:09Z</time>
      </trkpt>
      <trkpt lat="46.96782" lon="-0.89307">
        <ele>141</ele>
        <time>2022-06-01T21:46:12Z</time>
      </trkpt>
      <trkpt lat="46.96902" lon="-0.89337">
        <ele>143</ele>
        <time>2022-06-01T21:46:33Z</time>
      </trkpt>
      <trkpt lat="46.96921" lon="-0.89338">
        <ele>144</ele>
        <time>2022-06-01T21:46:37Z</time>
      </trkpt>
      <trkpt lat="46.96933" lon="-0.89332">
        <ele>143</ele>
        <time>2022-06-01T21:46:39Z</time>
      </trkpt>
      <trkpt lat="46.96944" lon="-0.89324">
        <ele>143</ele>
        <time>2022-06-01T21:46:41Z</time>
      </trkpt>
      <trkpt lat="46.97108" lon="-0.89165">
        <ele>137</ele>
        <time>2022-06-01T21:47:16Z</time>
      </trkpt>
      <trkpt lat="46.97131" lon="-0.89149">
        <ele>135</ele>
        <time>2022-06-01T21:47:21Z</time>
      </trkpt>
      <trkpt lat="46.97162" lon="-0.89139">
        <ele>134</ele>
        <time>2022-06-01T21:47:26Z</time>
      </trkpt>
      <trkpt lat="46.9719" lon="-0.89137">
        <ele>131</ele>
        <time>2022-06-01T21:47:31Z</time>
      </trkpt>
      <trkpt lat="46.97224" lon="-0.89143">
        <ele>129</ele>
        <time>2022-06-01T21:47:37Z</time>
      </trkpt>
      <trkpt lat="46.97244" lon="-0.89149">
        <ele>127</ele>
        <time>2022-06-01T21:47:41Z</time>
      </trkpt>
      <trkpt lat="46.97357" lon="-0.89193">
        <ele>119</ele>
        <time>2022-06-01T21:48:02Z</time>
      </trkpt>
      <trkpt lat="46.97388" lon="-0.89203">
        <ele>117</ele>
        <time>2022-06-01T21:48:08Z</time>
      </trkpt>
      <trkpt lat="46.97417" lon="-0.89204">
        <ele>114</ele>
        <time>2022-06-01T21:48:13Z</time>
      </trkpt>
      <trkpt lat="46.97522" lon="-0.89195">
        <ele>110</ele>
        <time>2022-06-01T21:48:31Z</time>
      </trkpt>
      <trkpt lat="46.97537" lon="-0.89195">
        <ele>110</ele>
        <time>2022-06-01T21:48:34Z</time>
      </trkpt>
      <trkpt lat="46.97567" lon="-0.89202">
        <ele>110</ele>
        <time>2022-06-01T21:48:40Z</time>
      </trkpt>
      <trkpt lat="46.97624" lon="-0.89225">
        <ele>111</ele>
        <time>2022-06-01T21:48:50Z</time>
      </trkpt>
      <trkpt lat="46.97725" lon="-0.89264">
        <ele>112</ele>
        <time>2022-06-01T21:49:09Z</time>
      </trkpt>
      <trkpt lat="46.97752" lon="-0.89269">
        <ele>113</ele>
        <time>2022-06-01T21:49:13Z</time>
      </trkpt>
      <trkpt lat="46.97779" lon="-0.89269">
        <ele>114</ele>
        <time>2022-06-01T21:49:18Z</time>
      </trkpt>
      <trkpt lat="46.98174" lon="-0.89239">
        <ele>134</ele>
        <time>2022-06-01T21:50:29Z</time>
      </trkpt>
      <trkpt lat="46.98232" lon="-0.89229">
        <ele>135</ele>
        <time>2022-06-01T21:50:39Z</time>
      </trkpt>
      <trkpt lat="46.9828" lon="-0.89211">
        <ele>135</ele>
        <time>2022-06-01T21:50:48Z</time>
      </trkpt>
      <trkpt lat="46.98317" lon="-0.89193">
        <ele>135</ele>
        <time>2022-06-01T21:50:55Z</time>
      </trkpt>
      <trkpt lat="46.98461" lon="-0.89109">
        <ele>133</ele>
        <time>2022-06-01T21:51:22Z</time>
      </trkpt>
      <trkpt lat="46.98527" lon="-0.89079">
        <ele>133</ele>
        <time>2022-06-01T21:51:35Z</time>
      </trkpt>
      <trkpt lat="46.9859" lon="-0.89056">
        <ele>131</ele>
        <time>2022-06-01T21:51:46Z</time>
      </trkpt>
      <trkpt lat="46.98657" lon="-0.89039">
        <ele>131</ele>
        <time>2022-06-01T21:51:58Z</time>
      </trkpt>
      <trkpt lat="46.98816" lon="-0.89011">
        <ele>132</ele>
        <time>2022-06-01T21:52:27Z</time>
      </trkpt>
      <trkpt lat="46.98859" lon="-0.89006">
        <ele>132</ele>
        <time>2022-06-01T21:52:34Z</time>
      </trkpt>
      <trkpt lat="46.98897" lon="-0.89005">
        <ele>133</ele>
        <time>2022-06-01T21:52:41Z</time>
      </trkpt>
      <trkpt lat="46.98952" lon="-0.8901">
        <ele>134</ele>
        <time>2022-06-01T21:52:51Z</time>
      </trkpt>
      <trkpt lat="46.99025" lon="-0.89023">
        <ele>136</ele>
        <time>2022-06-01T21:53:04Z</time>
      </trkpt>
      <trkpt lat="46.99062" lon="-0.89032">
        <ele>136</ele>
        <time>2022-06-01T21:53:11Z</time>
      </trkpt>
      <trkpt lat="46.99103" lon="-0.89048">
        <ele>136</ele>
        <time>2022-06-01T21:53:18Z</time>
      </trkpt>
      <trkpt lat="46.99137" lon="-0.8907">
        <ele>136</ele>
        <time>2022-06-01T21:53:25Z</time>
      </trkpt>
      <trkpt lat="46.99162" lon="-0.89092">
        <ele>136</ele>
        <time>2022-06-01T21:53:30Z</time>
      </trkpt>
      <trkpt lat="46.99271" lon="-0.89214">
        <ele>133</ele>
        <time>2022-06-01T21:53:55Z</time>
      </trkpt>
      <trkpt lat="46.993" lon="-0.8924">
        <ele>132</ele>
        <time>2022-06-01T21:54:01Z</time>
      </trkpt>
      <trkpt lat="46.99353" lon="-0.89276">
        <ele>131</ele>
        <time>2022-06-01T21:54:11Z</time>
      </trkpt>
      <trkpt lat="46.99393" lon="-0.89297">
        <ele>130</ele>
        <time>2022-06-01T21:54:19Z</time>
      </trkpt>
      <trkpt lat="46.9942" lon="-0.89305">
        <ele>129</ele>
        <time>2022-06-01T21:54:23Z</time>
      </trkpt>
      <trkpt lat="46.99451" lon="-0.89311">
        <ele>129</ele>
        <time>2022-06-01T21:54:29Z</time>
      </trkpt>
      <trkpt lat="46.99491" lon="-0.89308">
        <ele>129</ele>
        <time>2022-06-01T21:54:36Z</time>
      </trkpt>
      <trkpt lat="46.99518" lon="-0.893">
        <ele>130</ele>
        <time>2022-06-01T21:54:41Z</time>
      </trkpt>
      <trkpt lat="46.99529" lon="-0.89295">
        <ele>130</ele>
        <time>2022-06-01T21:54:43Z</time>
      </trkpt>
      <trkpt lat="46.99529" lon="-0.8929">
        <ele>131</ele>
        <time>2022-06-01T21:54:44Z</time>
      </trkpt>
      <trkpt lat="46.99532" lon="-0.8928">
        <ele>131</ele>
        <time>2022-06-01T21:54:45Z</time>
      </trkpt>
      <trkpt lat="46.99538" lon="-0.89275">
        <ele>131</ele>
        <time>2022-06-01T21:54:46Z</time>
      </trkpt>
      <trkpt lat="46.99545" lon="-0.89277">
        <ele>132</ele>
        <time>2022-06-01T21:54:48Z</time>
      </trkpt>
      <trkpt lat="46.99549" lon="-0.89285">
        <ele>132</ele>
        <time>2022-06-01T21:54:49Z</time>
      </trkpt>
      <trkpt lat="46.9955" lon="-0.89294">
        <ele>131</ele>
        <time>2022-06-01T21:54:50Z</time>
      </trkpt>
      <trkpt lat="46.99547" lon="-0.89303">
        <ele>131</ele>
        <time>2022-06-01T21:54:51Z</time>
      </trkpt>
      <trkpt lat="46.99544" lon="-0.89306">
        <ele>131</ele>
        <time>2022-06-01T21:54:52Z</time>
      </trkpt>
      <trkpt lat="46.99547" lon="-0.89314">
        <ele>130</ele>
        <time>2022-06-01T21:54:53Z</time>
      </trkpt>
      <trkpt lat="46.99556" lon="-0.89327">
        <ele>130</ele>
        <time>2022-06-01T21:54:55Z</time>
      </trkpt>
      <trkpt lat="46.99514" lon="-0.89322">
        <ele>129</ele>
        <time>2022-06-01T21:55:03Z</time>
      </trkpt>
      <trkpt lat="46.99507" lon="-0.89323">
        <ele>129</ele>
        <time>2022-06-01T21:55:04Z</time>
      </trkpt>
      <trkpt lat="46.99514" lon="-0.89322">
        <ele>129</ele>
        <time>2022-06-01T21:55:05Z</time>
      </trkpt>
      <trkpt lat="46.99556" lon="-0.89327">
        <ele>130</ele>
        <time>2022-06-01T21:55:13Z</time>
      </trkpt>
      <trkpt lat="46.99547" lon="-0.89314">
        <ele>130</ele>
        <time>2022-06-01T21:55:15Z</time>
      </trkpt>
      <trkpt lat="46.99544" lon="-0.89306">
        <ele>131</ele>
        <time>2022-06-01T21:55:16Z</time>
      </trkpt>
      <trkpt lat="46.99537" lon="-0.89306">
        <ele>130</ele>
        <time>2022-06-01T21:55:17Z</time>
      </trkpt>
      <trkpt lat="46.99533" lon="-0.89304">
        <ele>130</ele>
        <time>2022-06-01T21:55:18Z</time>
      </trkpt>
      <trkpt lat="46.99529" lon="-0.89295">
        <ele>130</ele>
        <time>2022-06-01T21:55:19Z</time>
      </trkpt>
      <trkpt lat="46.99529" lon="-0.8929">
        <ele>131</ele>
        <time>2022-06-01T21:55:20Z</time>
      </trkpt>
      <trkpt lat="46.99532" lon="-0.8928">
        <ele>131</ele>
        <time>2022-06-01T21:55:21Z</time>
      </trkpt>
      <trkpt lat="46.99538" lon="-0.89275">
        <ele>131</ele>
        <time>2022-06-01T21:55:22Z</time>
      </trkpt>
      <trkpt lat="46.99545" lon="-0.89277">
        <ele>132</ele>
        <time>2022-06-01T21:55:24Z</time>
      </trkpt>
      <trkpt lat="46.99549" lon="-0.89285">
        <ele>132</ele>
        <time>2022-06-01T21:55:25Z</time>
      </trkpt>
      <trkpt lat="46.99574" lon="-0.89276">
        <ele>133</ele>
        <time>2022-06-01T21:55:29Z</time>
      </trkpt>
      <trkpt lat="46.99603" lon="-0.89268">
        <ele>134</ele>
        <time>2022-06-01T21:55:35Z</time>
      </trkpt>
      <trkpt lat="46.99654" lon="-0.89273">
        <ele>137</ele>
        <time>2022-06-01T21:55:44Z</time>
      </trkpt>
      <trkpt lat="46.99675" lon="-0.89272">
        <ele>138</ele>
        <time>2022-06-01T21:55:47Z</time>
      </trkpt>
      <trkpt lat="46.99706" lon="-0.89256">
        <ele>139</ele>
        <time>2022-06-01T21:55:53Z</time>
      </trkpt>
      <trkpt lat="46.99719" lon="-0.89243">
        <ele>140</ele>
        <time>2022-06-01T21:55:56Z</time>
      </trkpt>
      <trkpt lat="46.99716" lon="-0.89233">
        <ele>140</ele>
        <time>2022-06-01T21:55:57Z</time>
      </trkpt>
      <trkpt lat="46.99717" lon="-0.89228">
        <ele>140</ele>
        <time>2022-06-01T21:55:58Z</time>
      </trkpt>
      <trkpt lat="46.99719" lon="-0.89224">
        <ele>140</ele>
        <time>2022-06-01T21:55:59Z</time>
      </trkpt>
      <trkpt lat="46.99724" lon="-0.89218">
        <ele>141</ele>
        <time>2022-06-01T21:56:00Z</time>
      </trkpt>
      <trkpt lat="46.99727" lon="-0.89218">
        <ele>141</ele>
        <time>2022-06-01T21:56:00Z</time>
      </trkpt>
      <trkpt lat="46.99733" lon="-0.89221">
        <ele>141</ele>
        <time>2022-06-01T21:56:02Z</time>
      </trkpt>
      <trkpt lat="46.99737" lon="-0.89228">
        <ele>141</ele>
        <time>2022-06-01T21:56:03Z</time>
      </trkpt>
      <trkpt lat="46.99749" lon="-0.89224">
        <ele>142</ele>
        <time>2022-06-01T21:56:05Z</time>
      </trkpt>
      <trkpt lat="46.99796" lon="-0.89189">
        <ele>144</ele>
        <time>2022-06-01T21:56:14Z</time>
      </trkpt>
      <trkpt lat="46.99844" lon="-0.8916">
        <ele>144</ele>
        <time>2022-06-01T21:56:23Z</time>
      </trkpt>
      <trkpt lat="46.99889" lon="-0.8914">
        <ele>145</ele>
        <time>2022-06-01T21:56:32Z</time>
      </trkpt>
      <trkpt lat="46.99924" lon="-0.89129">
        <ele>146</ele>
        <time>2022-06-01T21:56:38Z</time>
      </trkpt>
      <trkpt lat="46.99972" lon="-0.89119">
        <ele>145</ele>
        <time>2022-06-01T21:56:47Z</time>
      </trkpt>
      <trkpt lat="47.0016" lon="-0.89091">
        <ele>144</ele>
        <time>2022-06-01T21:57:20Z</time>
      </trkpt>
      <trkpt lat="47.00174" lon="-0.89091">
        <ele>144</ele>
        <time>2022-06-01T21:57:23Z</time>
      </trkpt>
      <trkpt lat="47.00194" lon="-0.89096">
        <ele>144</ele>
        <time>2022-06-01T21:57:27Z</time>
      </trkpt>
      <trkpt lat="47.00207" lon="-0.89104">
        <ele>144</ele>
        <time>2022-06-01T21:57:29Z</time>
      </trkpt>
      <trkpt lat="47.00212" lon="-0.89094">
        <ele>144</ele>
        <time>2022-06-01T21:57:31Z</time>
      </trkpt>
      <trkpt lat="47.00219" lon="-0.89086">
        <ele>143</ele>
        <time>2022-06-01T21:57:32Z</time>
      </trkpt>
      <trkpt lat="47.00227" lon="-0.89082">
        <ele>143</ele>
        <time>2022-06-01T21:57:34Z</time>
      </trkpt>
      <trkpt lat="47.00235" lon="-0.89082">
        <ele>143</ele>
        <time>2022-06-01T21:57:35Z</time>
      </trkpt>
      <trkpt lat="47.00243" lon="-0.89086">
        <ele>143</ele>
        <time>2022-06-01T21:57:37Z</time>
      </trkpt>
      <trkpt lat="47.00249" lon="-0.89092">
        <ele>143</ele>
        <time>2022-06-01T21:57:38Z</time>
      </trkpt>
      <trkpt lat="47.00254" lon="-0.891">
        <ele>143</ele>
        <time>2022-06-01T21:57:39Z</time>
      </trkpt>
      <trkpt lat="47.00257" lon="-0.89109">
        <ele>143</ele>
        <time>2022-06-01T21:57:40Z</time>
      </trkpt>
      <trkpt lat="47.00258" lon="-0.8912">
        <ele>143</ele>
        <time>2022-06-01T21:57:42Z</time>
      </trkpt>
      <trkpt lat="47.00256" lon="-0.89132">
        <ele>143</ele>
        <time>2022-06-01T21:57:43Z</time>
      </trkpt>
      <trkpt lat="47.00253" lon="-0.89142">
        <ele>144</ele>
        <time>2022-06-01T21:57:45Z</time>
      </trkpt>
      <trkpt lat="47.00247" lon="-0.89151">
        <ele>144</ele>
        <time>2022-06-01T21:57:46Z</time>
      </trkpt>
      <trkpt lat="47.0024" lon="-0.89157">
        <ele>144</ele>
        <time>2022-06-01T21:57:48Z</time>
      </trkpt>
      <trkpt lat="47.00232" lon="-0.89159">
        <ele>144</ele>
        <time>2022-06-01T21:57:49Z</time>
      </trkpt>
      <trkpt lat="47.00223" lon="-0.89157">
        <ele>144</ele>
        <time>2022-06-01T21:57:51Z</time>
      </trkpt>
      <trkpt lat="47.00216" lon="-0.89152">
        <ele>145</ele>
        <time>2022-06-01T21:57:52Z</time>
      </trkpt>
      <trkpt lat="47.0021" lon="-0.89143">
        <ele>145</ele>
        <time>2022-06-01T21:57:53Z</time>
      </trkpt>
      <trkpt lat="47.00167" lon="-0.89186">
        <ele>146</ele>
        <time>2022-06-01T21:58:03Z</time>
      </trkpt>
      <trkpt lat="47.00169" lon="-0.89194">
        <ele>146</ele>
        <time>2022-06-01T21:58:04Z</time>
      </trkpt>
      <trkpt lat="47.00168" lon="-0.89198">
        <ele>146</ele>
        <time>2022-06-01T21:58:04Z</time>
      </trkpt>
      <trkpt lat="47.00164" lon="-0.89204">
        <ele>146</ele>
        <time>2022-06-01T21:58:05Z</time>
      </trkpt>
      <trkpt lat="47.00176" lon="-0.89239">
        <ele>146</ele>
        <time>2022-06-01T21:58:10Z</time>
      </trkpt>
      <trkpt lat="47.00189" lon="-0.89292">
        <ele>145</ele>
        <time>2022-06-01T21:58:17Z</time>
      </trkpt>
      <trkpt lat="47.00197" lon="-0.89337">
        <ele>145</ele>
        <time>2022-06-01T21:58:23Z</time>
      </trkpt>
      <trkpt lat="47.00208" lon="-0.8942">
        <ele>145</ele>
        <time>2022-06-01T21:58:33Z</time>
      </trkpt>
      <trkpt lat="47.00212" lon="-0.89422">
        <ele>144</ele>
        <time>2022-06-01T21:58:34Z</time>
      </trkpt>
      <trkpt lat="47.00213" lon="-0.89425">
        <ele>144</ele>
        <time>2022-06-01T21:58:34Z</time>
      </trkpt>
      <trkpt lat="47.00211" lon="-0.8943">
        <ele>144</ele>
        <time>2022-06-01T21:58:35Z</time>
      </trkpt>
      <trkpt lat="47.00209" lon="-0.89432">
        <ele>144</ele>
        <time>2022-06-01T21:58:35Z</time>
      </trkpt>
      <trkpt lat="47.00209" lon="-0.89443">
        <ele>144</ele>
        <time>2022-06-01T21:58:36Z</time>
      </trkpt>
      <trkpt lat="47.00211" lon="-0.89458">
        <ele>144</ele>
        <time>2022-06-01T21:58:38Z</time>
      </trkpt>
      <trkpt lat="47.00227" lon="-0.89534">
        <ele>144</ele>
        <time>2022-06-01T21:58:48Z</time>
      </trkpt>
      <trkpt lat="47.00235" lon="-0.89613">
        <ele>143</ele>
        <time>2022-06-01T21:58:58Z</time>
      </trkpt>
      <trkpt lat="47.00256" lon="-0.89705">
        <ele>140</ele>
        <time>2022-06-01T21:59:09Z</time>
      </trkpt>
      <trkpt lat="47.00263" lon="-0.89727">
        <ele>139</ele>
        <time>2022-06-01T21:59:12Z</time>
      </trkpt>
      <trkpt lat="47.0029" lon="-0.89794">
        <ele>136</ele>
        <time>2022-06-01T21:59:22Z</time>
      </trkpt>
      <trkpt lat="47.003" lon="-0.89837">
        <ele>135</ele>
        <time>2022-06-01T21:59:27Z</time>
      </trkpt>
      <trkpt lat="47.00312" lon="-0.89879">
        <ele>135</ele>
        <time>2022-06-01T21:59:33Z</time>
      </trkpt>
      <trkpt lat="47.00425" lon="-0.90149">
        <ele>129</ele>
        <time>2022-06-01T22:00:11Z</time>
      </trkpt>
      <trkpt lat="47.00448" lon="-0.9019">
        <ele>130</ele>
        <time>2022-06-01T22:00:18Z</time>
      </trkpt>
      <trkpt lat="47.00503" lon="-0.90276">
        <ele>129</ele>
        <time>2022-06-01T22:00:32Z</time>
      </trkpt>
      <trkpt lat="47.00529" lon="-0.90315">
        <ele>127</ele>
        <time>2022-06-01T22:00:39Z</time>
      </trkpt>
      <trkpt lat="47.00544" lon="-0.90338">
        <ele>126</ele>
        <time>2022-06-01T22:00:42Z</time>
      </trkpt>
      <trkpt lat="47.00553" lon="-0.90361">
        <ele>126</ele>
        <time>2022-06-01T22:00:46Z</time>
      </trkpt>
      <trkpt lat="47.00559" lon="-0.9038">
        <ele>126</ele>
        <time>2022-06-01T22:00:48Z</time>
      </trkpt>
      <trkpt lat="47.0059" lon="-0.90365">
        <ele>125</ele>
        <time>2022-06-01T22:00:54Z</time>
      </trkpt>
      <trkpt lat="47.00598" lon="-0.90356">
        <ele>125</ele>
        <time>2022-06-01T22:00:56Z</time>
      </trkpt>
      <trkpt lat="47.00605" lon="-0.90345">
        <ele>124</ele>
        <time>2022-06-01T22:00:58Z</time>
      </trkpt>
      <trkpt lat="47.00609" lon="-0.90323">
        <ele>125</ele>
        <time>2022-06-01T22:01:00Z</time>
      </trkpt>
      <trkpt lat="47.00609" lon="-0.90261">
        <ele>126</ele>
        <time>2022-06-01T22:01:08Z</time>
      </trkpt>
      <trkpt lat="47.0061" lon="-0.90246">
        <ele>126</ele>
        <time>2022-06-01T22:01:10Z</time>
      </trkpt>
      <trkpt lat="47.00614" lon="-0.90231">
        <ele>126</ele>
        <time>2022-06-01T22:01:12Z</time>
      </trkpt>
      <trkpt lat="47.00627" lon="-0.90204">
        <ele>125</ele>
        <time>2022-06-01T22:01:16Z</time>
      </trkpt>
      <trkpt lat="47.00691" lon="-0.90096">
        <ele>124</ele>
        <time>2022-06-01T22:01:33Z</time>
      </trkpt>
      <trkpt lat="47.00707" lon="-0.90074">
        <ele>124</ele>
        <time>2022-06-01T22:01:37Z</time>
      </trkpt>
      <trkpt lat="47.00716" lon="-0.90067">
        <ele>124</ele>
        <time>2022-06-01T22:01:39Z</time>
      </trkpt>
      <trkpt lat="47.00726" lon="-0.90062">
        <ele>124</ele>
        <time>2022-06-01T22:01:41Z</time>
      </trkpt>
      <trkpt lat="47.00748" lon="-0.90061">
        <ele>123</ele>
        <time>2022-06-01T22:01:45Z</time>
      </trkpt>
      <trkpt lat="47.00963" lon="-0.90095">
        <ele>119</ele>
        <time>2022-06-01T22:02:23Z</time>
      </trkpt>
      <trkpt lat="47.00996" lon="-0.9009">
        <ele>119</ele>
        <time>2022-06-01T22:02:29Z</time>
      </trkpt>
      <trkpt lat="47.0105" lon="-0.9007">
        <ele>120</ele>
        <time>2022-06-01T22:02:39Z</time>
      </trkpt>
      <trkpt lat="47.01076" lon="-0.90064">
        <ele>121</ele>
        <time>2022-06-01T22:02:44Z</time>
      </trkpt>
      <trkpt lat="47.01158" lon="-0.90056">
        <ele>123</ele>
        <time>2022-06-01T22:02:58Z</time>
      </trkpt>
      <trkpt lat="47.0118" lon="-0.90057">
        <ele>123</ele>
        <time>2022-06-01T22:03:02Z</time>
      </trkpt>
      <trkpt lat="47.01222" lon="-0.90065">
        <ele>124</ele>
        <time>2022-06-01T22:03:10Z</time>
      </trkpt>
      <trkpt lat="47.01291" lon="-0.90085">
        <ele>125</ele>
        <time>2022-06-01T22:03:22Z</time>
      </trkpt>
      <trkpt lat="47.01328" lon="-0.90094">
        <ele>127</ele>
        <time>2022-06-01T22:03:29Z</time>
      </trkpt>
      <trkpt lat="47.01398" lon="-0.90101">
        <ele>126</ele>
        <time>2022-06-01T22:03:41Z</time>
      </trkpt>
      <trkpt lat="47.01427" lon="-0.90102">
        <ele>126</ele>
        <time>2022-06-01T22:03:47Z</time>
      </trkpt>
      <trkpt lat="47.01467" lon="-0.90098">
        <ele>126</ele>
        <time>2022-06-01T22:03:54Z</time>
      </trkpt>
      <trkpt lat="47.01555" lon="-0.90077">
        <ele>126</ele>
        <time>2022-06-01T22:04:09Z</time>
      </trkpt>
      <trkpt lat="47.01645" lon="-0.90051">
        <ele>125</ele>
        <time>2022-06-01T22:04:26Z</time>
      </trkpt>
      <trkpt lat="47.01685" lon="-0.90044">
        <ele>124</ele>
        <time>2022-06-01T22:04:33Z</time>
      </trkpt>
      <trkpt lat="47.01755" lon="-0.90038">
        <ele>125</ele>
        <time>2022-06-01T22:04:45Z</time>
      </trkpt>
      <trkpt lat="47.0187" lon="-0.90036">
        <ele>125</ele>
        <time>2022-06-01T22:05:06Z</time>
      </trkpt>
      <trkpt lat="47.01915" lon="-0.9004">
        <ele>124</ele>
        <time>2022-06-01T22:05:14Z</time>
      </trkpt>
      <trkpt lat="47.02019" lon="-0.90055">
        <ele>122</ele>
        <time>2022-06-01T22:05:33Z</time>
      </trkpt>
      <trkpt lat="47.0205" lon="-0.90062">
        <ele>122</ele>
        <time>2022-06-01T22:05:38Z</time>
      </trkpt>
      <trkpt lat="47.02082" lon="-0.90075">
        <ele>122</ele>
        <time>2022-06-01T22:05:44Z</time>
      </trkpt>
      <trkpt lat="47.02127" lon="-0.90098">
        <ele>121</ele>
        <time>2022-06-01T22:05:53Z</time>
      </trkpt>
      <trkpt lat="47.02264" lon="-0.90161">
        <ele>121</ele>
        <time>2022-06-01T22:06:18Z</time>
      </trkpt>
      <trkpt lat="47.02276" lon="-0.9017">
        <ele>120</ele>
        <time>2022-06-01T22:06:20Z</time>
      </trkpt>
      <trkpt lat="47.02306" lon="-0.902">
        <ele>117</ele>
        <time>2022-06-01T22:06:27Z</time>
      </trkpt>
      <trkpt lat="47.0234" lon="-0.90231">
        <ele>114</ele>
        <time>2022-06-01T22:06:34Z</time>
      </trkpt>
      <trkpt lat="47.02435" lon="-0.90293">
        <ele>112</ele>
        <time>2022-06-01T22:06:53Z</time>
      </trkpt>
      <trkpt lat="47.02519" lon="-0.9036">
        <ele>111</ele>
        <time>2022-06-01T22:07:10Z</time>
      </trkpt>
      <trkpt lat="47.02533" lon="-0.90368">
        <ele>111</ele>
        <time>2022-06-01T22:07:12Z</time>
      </trkpt>
      <trkpt lat="47.026" lon="-0.90394">
        <ele>110</ele>
        <time>2022-06-01T22:07:25Z</time>
      </trkpt>
      <trkpt lat="47.0271" lon="-0.90475">
        <ele>110</ele>
        <time>2022-06-01T22:07:46Z</time>
      </trkpt>
      <trkpt lat="47.02738" lon="-0.90488">
        <ele>109</ele>
        <time>2022-06-01T22:07:52Z</time>
      </trkpt>
      <trkpt lat="47.0281" lon="-0.90513">
        <ele>110</ele>
        <time>2022-06-01T22:08:05Z</time>
      </trkpt>
      <trkpt lat="47.02831" lon="-0.90523">
        <ele>110</ele>
        <time>2022-06-01T22:08:09Z</time>
      </trkpt>
      <trkpt lat="47.02845" lon="-0.90531">
        <ele>110</ele>
        <time>2022-06-01T22:08:11Z</time>
      </trkpt>
      <trkpt lat="47.0286" lon="-0.9055">
        <ele>110</ele>
        <time>2022-06-01T22:08:15Z</time>
      </trkpt>
      <trkpt lat="47.02883" lon="-0.90584">
        <ele>110</ele>
        <time>2022-06-01T22:08:21Z</time>
      </trkpt>
      <trkpt lat="47.02955" lon="-0.90671">
        <ele>112</ele>
        <time>2022-06-01T22:08:37Z</time>
      </trkpt>
      <trkpt lat="47.03068" lon="-0.9083">
        <ele>109</ele>
        <time>2022-06-01T22:09:05Z</time>
      </trkpt>
      <trkpt lat="47.03096" lon="-0.90861">
        <ele>109</ele>
        <time>2022-06-01T22:09:11Z</time>
      </trkpt>
      <trkpt lat="47.03171" lon="-0.90936">
        <ele>109</ele>
        <time>2022-06-01T22:09:28Z</time>
      </trkpt>
      <trkpt lat="47.03177" lon="-0.90944">
        <ele>109</ele>
        <time>2022-06-01T22:09:29Z</time>
      </trkpt>
      <trkpt lat="47.03179" lon="-0.90957">
        <ele>110</ele>
        <time>2022-06-01T22:09:31Z</time>
      </trkpt>
      <trkpt lat="47.03178" lon="-0.90966">
        <ele>110</ele>
        <time>2022-06-01T22:09:32Z</time>
      </trkpt>
      <trkpt lat="47.03174" lon="-0.90972">
        <ele>110</ele>
        <time>2022-06-01T22:09:33Z</time>
      </trkpt>
      <trkpt lat="47.03141" lon="-0.9101">
        <ele>109</ele>
        <time>2022-06-01T22:09:40Z</time>
      </trkpt>
      <trkpt lat="47.03123" lon="-0.91026">
        <ele>109</ele>
        <time>2022-06-01T22:09:44Z</time>
      </trkpt>
      <trkpt lat="47.03101" lon="-0.91036">
        <ele>108</ele>
        <time>2022-06-01T22:09:48Z</time>
      </trkpt>
      <trkpt lat="47.03091" lon="-0.91044">
        <ele>108</ele>
        <time>2022-06-01T22:09:50Z</time>
      </trkpt>
      <trkpt lat="47.03089" lon="-0.91052">
        <ele>108</ele>
        <time>2022-06-01T22:09:51Z</time>
      </trkpt>
      <trkpt lat="47.03093" lon="-0.91066">
        <ele>108</ele>
        <time>2022-06-01T22:09:53Z</time>
      </trkpt>
      <trkpt lat="47.03094" lon="-0.91083">
        <ele>108</ele>
        <time>2022-06-01T22:09:55Z</time>
      </trkpt>
      <trkpt lat="47.03102" lon="-0.91082">
        <ele>108</ele>
        <time>2022-06-01T22:09:57Z</time>
      </trkpt>
      <trkpt lat="47.03111" lon="-0.91085">
        <ele>108</ele>
        <time>2022-06-01T22:09:58Z</time>
      </trkpt>
      <trkpt lat="47.03119" lon="-0.91091">
        <ele>108</ele>
        <time>2022-06-01T22:10:00Z</time>
      </trkpt>
      <trkpt lat="47.03126" lon="-0.91101">
        <ele>108</ele>
        <time>2022-06-01T22:10:01Z</time>
      </trkpt>
      <trkpt lat="47.0313" lon="-0.91114">
        <ele>108</ele>
        <time>2022-06-01T22:10:03Z</time>
      </trkpt>
      <trkpt lat="47.03131" lon="-0.91126">
        <ele>108</ele>
        <time>2022-06-01T22:10:05Z</time>
      </trkpt>
      <trkpt lat="47.0313" lon="-0.91138">
        <ele>108</ele>
        <time>2022-06-01T22:10:06Z</time>
      </trkpt>
      <trkpt lat="47.03125" lon="-0.91153">
        <ele>108</ele>
        <time>2022-06-01T22:10:08Z</time>
      </trkpt>
      <trkpt lat="47.03128" lon="-0.91241">
        <ele>106</ele>
        <time>2022-06-01T22:10:19Z</time>
      </trkpt>
      <trkpt lat="47.03126" lon="-0.91286">
        <ele>104</ele>
        <time>2022-06-01T22:10:24Z</time>
      </trkpt>
      <trkpt lat="47.03114" lon="-0.91441">
        <ele>104</ele>
        <time>2022-06-01T22:10:43Z</time>
      </trkpt>
      <trkpt lat="47.03115" lon="-0.91455">
        <ele>104</ele>
        <time>2022-06-01T22:10:45Z</time>
      </trkpt>
      <trkpt lat="47.03119" lon="-0.91471">
        <ele>104</ele>
        <time>2022-06-01T22:10:47Z</time>
      </trkpt>
      <trkpt lat="47.03124" lon="-0.91481">
        <ele>104</ele>
        <time>2022-06-01T22:10:49Z</time>
      </trkpt>
      <trkpt lat="47.03126" lon="-0.91493">
        <ele>104</ele>
        <time>2022-06-01T22:10:50Z</time>
      </trkpt>
      <trkpt lat="47.03125" lon="-0.91502">
        <ele>104</ele>
        <time>2022-06-01T22:10:51Z</time>
      </trkpt>
      <trkpt lat="47.03121" lon="-0.9151">
        <ele>104</ele>
        <time>2022-06-01T22:10:52Z</time>
      </trkpt>
      <trkpt lat="47.03116" lon="-0.91516">
        <ele>104</ele>
        <time>2022-06-01T22:10:53Z</time>
      </trkpt>
      <trkpt lat="47.03109" lon="-0.91518">
        <ele>104</ele>
        <time>2022-06-01T22:10:55Z</time>
      </trkpt>
      <trkpt lat="47.03145" lon="-0.91949">
        <ele>102</ele>
        <time>2022-06-01T22:11:47Z</time>
      </trkpt>
      <trkpt lat="47.03148" lon="-0.91988">
        <ele>102</ele>
        <time>2022-06-01T22:11:52Z</time>
      </trkpt>
      <trkpt lat="47.03149" lon="-0.92056">
        <ele>102</ele>
        <time>2022-06-01T22:12:00Z</time>
      </trkpt>
      <trkpt lat="47.03156" lon="-0.92084">
        <ele>102</ele>
        <time>2022-06-01T22:12:04Z</time>
      </trkpt>
      <trkpt lat="47.03162" lon="-0.92097">
        <ele>102</ele>
        <time>2022-06-01T22:12:06Z</time>
      </trkpt>
      <trkpt lat="47.03169" lon="-0.92107">
        <ele>102</ele>
        <time>2022-06-01T22:12:08Z</time>
      </trkpt>
      <trkpt lat="47.03184" lon="-0.9212">
        <ele>102</ele>
        <time>2022-06-01T22:12:11Z</time>
      </trkpt>
      <trkpt lat="47.03188" lon="-0.92114">
        <ele>103</ele>
        <time>2022-06-01T22:12:12Z</time>
      </trkpt>
      <trkpt lat="47.03193" lon="-0.92109">
        <ele>103</ele>
        <time>2022-06-01T22:12:13Z</time>
      </trkpt>
      <trkpt lat="47.03199" lon="-0.92107">
        <ele>103</ele>
        <time>2022-06-01T22:12:14Z</time>
      </trkpt>
      <trkpt lat="47.03205" lon="-0.92108">
        <ele>103</ele>
        <time>2022-06-01T22:12:15Z</time>
      </trkpt>
      <trkpt lat="47.03211" lon="-0.92112">
        <ele>103</ele>
        <time>2022-06-01T22:12:16Z</time>
      </trkpt>
      <trkpt lat="47.03215" lon="-0.92119">
        <ele>103</ele>
        <time>2022-06-01T22:12:17Z</time>
      </trkpt>
      <trkpt lat="47.03218" lon="-0.92127">
        <ele>103</ele>
        <time>2022-06-01T22:12:18Z</time>
      </trkpt>
      <trkpt lat="47.03219" lon="-0.92137">
        <ele>103</ele>
        <time>2022-06-01T22:12:20Z</time>
      </trkpt>
      <trkpt lat="47.03218" lon="-0.92146">
        <ele>103</ele>
        <time>2022-06-01T22:12:21Z</time>
      </trkpt>
      <trkpt lat="47.03256" lon="-0.92161">
        <ele>102</ele>
        <time>2022-06-01T22:12:28Z</time>
      </trkpt>
      <trkpt lat="47.03267" lon="-0.92168">
        <ele>102</ele>
        <time>2022-06-01T22:12:30Z</time>
      </trkpt>
      <trkpt lat="47.0329" lon="-0.9219">
        <ele>102</ele>
        <time>2022-06-01T22:12:35Z</time>
      </trkpt>
      <trkpt lat="47.0331" lon="-0.92219">
        <ele>102</ele>
        <time>2022-06-01T22:12:40Z</time>
      </trkpt>
      <trkpt lat="47.03318" lon="-0.92238">
        <ele>102</ele>
        <time>2022-06-01T22:12:43Z</time>
      </trkpt>
      <trkpt lat="47.03329" lon="-0.92272">
        <ele>101</ele>
        <time>2022-06-01T22:12:47Z</time>
      </trkpt>
      <trkpt lat="47.03333" lon="-0.92294">
        <ele>101</ele>
        <time>2022-06-01T22:12:50Z</time>
      </trkpt>
      <trkpt lat="47.03335" lon="-0.92336">
        <ele>100</ele>
        <time>2022-06-01T22:12:55Z</time>
      </trkpt>
      <trkpt lat="47.03334" lon="-0.92361">
        <ele>100</ele>
        <time>2022-06-01T22:12:58Z</time>
      </trkpt>
      <trkpt lat="47.03329" lon="-0.92387">
        <ele>99</ele>
        <time>2022-06-01T22:13:01Z</time>
      </trkpt>
      <trkpt lat="47.03323" lon="-0.92411">
        <ele>99</ele>
        <time>2022-06-01T22:13:04Z</time>
      </trkpt>
      <trkpt lat="47.03314" lon="-0.92433">
        <ele>98</ele>
        <time>2022-06-01T22:13:07Z</time>
      </trkpt>
      <trkpt lat="47.03302" lon="-0.92457">
        <ele>98</ele>
        <time>2022-06-01T22:13:11Z</time>
      </trkpt>
      <trkpt lat="47.03287" lon="-0.92477">
        <ele>98</ele>
        <time>2022-06-01T22:13:15Z</time>
      </trkpt>
      <trkpt lat="47.03202" lon="-0.92565">
        <ele>94</ele>
        <time>2022-06-01T22:13:33Z</time>
      </trkpt>
      <trkpt lat="47.03184" lon="-0.92589">
        <ele>93</ele>
        <time>2022-06-01T22:13:38Z</time>
      </trkpt>
      <trkpt lat="47.03174" lon="-0.92607">
        <ele>92</ele>
        <time>2022-06-01T22:13:40Z</time>
      </trkpt>
      <trkpt lat="47.0316" lon="-0.92645">
        <ele>91</ele>
        <time>2022-06-01T22:13:46Z</time>
      </trkpt>
      <trkpt lat="47.03156" lon="-0.92666">
        <ele>90</ele>
        <time>2022-06-01T22:13:48Z</time>
      </trkpt>
      <trkpt lat="47.03153" lon="-0.92704">
        <ele>90</ele>
        <time>2022-06-01T22:13:53Z</time>
      </trkpt>
      <trkpt lat="47.03153" lon="-0.92722">
        <ele>90</ele>
        <time>2022-06-01T22:13:55Z</time>
      </trkpt>
      <trkpt lat="47.03156" lon="-0.92746">
        <ele>90</ele>
        <time>2022-06-01T22:13:58Z</time>
      </trkpt>
      <trkpt lat="47.03203" lon="-0.92949">
        <ele>89</ele>
        <time>2022-06-01T22:14:24Z</time>
      </trkpt>
      <trkpt lat="47.03261" lon="-0.93194">
        <ele>88</ele>
        <time>2022-06-01T22:14:55Z</time>
      </trkpt>
      <trkpt lat="47.03265" lon="-0.93221">
        <ele>87</ele>
        <time>2022-06-01T22:14:59Z</time>
      </trkpt>
      <trkpt lat="47.03268" lon="-0.93252">
        <ele>87</ele>
        <time>2022-06-01T22:15:03Z</time>
      </trkpt>
      <trkpt lat="47.03268" lon="-0.93284">
        <ele>87</ele>
        <time>2022-06-01T22:15:06Z</time>
      </trkpt>
      <trkpt lat="47.03259" lon="-0.93356">
        <ele>87</ele>
        <time>2022-06-01T22:15:15Z</time>
      </trkpt>
      <trkpt lat="47.03212" lon="-0.9364">
        <ele>85</ele>
        <time>2022-06-01T22:15:51Z</time>
      </trkpt>
      <trkpt lat="47.032" lon="-0.9368">
        <ele>86</ele>
        <time>2022-06-01T22:15:56Z</time>
      </trkpt>
      <trkpt lat="47.03191" lon="-0.93698">
        <ele>87</ele>
        <time>2022-06-01T22:15:59Z</time>
      </trkpt>
      <trkpt lat="47.03194" lon="-0.93706">
        <ele>87</ele>
        <time>2022-06-01T22:16:00Z</time>
      </trkpt>
      <trkpt lat="47.03193" lon="-0.93715">
        <ele>87</ele>
        <time>2022-06-01T22:16:01Z</time>
      </trkpt>
      <trkpt lat="47.03189" lon="-0.93722">
        <ele>88</ele>
        <time>2022-06-01T22:16:02Z</time>
      </trkpt>
      <trkpt lat="47.03186" lon="-0.93724">
        <ele>88</ele>
        <time>2022-06-01T22:16:03Z</time>
      </trkpt>
      <trkpt lat="47.03179" lon="-0.93722">
        <ele>88</ele>
        <time>2022-06-01T22:16:04Z</time>
      </trkpt>
      <trkpt lat="47.03167" lon="-0.93752">
        <ele>89</ele>
        <time>2022-06-01T22:16:08Z</time>
      </trkpt>
      <trkpt lat="47.03131" lon="-0.93814">
        <ele>91</ele>
        <time>2022-06-01T22:16:18Z</time>
      </trkpt>
      <trkpt lat="47.03045" lon="-0.9394">
        <ele>92</ele>
        <time>2022-06-01T22:16:40Z</time>
      </trkpt>
      <trkpt lat="47.03025" lon="-0.93972">
        <ele>91</ele>
        <time>2022-06-01T22:16:45Z</time>
      </trkpt>
      <trkpt lat="47.03005" lon="-0.94044">
        <ele>90</ele>
        <time>2022-06-01T22:16:54Z</time>
      </trkpt>
      <trkpt lat="47.02918" lon="-0.9424">
        <ele>89</ele>
        <time>2022-06-01T22:17:23Z</time>
      </trkpt>
      <trkpt lat="47.02921" lon="-0.94245">
        <ele>89</ele>
        <time>2022-06-01T22:17:24Z</time>
      </trkpt>
      <trkpt lat="47.02921" lon="-0.94253">
        <ele>89</ele>
        <time>2022-06-01T22:17:25Z</time>
      </trkpt>
      <trkpt lat="47.02918" lon="-0.94257">
        <ele>89</ele>
        <time>2022-06-01T22:17:25Z</time>
      </trkpt>
      <trkpt lat="47.02912" lon="-0.94256">
        <ele>89</ele>
        <time>2022-06-01T22:17:26Z</time>
      </trkpt>
      <trkpt lat="47.02833" lon="-0.94436">
        <ele>91</ele>
        <time>2022-06-01T22:17:52Z</time>
      </trkpt>
      <trkpt lat="47.02828" lon="-0.94442">
        <ele>92</ele>
        <time>2022-06-01T22:17:53Z</time>
      </trkpt>
      <trkpt lat="47.02811" lon="-0.9448">
        <ele>94</ele>
        <time>2022-06-01T22:17:59Z</time>
      </trkpt>
      <trkpt lat="47.0281" lon="-0.94495">
        <ele>95</ele>
        <time>2022-06-01T22:18:01Z</time>
      </trkpt>
      <trkpt lat="47.02805" lon="-0.94512">
        <ele>95</ele>
        <time>2022-06-01T22:18:03Z</time>
      </trkpt>
      <trkpt lat="47.02798" lon="-0.9452">
        <ele>96</ele>
        <time>2022-06-01T22:18:05Z</time>
      </trkpt>
      <trkpt lat="47.02793" lon="-0.9453">
        <ele>96</ele>
        <time>2022-06-01T22:18:06Z</time>
      </trkpt>
      <trkpt lat="47.02772" lon="-0.94584">
        <ele>98</ele>
        <time>2022-06-01T22:18:14Z</time>
      </trkpt>
      <trkpt lat="47.02752" lon="-0.94615">
        <ele>99</ele>
        <time>2022-06-01T22:18:19Z</time>
      </trkpt>
      <trkpt lat="47.02663" lon="-0.94705">
        <ele>99</ele>
        <time>2022-06-01T22:18:38Z</time>
      </trkpt>
      <trkpt lat="47.02733" lon="-0.9488">
        <ele>96</ele>
        <time>2022-06-01T22:19:03Z</time>
      </trkpt>
      <trkpt lat="47.02757" lon="-0.94932">
        <ele>97</ele>
        <time>2022-06-01T22:19:10Z</time>
      </trkpt>
      <trkpt lat="47.02815" lon="-0.95027">
        <ele>98</ele>
        <time>2022-06-01T22:19:26Z</time>
      </trkpt>
      <trkpt lat="47.02834" lon="-0.95068">
        <ele>98</ele>
        <time>2022-06-01T22:19:32Z</time>
      </trkpt>
      <trkpt lat="47.02924" lon="-0.95292">
        <ele>98</ele>
        <time>2022-06-01T22:20:03Z</time>
      </trkpt>
      <trkpt lat="47.02961" lon="-0.95381">
        <ele>99</ele>
        <time>2022-06-01T22:20:16Z</time>
      </trkpt>
      <trkpt lat="47.03046" lon="-0.95607">
        <ele>101</ele>
        <time>2022-06-01T22:20:47Z</time>
      </trkpt>
      <trkpt lat="47.03063" lon="-0.95641">
        <ele>101</ele>
        <time>2022-06-01T22:20:52Z</time>
      </trkpt>
      <trkpt lat="47.03103" lon="-0.95697">
        <ele>101</ele>
        <time>2022-06-01T22:21:02Z</time>
      </trkpt>
      <trkpt lat="47.03124" lon="-0.9572">
        <ele>101</ele>
        <time>2022-06-01T22:21:07Z</time>
      </trkpt>
      <trkpt lat="47.03146" lon="-0.95737">
        <ele>101</ele>
        <time>2022-06-01T22:21:11Z</time>
      </trkpt>
      <trkpt lat="47.03197" lon="-0.95763">
        <ele>101</ele>
        <time>2022-06-01T22:21:21Z</time>
      </trkpt>
      <trkpt lat="47.03219" lon="-0.95778">
        <ele>100</ele>
        <time>2022-06-01T22:21:25Z</time>
      </trkpt>
      <trkpt lat="47.03241" lon="-0.95799">
        <ele>100</ele>
        <time>2022-06-01T22:21:30Z</time>
      </trkpt>
      <trkpt lat="47.0341" lon="-0.96031">
        <ele>96</ele>
        <time>2022-06-01T22:22:11Z</time>
      </trkpt>
      <trkpt lat="47.03452" lon="-0.96105">
        <ele>96</ele>
        <time>2022-06-01T22:22:23Z</time>
      </trkpt>
      <trkpt lat="47.03588" lon="-0.96414">
        <ele>96</ele>
        <time>2022-06-01T22:23:07Z</time>
      </trkpt>
      <trkpt lat="47.03606" lon="-0.9646">
        <ele>95</ele>
        <time>2022-06-01T22:23:14Z</time>
      </trkpt>
      <trkpt lat="47.03624" lon="-0.96512">
        <ele>94</ele>
        <time>2022-06-01T22:23:21Z</time>
      </trkpt>
      <trkpt lat="47.03645" lon="-0.96547">
        <ele>94</ele>
        <time>2022-06-01T22:23:27Z</time>
      </trkpt>
      <trkpt lat="47.03773" lon="-0.96742">
        <ele>90</ele>
        <time>2022-06-01T22:23:59Z</time>
      </trkpt>
      <trkpt lat="47.03848" lon="-0.96832">
        <ele>87</ele>
        <time>2022-06-01T22:24:17Z</time>
      </trkpt>
      <trkpt lat="47.0386" lon="-0.96856">
        <ele>86</ele>
        <time>2022-06-01T22:24:20Z</time>
      </trkpt>
      <trkpt lat="47.03874" lon="-0.96911">
        <ele>85</ele>
        <time>2022-06-01T22:24:27Z</time>
      </trkpt>
      <trkpt lat="47.03883" lon="-0.96931">
        <ele>85</ele>
        <time>2022-06-01T22:24:30Z</time>
      </trkpt>
      <trkpt lat="47.03929" lon="-0.97005">
        <ele>82</ele>
        <time>2022-06-01T22:24:42Z</time>
      </trkpt>
      <trkpt lat="47.03963" lon="-0.97082">
        <ele>79</ele>
        <time>2022-06-01T22:24:53Z</time>
      </trkpt>
      <trkpt lat="47.04013" lon="-0.97169">
        <ele>79</ele>
        <time>2022-06-01T22:25:07Z</time>
      </trkpt>
      <trkpt lat="47.04043" lon="-0.97231">
        <ele>79</ele>
        <time>2022-06-01T22:25:17Z</time>
      </trkpt>
      <trkpt lat="47.04096" lon="-0.97348">
        <ele>81</ele>
        <time>2022-06-01T22:25:34Z</time>
      </trkpt>
      <trkpt lat="47.04137" lon="-0.97421">
        <ele>81</ele>
        <time>2022-06-01T22:25:45Z</time>
      </trkpt>
      <trkpt lat="47.04219" lon="-0.97533">
        <ele>77</ele>
        <time>2022-06-01T22:26:05Z</time>
      </trkpt>
      <trkpt lat="47.04238" lon="-0.97564">
        <ele>78</ele>
        <time>2022-06-01T22:26:10Z</time>
      </trkpt>
      <trkpt lat="47.04241" lon="-0.97575">
        <ele>78</ele>
        <time>2022-06-01T22:26:11Z</time>
      </trkpt>
      <trkpt lat="47.04243" lon="-0.97599">
        <ele>78</ele>
        <time>2022-06-01T22:26:14Z</time>
      </trkpt>
      <trkpt lat="47.04235" lon="-0.97686">
        <ele>79</ele>
        <time>2022-06-01T22:26:25Z</time>
      </trkpt>
      <trkpt lat="47.04236" lon="-0.9771">
        <ele>80</ele>
        <time>2022-06-01T22:26:28Z</time>
      </trkpt>
      <trkpt lat="47.04245" lon="-0.97766">
        <ele>81</ele>
        <time>2022-06-01T22:26:35Z</time>
      </trkpt>
      <trkpt lat="47.0427" lon="-0.97862">
        <ele>82</ele>
        <time>2022-06-01T22:26:47Z</time>
      </trkpt>
      <trkpt lat="47.04284" lon="-0.97903">
        <ele>82</ele>
        <time>2022-06-01T22:26:53Z</time>
      </trkpt>
      <trkpt lat="47.04351" lon="-0.98042">
        <ele>84</ele>
        <time>2022-06-01T22:27:14Z</time>
      </trkpt>
      <trkpt lat="47.04367" lon="-0.98082">
        <ele>84</ele>
        <time>2022-06-01T22:27:19Z</time>
      </trkpt>
      <trkpt lat="47.04427" lon="-0.98255">
        <ele>85</ele>
        <time>2022-06-01T22:27:43Z</time>
      </trkpt>
      <trkpt lat="47.0446" lon="-0.98338">
        <ele>85</ele>
        <time>2022-06-01T22:27:54Z</time>
      </trkpt>
      <trkpt lat="47.04521" lon="-0.98476">
        <ele>88</ele>
        <time>2022-06-01T22:28:14Z</time>
      </trkpt>
      <trkpt lat="47.04528" lon="-0.98498">
        <ele>88</ele>
        <time>2022-06-01T22:28:17Z</time>
      </trkpt>
      <trkpt lat="47.04531" lon="-0.98517">
        <ele>88</ele>
        <time>2022-06-01T22:28:20Z</time>
      </trkpt>
      <trkpt lat="47.04532" lon="-0.98534">
        <ele>88</ele>
        <time>2022-06-01T22:28:22Z</time>
      </trkpt>
      <trkpt lat="47.04525" lon="-0.9861">
        <ele>88</ele>
        <time>2022-06-01T22:28:31Z</time>
      </trkpt>
      <trkpt lat="47.04528" lon="-0.98652">
        <ele>88</ele>
        <time>2022-06-01T22:28:36Z</time>
      </trkpt>
      <trkpt lat="47.04555" lon="-0.9882">
        <ele>90</ele>
        <time>2022-06-01T22:28:57Z</time>
      </trkpt>
      <trkpt lat="47.04582" lon="-0.98933">
        <ele>91</ele>
        <time>2022-06-01T22:29:12Z</time>
      </trkpt>
      <trkpt lat="47.04601" lon="-0.99089">
        <ele>93</ele>
        <time>2022-06-01T22:29:31Z</time>
      </trkpt>
      <trkpt lat="47.04613" lon="-0.99137">
        <ele>94</ele>
        <time>2022-06-01T22:29:37Z</time>
      </trkpt>
      <trkpt lat="47.04628" lon="-0.99184">
        <ele>94</ele>
        <time>2022-06-01T22:29:43Z</time>
      </trkpt>
      <trkpt lat="47.04641" lon="-0.99216">
        <ele>94</ele>
        <time>2022-06-01T22:29:48Z</time>
      </trkpt>
      <trkpt lat="47.04798" lon="-0.99518">
        <ele>94</ele>
        <time>2022-06-01T22:30:34Z</time>
      </trkpt>
      <trkpt lat="47.0482" lon="-0.99553">
        <ele>95</ele>
        <time>2022-06-01T22:30:40Z</time>
      </trkpt>
      <trkpt lat="47.0484" lon="-0.99581">
        <ele>96</ele>
        <time>2022-06-01T22:30:45Z</time>
      </trkpt>
      <trkpt lat="47.0492" lon="-0.9968">
        <ele>95</ele>
        <time>2022-06-01T22:31:03Z</time>
      </trkpt>
      <trkpt lat="47.0493" lon="-0.997">
        <ele>95</ele>
        <time>2022-06-01T22:31:06Z</time>
      </trkpt>
      <trkpt lat="47.0494" lon="-0.99725">
        <ele>95</ele>
        <time>2022-06-01T22:31:10Z</time>
      </trkpt>
      <trkpt lat="47.05064" lon="-1.00212">
        <ele>104</ele>
        <time>2022-06-01T22:32:13Z</time>
      </trkpt>
      <trkpt lat="47.05107" lon="-1.00406">
        <ele>106</ele>
        <time>2022-06-01T22:32:37Z</time>
      </trkpt>
      <trkpt lat="47.05121" lon="-1.00456">
        <ele>106</ele>
        <time>2022-06-01T22:32:44Z</time>
      </trkpt>
      <trkpt lat="47.05141" lon="-1.00505">
        <ele>106</ele>
        <time>2022-06-01T22:32:51Z</time>
      </trkpt>
      <trkpt lat="47.05271" lon="-1.00787">
        <ele>104</ele>
        <time>2022-06-01T22:33:32Z</time>
      </trkpt>
      <trkpt lat="47.05286" lon="-1.00812">
        <ele>104</ele>
        <time>2022-06-01T22:33:36Z</time>
      </trkpt>
      <trkpt lat="47.05298" lon="-1.0083">
        <ele>104</ele>
        <time>2022-06-01T22:33:39Z</time>
      </trkpt>
      <trkpt lat="47.05311" lon="-1.00843">
        <ele>104</ele>
        <time>2022-06-01T22:33:42Z</time>
      </trkpt>
      <trkpt lat="47.0537" lon="-1.00889">
        <ele>103</ele>
        <time>2022-06-01T22:33:54Z</time>
      </trkpt>
      <trkpt lat="47.0538" lon="-1.009">
        <ele>103</ele>
        <time>2022-06-01T22:33:56Z</time>
      </trkpt>
      <trkpt lat="47.05495" lon="-1.01072">
        <ele>98</ele>
        <time>2022-06-01T22:34:25Z</time>
      </trkpt>
      <trkpt lat="47.05507" lon="-1.01099">
        <ele>97</ele>
        <time>2022-06-01T22:34:29Z</time>
      </trkpt>
      <trkpt lat="47.05515" lon="-1.0114">
        <ele>97</ele>
        <time>2022-06-01T22:34:34Z</time>
      </trkpt>
      <trkpt lat="47.05523" lon="-1.01203">
        <ele>99</ele>
        <time>2022-06-01T22:34:42Z</time>
      </trkpt>
      <trkpt lat="47.05531" lon="-1.01235">
        <ele>100</ele>
        <time>2022-06-01T22:34:46Z</time>
      </trkpt>
      <trkpt lat="47.05554" lon="-1.01291">
        <ele>101</ele>
        <time>2022-06-01T22:34:54Z</time>
      </trkpt>
      <trkpt lat="47.0558" lon="-1.0134">
        <ele>102</ele>
        <time>2022-06-01T22:35:02Z</time>
      </trkpt>
      <trkpt lat="47.05599" lon="-1.01372">
        <ele>101</ele>
        <time>2022-06-01T22:35:07Z</time>
      </trkpt>
      <trkpt lat="47.0561" lon="-1.01388">
        <ele>100</ele>
        <time>2022-06-01T22:35:10Z</time>
      </trkpt>
      <trkpt lat="47.05656" lon="-1.01441">
        <ele>98</ele>
        <time>2022-06-01T22:35:20Z</time>
      </trkpt>
      <trkpt lat="47.05661" lon="-1.01436">
        <ele>98</ele>
        <time>2022-06-01T22:35:21Z</time>
      </trkpt>
      <trkpt lat="47.05667" lon="-1.01437">
        <ele>97</ele>
        <time>2022-06-01T22:35:22Z</time>
      </trkpt>
      <trkpt lat="47.0567" lon="-1.01446">
        <ele>98</ele>
        <time>2022-06-01T22:35:24Z</time>
      </trkpt>
      <trkpt lat="47.05669" lon="-1.01454">
        <ele>98</ele>
        <time>2022-06-01T22:35:24Z</time>
      </trkpt>
      <trkpt lat="47.05689" lon="-1.01474">
        <ele>98</ele>
        <time>2022-06-01T22:35:29Z</time>
      </trkpt>
      <trkpt lat="47.05717" lon="-1.01497">
        <ele>98</ele>
        <time>2022-06-01T22:35:35Z</time>
      </trkpt>
      <trkpt lat="47.0573" lon="-1.01511">
        <ele>98</ele>
        <time>2022-06-01T22:35:37Z</time>
      </trkpt>
      <trkpt lat="47.05769" lon="-1.0156">
        <ele>99</ele>
        <time>2022-06-01T22:35:47Z</time>
      </trkpt>
      <trkpt lat="47.058" lon="-1.01602">
        <ele>100</ele>
        <time>2022-06-01T22:35:54Z</time>
      </trkpt>
      <trkpt lat="47.05822" lon="-1.01624">
        <ele>101</ele>
        <time>2022-06-01T22:35:59Z</time>
      </trkpt>
      <trkpt lat="47.05852" lon="-1.01649">
        <ele>100</ele>
        <time>2022-06-01T22:36:05Z</time>
      </trkpt>
      <trkpt lat="47.05879" lon="-1.0168">
        <ele>99</ele>
        <time>2022-06-01T22:36:11Z</time>
      </trkpt>
      <trkpt lat="47.05938" lon="-1.01773">
        <ele>95</ele>
        <time>2022-06-01T22:36:26Z</time>
      </trkpt>
      <trkpt lat="47.05982" lon="-1.01835">
        <ele>94</ele>
        <time>2022-06-01T22:36:37Z</time>
      </trkpt>
      <trkpt lat="47.05999" lon="-1.01854">
        <ele>93</ele>
        <time>2022-06-01T22:36:41Z</time>
      </trkpt>
      <trkpt lat="47.06017" lon="-1.01869">
        <ele>94</ele>
        <time>2022-06-01T22:36:45Z</time>
      </trkpt>
      <trkpt lat="47.06025" lon="-1.01869">
        <ele>94</ele>
        <time>2022-06-01T22:36:46Z</time>
      </trkpt>
      <trkpt lat="47.06028" lon="-1.01894">
        <ele>94</ele>
        <time>2022-06-01T22:36:49Z</time>
      </trkpt>
      <trkpt lat="47.06034" lon="-1.01894">
        <ele>94</ele>
        <time>2022-06-01T22:36:50Z</time>
      </trkpt>
      <trkpt lat="47.06049" lon="-1.01903">
        <ele>94</ele>
        <time>2022-06-01T22:36:53Z</time>
      </trkpt>
      <trkpt lat="47.06188" lon="-1.02054">
        <ele>101</ele>
        <time>2022-06-01T22:37:24Z</time>
      </trkpt>
      <trkpt lat="47.06201" lon="-1.0206">
        <ele>100</ele>
        <time>2022-06-01T22:37:26Z</time>
      </trkpt>
      <trkpt lat="47.06217" lon="-1.02061">
        <ele>99</ele>
        <time>2022-06-01T22:37:29Z</time>
      </trkpt>
      <trkpt lat="47.06219" lon="-1.02099">
        <ele>100</ele>
        <time>2022-06-01T22:37:34Z</time>
      </trkpt>
      <trkpt lat="47.06218" lon="-1.0211">
        <ele>101</ele>
        <time>2022-06-01T22:37:35Z</time>
      </trkpt>
      <trkpt lat="47.0623" lon="-1.02126">
        <ele>100</ele>
        <time>2022-06-01T22:37:38Z</time>
      </trkpt>
      <trkpt lat="47.06245" lon="-1.02142">
        <ele>100</ele>
        <time>2022-06-01T22:37:41Z</time>
      </trkpt>
      <trkpt lat="47.06305" lon="-1.02147">
        <ele>97</ele>
        <time>2022-06-01T22:37:52Z</time>
      </trkpt>
      <trkpt lat="47.06334" lon="-1.02158">
        <ele>96</ele>
        <time>2022-06-01T22:37:57Z</time>
      </trkpt>
      <trkpt lat="47.06518" lon="-1.02296">
        <ele>95</ele>
        <time>2022-06-01T22:38:34Z</time>
      </trkpt>
      <trkpt lat="47.06637" lon="-1.02405">
        <ele>96</ele>
        <time>2022-06-01T22:38:59Z</time>
      </trkpt>
      <trkpt lat="47.06644" lon="-1.02427">
        <ele>96</ele>
        <time>2022-06-01T22:39:02Z</time>
      </trkpt>
      <trkpt lat="47.06664" lon="-1.02481">
        <ele>96</ele>
        <time>2022-06-01T22:39:10Z</time>
      </trkpt>
      <trkpt lat="47.06694" lon="-1.02574">
        <ele>93</ele>
        <time>2022-06-01T22:39:22Z</time>
      </trkpt>
      <trkpt lat="47.06729" lon="-1.02686">
        <ele>90</ele>
        <time>2022-06-01T22:39:37Z</time>
      </trkpt>
      <trkpt lat="47.06737" lon="-1.0272">
        <ele>90</ele>
        <time>2022-06-01T22:39:41Z</time>
      </trkpt>
      <trkpt lat="47.06769" lon="-1.02855">
        <ele>86</ele>
        <time>2022-06-01T22:39:59Z</time>
      </trkpt>
      <trkpt lat="47.06815" lon="-1.03029">
        <ele>82</ele>
        <time>2022-06-01T22:40:21Z</time>
      </trkpt>
      <trkpt lat="47.06819" lon="-1.03052">
        <ele>82</ele>
        <time>2022-06-01T22:40:24Z</time>
      </trkpt>
      <trkpt lat="47.06829" lon="-1.03138">
        <ele>81</ele>
        <time>2022-06-01T22:40:35Z</time>
      </trkpt>
      <trkpt lat="47.0687" lon="-1.03299">
        <ele>81</ele>
        <time>2022-06-01T22:40:56Z</time>
      </trkpt>
      <trkpt lat="47.06882" lon="-1.03332">
        <ele>81</ele>
        <time>2022-06-01T22:41:00Z</time>
      </trkpt>
      <trkpt lat="47.06911" lon="-1.03373">
        <ele>78</ele>
        <time>2022-06-01T22:41:07Z</time>
      </trkpt>
      <trkpt lat="47.06931" lon="-1.03388">
        <ele>77</ele>
        <time>2022-06-01T22:41:11Z</time>
      </trkpt>
      <trkpt lat="47.0696" lon="-1.03396">
        <ele>76</ele>
        <time>2022-06-01T22:41:16Z</time>
      </trkpt>
      <trkpt lat="47.06998" lon="-1.03403">
        <ele>75</ele>
        <time>2022-06-01T22:41:23Z</time>
      </trkpt>
      <trkpt lat="47.07029" lon="-1.03425">
        <ele>76</ele>
        <time>2022-06-01T22:41:29Z</time>
      </trkpt>
      <trkpt lat="47.07051" lon="-1.03449">
        <ele>77</ele>
        <time>2022-06-01T22:41:34Z</time>
      </trkpt>
      <trkpt lat="47.07088" lon="-1.03508">
        <ele>77</ele>
        <time>2022-06-01T22:41:44Z</time>
      </trkpt>
      <trkpt lat="47.07137" lon="-1.0363">
        <ele>81</ele>
        <time>2022-06-01T22:42:01Z</time>
      </trkpt>
      <trkpt lat="47.0715" lon="-1.03655">
        <ele>82</ele>
        <time>2022-06-01T22:42:05Z</time>
      </trkpt>
      <trkpt lat="47.07178" lon="-1.03694">
        <ele>83</ele>
        <time>2022-06-01T22:42:12Z</time>
      </trkpt>
      <trkpt lat="47.07185" lon="-1.03708">
        <ele>83</ele>
        <time>2022-06-01T22:42:14Z</time>
      </trkpt>
      <trkpt lat="47.07251" lon="-1.03818">
        <ele>83</ele>
        <time>2022-06-01T22:42:32Z</time>
      </trkpt>
      <trkpt lat="47.07321" lon="-1.03942">
        <ele>84</ele>
        <time>2022-06-01T22:42:51Z</time>
      </trkpt>
      <trkpt lat="47.07364" lon="-1.04001">
        <ele>85</ele>
        <time>2022-06-01T22:43:02Z</time>
      </trkpt>
      <trkpt lat="47.07546" lon="-1.04186">
        <ele>87</ele>
        <time>2022-06-01T22:43:41Z</time>
      </trkpt>
      <trkpt lat="47.07628" lon="-1.04265">
        <ele>87</ele>
        <time>2022-06-01T22:43:59Z</time>
      </trkpt>
      <trkpt lat="47.07638" lon="-1.04282">
        <ele>87</ele>
        <time>2022-06-01T22:44:01Z</time>
      </trkpt>
      <trkpt lat="47.07645" lon="-1.04301">
        <ele>87</ele>
        <time>2022-06-01T22:44:04Z</time>
      </trkpt>
      <trkpt lat="47.07656" lon="-1.04346">
        <ele>88</ele>
        <time>2022-06-01T22:44:10Z</time>
      </trkpt>
      <trkpt lat="47.07675" lon="-1.04393">
        <ele>89</ele>
        <time>2022-06-01T22:44:16Z</time>
      </trkpt>
      <trkpt lat="47.07772" lon="-1.04587">
        <ele>87</ele>
        <time>2022-06-01T22:44:45Z</time>
      </trkpt>
      <trkpt lat="47.07829" lon="-1.0465">
        <ele>85</ele>
        <time>2022-06-01T22:44:58Z</time>
      </trkpt>
      <trkpt lat="47.07867" lon="-1.04697">
        <ele>83</ele>
        <time>2022-06-01T22:45:07Z</time>
      </trkpt>
      <trkpt lat="47.07945" lon="-1.04777">
        <ele>79</ele>
        <time>2022-06-01T22:45:24Z</time>
      </trkpt>
      <trkpt lat="47.07953" lon="-1.04792">
        <ele>78</ele>
        <time>2022-06-01T22:45:26Z</time>
      </trkpt>
      <trkpt lat="47.07961" lon="-1.04815">
        <ele>78</ele>
        <time>2022-06-01T22:45:29Z</time>
      </trkpt>
      <trkpt lat="47.07982" lon="-1.04863">
        <ele>77</ele>
        <time>2022-06-01T22:45:36Z</time>
      </trkpt>
      <trkpt lat="47.08041" lon="-1.04971">
        <ele>77</ele>
        <time>2022-06-01T22:45:53Z</time>
      </trkpt>
      <trkpt lat="47.08066" lon="-1.05054">
        <ele>76</ele>
        <time>2022-06-01T22:46:04Z</time>
      </trkpt>
      <trkpt lat="47.0808" lon="-1.05073">
        <ele>76</ele>
        <time>2022-06-01T22:46:07Z</time>
      </trkpt>
      <trkpt lat="47.08097" lon="-1.05083">
        <ele>76</ele>
        <time>2022-06-01T22:46:11Z</time>
      </trkpt>
      <trkpt lat="47.08114" lon="-1.05085">
        <ele>76</ele>
        <time>2022-06-01T22:46:14Z</time>
      </trkpt>
      <trkpt lat="47.08142" lon="-1.05081">
        <ele>77</ele>
        <time>2022-06-01T22:46:19Z</time>
      </trkpt>
      <trkpt lat="47.08163" lon="-1.05087">
        <ele>77</ele>
        <time>2022-06-01T22:46:23Z</time>
      </trkpt>
      <trkpt lat="47.08213" lon="-1.05124">
        <ele>78</ele>
        <time>2022-06-01T22:46:32Z</time>
      </trkpt>
      <trkpt lat="47.08245" lon="-1.05164">
        <ele>79</ele>
        <time>2022-06-01T22:46:40Z</time>
      </trkpt>
      <trkpt lat="47.08299" lon="-1.05241">
        <ele>80</ele>
        <time>2022-06-01T22:46:53Z</time>
      </trkpt>
      <trkpt lat="47.08398" lon="-1.05389">
        <ele>76</ele>
        <time>2022-06-01T22:47:18Z</time>
      </trkpt>
      <trkpt lat="47.08443" lon="-1.05448">
        <ele>74</ele>
        <time>2022-06-01T22:47:29Z</time>
      </trkpt>
      <trkpt lat="47.08461" lon="-1.05465">
        <ele>73</ele>
        <time>2022-06-01T22:47:33Z</time>
      </trkpt>
      <trkpt lat="47.08485" lon="-1.05479">
        <ele>73</ele>
        <time>2022-06-01T22:47:38Z</time>
      </trkpt>
      <trkpt lat="47.08525" lon="-1.05495">
        <ele>73</ele>
        <time>2022-06-01T22:47:45Z</time>
      </trkpt>
      <trkpt lat="47.08562" lon="-1.05524">
        <ele>74</ele>
        <time>2022-06-01T22:47:52Z</time>
      </trkpt>
      <trkpt lat="47.08576" lon="-1.05542">
        <ele>74</ele>
        <time>2022-06-01T22:47:56Z</time>
      </trkpt>
      <trkpt lat="47.08586" lon="-1.05562">
        <ele>75</ele>
        <time>2022-06-01T22:47:59Z</time>
      </trkpt>
      <trkpt lat="47.08631" lon="-1.05674">
        <ele>79</ele>
        <time>2022-06-01T22:48:15Z</time>
      </trkpt>
      <trkpt lat="47.08719" lon="-1.05866">
        <ele>75</ele>
        <time>2022-06-01T22:48:43Z</time>
      </trkpt>
      <trkpt lat="47.08752" lon="-1.05916">
        <ele>74</ele>
        <time>2022-06-01T22:48:51Z</time>
      </trkpt>
      <trkpt lat="47.08776" lon="-1.05963">
        <ele>76</ele>
        <time>2022-06-01T22:48:58Z</time>
      </trkpt>
      <trkpt lat="47.08821" lon="-1.06069">
        <ele>80</ele>
        <time>2022-06-01T22:49:13Z</time>
      </trkpt>
      <trkpt lat="47.08861" lon="-1.06148">
        <ele>83</ele>
        <time>2022-06-01T22:49:25Z</time>
      </trkpt>
      <trkpt lat="47.08895" lon="-1.06114">
        <ele>83</ele>
        <time>2022-06-01T22:49:33Z</time>
      </trkpt>
      <trkpt lat="47.08928" lon="-1.0609">
        <ele>83</ele>
        <time>2022-06-01T22:49:39Z</time>
      </trkpt>
      <trkpt lat="47.091" lon="-1.0599">
        <ele>77</ele>
        <time>2022-06-01T22:50:12Z</time>
      </trkpt>
      <trkpt lat="47.09119" lon="-1.05976">
        <ele>76</ele>
        <time>2022-06-01T22:50:16Z</time>
      </trkpt>
      <trkpt lat="47.09177" lon="-1.05918">
        <ele>75</ele>
        <time>2022-06-01T22:50:28Z</time>
      </trkpt>
      <trkpt lat="47.09189" lon="-1.05904">
        <ele>74</ele>
        <time>2022-06-01T22:50:31Z</time>
      </trkpt>
      <trkpt lat="47.09215" lon="-1.05866">
        <ele>72</ele>
        <time>2022-06-01T22:50:37Z</time>
      </trkpt>
      <trkpt lat="47.09222" lon="-1.0586">
        <ele>71</ele>
        <time>2022-06-01T22:50:39Z</time>
      </trkpt>
      <trkpt lat="47.09229" lon="-1.05861">
        <ele>71</ele>
        <time>2022-06-01T22:50:40Z</time>
      </trkpt>
      <trkpt lat="47.09274" lon="-1.0588">
        <ele>69</ele>
        <time>2022-06-01T22:50:49Z</time>
      </trkpt>
      <trkpt lat="47.09277" lon="-1.05883">
        <ele>69</ele>
        <time>2022-06-01T22:50:49Z</time>
      </trkpt>
      <trkpt lat="47.09301" lon="-1.05857">
        <ele>67</ele>
        <time>2022-06-01T22:50:54Z</time>
      </trkpt>
      <trkpt lat="47.09338" lon="-1.05823">
        <ele>63</ele>
        <time>2022-06-01T22:51:02Z</time>
      </trkpt>
      <trkpt lat="47.09363" lon="-1.05804">
        <ele>62</ele>
        <time>2022-06-01T22:51:07Z</time>
      </trkpt>
      <trkpt lat="47.09532" lon="-1.05713">
        <ele>48</ele>
        <time>2022-06-01T22:51:39Z</time>
      </trkpt>
      <trkpt lat="47.0955" lon="-1.05708">
        <ele>46</ele>
        <time>2022-06-01T22:51:43Z</time>
      </trkpt>
      <trkpt lat="47.09571" lon="-1.05708">
        <ele>43</ele>
        <time>2022-06-01T22:51:46Z</time>
      </trkpt>
      <trkpt lat="47.09594" lon="-1.05711">
        <ele>42</ele>
        <time>2022-06-01T22:51:50Z</time>
      </trkpt>
      <trkpt lat="47.09638" lon="-1.05718">
        <ele>45</ele>
        <time>2022-06-01T22:51:58Z</time>
      </trkpt>
      <trkpt lat="47.09647" lon="-1.05722">
        <ele>45</ele>
        <time>2022-06-01T22:52:00Z</time>
      </trkpt>
      <trkpt lat="47.09655" lon="-1.05729">
        <ele>46</ele>
        <time>2022-06-01T22:52:02Z</time>
      </trkpt>
      <trkpt lat="47.09665" lon="-1.05742">
        <ele>46</ele>
        <time>2022-06-01T22:52:04Z</time>
      </trkpt>
      <trkpt lat="47.09724" lon="-1.0585">
        <ele>49</ele>
        <time>2022-06-01T22:52:21Z</time>
      </trkpt>
      <trkpt lat="47.09739" lon="-1.05874">
        <ele>49</ele>
        <time>2022-06-01T22:52:25Z</time>
      </trkpt>
      <trkpt lat="47.09795" lon="-1.05956">
        <ele>50</ele>
        <time>2022-06-01T22:52:39Z</time>
      </trkpt>
      <trkpt lat="47.09871" lon="-1.06053">
        <ele>48</ele>
        <time>2022-06-01T22:52:57Z</time>
      </trkpt>
      <trkpt lat="47.09896" lon="-1.06077">
        <ele>48</ele>
        <time>2022-06-01T22:53:02Z</time>
      </trkpt>
      <trkpt lat="47.09912" lon="-1.06087">
        <ele>48</ele>
        <time>2022-06-01T22:53:05Z</time>
      </trkpt>
      <trkpt lat="47.09924" lon="-1.06093">
        <ele>48</ele>
        <time>2022-06-01T22:53:07Z</time>
      </trkpt>
      <trkpt lat="47.0995" lon="-1.06098">
        <ele>49</ele>
        <time>2022-06-01T22:53:12Z</time>
      </trkpt>
      <trkpt lat="47.10218" lon="-1.06111">
        <ele>43</ele>
        <time>2022-06-01T22:54:00Z</time>
      </trkpt>
      <trkpt lat="47.10237" lon="-1.06108">
        <ele>44</ele>
        <time>2022-06-01T22:54:03Z</time>
      </trkpt>
      <trkpt lat="47.10255" lon="-1.06098">
        <ele>44</ele>
        <time>2022-06-01T22:54:07Z</time>
      </trkpt>
      <trkpt lat="47.10263" lon="-1.0609">
        <ele>45</ele>
        <time>2022-06-01T22:54:08Z</time>
      </trkpt>
      <trkpt lat="47.10346" lon="-1.05994">
        <ele>51</ele>
        <time>2022-06-01T22:54:27Z</time>
      </trkpt>
      <trkpt lat="47.10352" lon="-1.05989">
        <ele>51</ele>
        <time>2022-06-01T22:54:28Z</time>
      </trkpt>
      <trkpt lat="47.10365" lon="-1.05984">
        <ele>52</ele>
        <time>2022-06-01T22:54:31Z</time>
      </trkpt>
      <trkpt lat="47.10372" lon="-1.05985">
        <ele>53</ele>
        <time>2022-06-01T22:54:32Z</time>
      </trkpt>
      <trkpt lat="47.10384" lon="-1.0599">
        <ele>54</ele>
        <time>2022-06-01T22:54:34Z</time>
      </trkpt>
      <trkpt lat="47.10417" lon="-1.0602">
        <ele>56</ele>
        <time>2022-06-01T22:54:41Z</time>
      </trkpt>
      <trkpt lat="47.10425" lon="-1.06023">
        <ele>57</ele>
        <time>2022-06-01T22:54:42Z</time>
      </trkpt>
      <trkpt lat="47.10436" lon="-1.06023">
        <ele>57</ele>
        <time>2022-06-01T22:54:44Z</time>
      </trkpt>
      <trkpt lat="47.10454" lon="-1.06018">
        <ele>58</ele>
        <time>2022-06-01T22:54:48Z</time>
      </trkpt>
      <trkpt lat="47.10486" lon="-1.06006">
        <ele>59</ele>
        <time>2022-06-01T22:54:54Z</time>
      </trkpt>
      <trkpt lat="47.10559" lon="-1.06">
        <ele>63</ele>
        <time>2022-06-01T22:55:07Z</time>
      </trkpt>
      <trkpt lat="47.10608" lon="-1.0599">
        <ele>65</ele>
        <time>2022-06-01T22:55:15Z</time>
      </trkpt>
      <trkpt lat="47.10656" lon="-1.05973">
        <ele>66</ele>
        <time>2022-06-01T22:55:24Z</time>
      </trkpt>
      <trkpt lat="47.10734" lon="-1.05937">
        <ele>70</ele>
        <time>2022-06-01T22:55:39Z</time>
      </trkpt>
      <trkpt lat="47.10749" lon="-1.05928">
        <ele>71</ele>
        <time>2022-06-01T22:55:42Z</time>
      </trkpt>
      <trkpt lat="47.10775" lon="-1.05904">
        <ele>73</ele>
        <time>2022-06-01T22:55:47Z</time>
      </trkpt>
      <trkpt lat="47.10824" lon="-1.05844">
        <ele>77</ele>
        <time>2022-06-01T22:55:58Z</time>
      </trkpt>
      <trkpt lat="47.10842" lon="-1.05831">
        <ele>77</ele>
        <time>2022-06-01T22:56:02Z</time>
      </trkpt>
      <trkpt lat="47.10859" lon="-1.05829">
        <ele>77</ele>
        <time>2022-06-01T22:56:05Z</time>
      </trkpt>
      <trkpt lat="47.10873" lon="-1.05834">
        <ele>77</ele>
        <time>2022-06-01T22:56:08Z</time>
      </trkpt>
      <trkpt lat="47.11049" lon="-1.05924">
        <ele>83</ele>
        <time>2022-06-01T22:56:41Z</time>
      </trkpt>
      <trkpt lat="47.11083" lon="-1.05938">
        <ele>85</ele>
        <time>2022-06-01T22:56:47Z</time>
      </trkpt>
      <trkpt lat="47.11122" lon="-1.05947">
        <ele>84</ele>
        <time>2022-06-01T22:56:54Z</time>
      </trkpt>
      <trkpt lat="47.11176" lon="-1.0595">
        <ele>84</ele>
        <time>2022-06-01T22:57:04Z</time>
      </trkpt>
      <trkpt lat="47.11204" lon="-1.05949">
        <ele>85</ele>
        <time>2022-06-01T22:57:09Z</time>
      </trkpt>
      <trkpt lat="47.11258" lon="-1.05938">
        <ele>87</ele>
        <time>2022-06-01T22:57:18Z</time>
      </trkpt>
      <trkpt lat="47.11277" lon="-1.05936">
        <ele>88</ele>
        <time>2022-06-01T22:57:22Z</time>
      </trkpt>
      <trkpt lat="47.11297" lon="-1.05936">
        <ele>88</ele>
        <time>2022-06-01T22:57:25Z</time>
      </trkpt>
      <trkpt lat="47.1132" lon="-1.05939">
        <ele>89</ele>
        <time>2022-06-01T22:57:29Z</time>
      </trkpt>
      <trkpt lat="47.11378" lon="-1.05953">
        <ele>89</ele>
        <time>2022-06-01T22:57:40Z</time>
      </trkpt>
      <trkpt lat="47.11396" lon="-1.05955">
        <ele>89</ele>
        <time>2022-06-01T22:57:43Z</time>
      </trkpt>
      <trkpt lat="47.11418" lon="-1.05953">
        <ele>89</ele>
        <time>2022-06-01T22:57:47Z</time>
      </trkpt>
      <trkpt lat="47.11452" lon="-1.05941">
        <ele>89</ele>
        <time>2022-06-01T22:57:53Z</time>
      </trkpt>
      <trkpt lat="47.11486" lon="-1.05928">
        <ele>90</ele>
        <time>2022-06-01T22:57:59Z</time>
      </trkpt>
      <trkpt lat="47.11501" lon="-1.05921">
        <ele>90</ele>
        <time>2022-06-01T22:58:02Z</time>
      </trkpt>
      <trkpt lat="47.11537" lon="-1.05914">
        <ele>90</ele>
        <time>2022-06-01T22:58:09Z</time>
      </trkpt>
      <trkpt lat="47.11563" lon="-1.05911">
        <ele>90</ele>
        <time>2022-06-01T22:58:13Z</time>
      </trkpt>
      <trkpt lat="47.11609" lon="-1.05915">
        <ele>91</ele>
        <time>2022-06-01T22:58:22Z</time>
      </trkpt>
      <trkpt lat="47.11869" lon="-1.05979">
        <ele>88</ele>
        <time>2022-06-01T22:59:08Z</time>
      </trkpt>
      <trkpt lat="47.11904" lon="-1.0599">
        <ele>88</ele>
        <time>2022-06-01T22:59:15Z</time>
      </trkpt>
      <trkpt lat="47.11914" lon="-1.0599">
        <ele>88</ele>
        <time>2022-06-01T22:59:17Z</time>
      </trkpt>
      <trkpt lat="47.11935" lon="-1.05985">
        <ele>88</ele>
        <time>2022-06-01T22:59:20Z</time>
      </trkpt>
      <trkpt lat="47.11963" lon="-1.0597">
        <ele>89</ele>
        <time>2022-06-01T22:59:26Z</time>
      </trkpt>
      <trkpt lat="47.11982" lon="-1.05955">
        <ele>90</ele>
        <time>2022-06-01T22:59:30Z</time>
      </trkpt>
      <trkpt lat="47.11984" lon="-1.0596">
        <ele>90</ele>
        <time>2022-06-01T22:59:30Z</time>
      </trkpt>
      <trkpt lat="47.12022" lon="-1.06019">
        <ele>89</ele>
        <time>2022-06-01T22:59:40Z</time>
      </trkpt>
      <trkpt lat="47.12045" lon="-1.06074">
        <ele>89</ele>
        <time>2022-06-01T22:59:48Z</time>
      </trkpt>
      <trkpt lat="47.12048" lon="-1.06087">
        <ele>89</ele>
        <time>2022-06-01T22:59:50Z</time>
      </trkpt>
      <trkpt lat="47.12048" lon="-1.06109">
        <ele>89</ele>
        <time>2022-06-01T22:59:52Z</time>
      </trkpt>
      <trkpt lat="47.12056" lon="-1.06113">
        <ele>89</ele>
        <time>2022-06-01T22:59:54Z</time>
      </trkpt>
      <trkpt lat="47.12121" lon="-1.0618">
        <ele>92</ele>
        <time>2022-06-01T23:00:08Z</time>
      </trkpt>
      <trkpt lat="47.12139" lon="-1.06203">
        <ele>92</ele>
        <time>2022-06-01T23:00:12Z</time>
      </trkpt>
      <trkpt lat="47.12279" lon="-1.06468">
        <ele>92</ele>
        <time>2022-06-01T23:00:53Z</time>
      </trkpt>
      <trkpt lat="47.12363" lon="-1.06666">
        <ele>92</ele>
        <time>2022-06-01T23:01:21Z</time>
      </trkpt>
      <trkpt lat="47.12376" lon="-1.06689">
        <ele>91</ele>
        <time>2022-06-01T23:01:25Z</time>
      </trkpt>
      <trkpt lat="47.12389" lon="-1.06703">
        <ele>91</ele>
        <time>2022-06-01T23:01:27Z</time>
      </trkpt>
      <trkpt lat="47.12404" lon="-1.06717">
        <ele>92</ele>
        <time>2022-06-01T23:01:31Z</time>
      </trkpt>
      <trkpt lat="47.12423" lon="-1.06723">
        <ele>92</ele>
        <time>2022-06-01T23:01:34Z</time>
      </trkpt>
      <trkpt lat="47.1252" lon="-1.06739">
        <ele>94</ele>
        <time>2022-06-01T23:01:51Z</time>
      </trkpt>
      <trkpt lat="47.12716" lon="-1.06726">
        <ele>99</ele>
        <time>2022-06-01T23:02:26Z</time>
      </trkpt>
      <trkpt lat="47.12732" lon="-1.06732">
        <ele>98</ele>
        <time>2022-06-01T23:02:29Z</time>
      </trkpt>
      <trkpt lat="47.12745" lon="-1.06741">
        <ele>98</ele>
        <time>2022-06-01T23:02:32Z</time>
      </trkpt>
      <trkpt lat="47.1276" lon="-1.06759">
        <ele>98</ele>
        <time>2022-06-01T23:02:35Z</time>
      </trkpt>
      <trkpt lat="47.12808" lon="-1.06828">
        <ele>101</ele>
        <time>2022-06-01T23:02:47Z</time>
      </trkpt>
      <trkpt lat="47.1283" lon="-1.0685">
        <ele>101</ele>
        <time>2022-06-01T23:02:52Z</time>
      </trkpt>
      <trkpt lat="47.12853" lon="-1.06856">
        <ele>101</ele>
        <time>2022-06-01T23:02:56Z</time>
      </trkpt>
      <trkpt lat="47.12874" lon="-1.06858">
        <ele>101</ele>
        <time>2022-06-01T23:03:00Z</time>
      </trkpt>
      <trkpt lat="47.12912" lon="-1.06856">
        <ele>101</ele>
        <time>2022-06-01T23:03:07Z</time>
      </trkpt>
      <trkpt lat="47.12934" lon="-1.07057">
        <ele>105</ele>
        <time>2022-06-01T23:03:31Z</time>
      </trkpt>
      <trkpt lat="47.12936" lon="-1.07084">
        <ele>105</ele>
        <time>2022-06-01T23:03:35Z</time>
      </trkpt>
      <trkpt lat="47.12934" lon="-1.07128">
        <ele>106</ele>
        <time>2022-06-01T23:03:40Z</time>
      </trkpt>
      <trkpt lat="47.12911" lon="-1.0729">
        <ele>104</ele>
        <time>2022-06-01T23:04:00Z</time>
      </trkpt>
      <trkpt lat="47.12909" lon="-1.07322">
        <ele>104</ele>
        <time>2022-06-01T23:04:04Z</time>
      </trkpt>
      <trkpt lat="47.1291" lon="-1.07353">
        <ele>103</ele>
        <time>2022-06-01T23:04:08Z</time>
      </trkpt>
      <trkpt lat="47.12917" lon="-1.07406">
        <ele>103</ele>
        <time>2022-06-01T23:04:14Z</time>
      </trkpt>
      <trkpt lat="47.12966" lon="-1.07663">
        <ele>107</ele>
        <time>2022-06-01T23:04:46Z</time>
      </trkpt>
      <trkpt lat="47.13015" lon="-1.07935">
        <ele>107</ele>
        <time>2022-06-01T23:05:21Z</time>
      </trkpt>
      <trkpt lat="47.1302" lon="-1.07954">
        <ele>107</ele>
        <time>2022-06-01T23:05:23Z</time>
      </trkpt>
      <trkpt lat="47.13037" lon="-1.08">
        <ele>108</ele>
        <time>2022-06-01T23:05:29Z</time>
      </trkpt>
      <trkpt lat="47.13076" lon="-1.08083">
        <ele>106</ele>
        <time>2022-06-01T23:05:42Z</time>
      </trkpt>
      <trkpt lat="47.1309" lon="-1.08119">
        <ele>105</ele>
        <time>2022-06-01T23:05:47Z</time>
      </trkpt>
      <trkpt lat="47.131" lon="-1.08149">
        <ele>105</ele>
        <time>2022-06-01T23:05:51Z</time>
      </trkpt>
      <trkpt lat="47.13124" lon="-1.08243">
        <ele>104</ele>
        <time>2022-06-01T23:06:03Z</time>
      </trkpt>
      <trkpt lat="47.13136" lon="-1.08305">
        <ele>105</ele>
        <time>2022-06-01T23:06:11Z</time>
      </trkpt>
      <trkpt lat="47.13146" lon="-1.08341">
        <ele>106</ele>
        <time>2022-06-01T23:06:15Z</time>
      </trkpt>
      <trkpt lat="47.13144" lon="-1.08333">
        <ele>106</ele>
        <time>2022-06-01T23:06:16Z</time>
      </trkpt>
      <trkpt lat="47.13033" lon="-1.08479">
        <ele>109</ele>
        <time>2022-06-01T23:06:43Z</time>
      </trkpt>
      <trkpt lat="47.12487" lon="-1.09168">
        <ele>106</ele>
        <time>2022-06-01T23:08:51Z</time>
      </trkpt>
      <trkpt lat="47.1238" lon="-1.09299">
        <ele>104</ele>
        <time>2022-06-01T23:09:16Z</time>
      </trkpt>
      <trkpt lat="47.12224" lon="-1.095">
        <ele>99</ele>
        <time>2022-06-01T23:09:53Z</time>
      </trkpt>
      <trkpt lat="47.12207" lon="-1.09533">
        <ele>98</ele>
        <time>2022-06-01T23:09:58Z</time>
      </trkpt>
      <trkpt lat="47.12205" lon="-1.09541">
        <ele>98</ele>
        <time>2022-06-01T23:09:59Z</time>
      </trkpt>
      <trkpt lat="47.12206" lon="-1.09557">
        <ele>98</ele>
        <time>2022-06-01T23:10:01Z</time>
      </trkpt>
      <trkpt lat="47.12203" lon="-1.09566">
        <ele>98</ele>
        <time>2022-06-01T23:10:02Z</time>
      </trkpt>
      <trkpt lat="47.12199" lon="-1.09574">
        <ele>98</ele>
        <time>2022-06-01T23:10:03Z</time>
      </trkpt>
      <trkpt lat="47.12195" lon="-1.09578">
        <ele>98</ele>
        <time>2022-06-01T23:10:04Z</time>
      </trkpt>
      <trkpt lat="47.12186" lon="-1.09583">
        <ele>98</ele>
        <time>2022-06-01T23:10:05Z</time>
      </trkpt>
      <trkpt lat="47.12175" lon="-1.09579">
        <ele>98</ele>
        <time>2022-06-01T23:10:08Z</time>
      </trkpt>
      <trkpt lat="47.12162" lon="-1.09584">
        <ele>98</ele>
        <time>2022-06-01T23:10:10Z</time>
      </trkpt>
      <trkpt lat="47.12148" lon="-1.09595">
        <ele>98</ele>
        <time>2022-06-01T23:10:13Z</time>
      </trkpt>
      <trkpt lat="47.12081" lon="-1.0968">
        <ele>96</ele>
        <time>2022-06-01T23:10:28Z</time>
      </trkpt>
      <trkpt lat="47.11993" lon="-1.09787">
        <ele>95</ele>
        <time>2022-06-01T23:10:49Z</time>
      </trkpt>
      <trkpt lat="47.11845" lon="-1.09975">
        <ele>89</ele>
        <time>2022-06-01T23:11:24Z</time>
      </trkpt>
      <trkpt lat="47.11833" lon="-1.09995">
        <ele>89</ele>
        <time>2022-06-01T23:11:27Z</time>
      </trkpt>
      <trkpt lat="47.11835" lon="-1.10001">
        <ele>89</ele>
        <time>2022-06-01T23:11:28Z</time>
      </trkpt>
      <trkpt lat="47.11836" lon="-1.10015">
        <ele>89</ele>
        <time>2022-06-01T23:11:29Z</time>
      </trkpt>
      <trkpt lat="47.11831" lon="-1.10027">
        <ele>89</ele>
        <time>2022-06-01T23:11:31Z</time>
      </trkpt>
      <trkpt lat="47.11827" lon="-1.10031">
        <ele>89</ele>
        <time>2022-06-01T23:11:32Z</time>
      </trkpt>
      <trkpt lat="47.11821" lon="-1.10034">
        <ele>89</ele>
        <time>2022-06-01T23:11:33Z</time>
      </trkpt>
      <trkpt lat="47.11816" lon="-1.10033">
        <ele>89</ele>
        <time>2022-06-01T23:11:34Z</time>
      </trkpt>
      <trkpt lat="47.1181" lon="-1.1003">
        <ele>89</ele>
        <time>2022-06-01T23:11:35Z</time>
      </trkpt>
      <trkpt lat="47.11806" lon="-1.10024">
        <ele>89</ele>
        <time>2022-06-01T23:11:36Z</time>
      </trkpt>
      <trkpt lat="47.11192" lon="-1.10801">
        <ele>79</ele>
        <time>2022-06-01T23:14:00Z</time>
      </trkpt>
      <trkpt lat="47.10177" lon="-1.12077">
        <ele>65</ele>
        <time>2022-06-01T23:17:58Z</time>
      </trkpt>
      <trkpt lat="47.10059" lon="-1.12238">
        <ele>60</ele>
        <time>2022-06-01T23:18:27Z</time>
      </trkpt>
      <trkpt lat="47.10054" lon="-1.12253">
        <ele>59</ele>
        <time>2022-06-01T23:18:29Z</time>
      </trkpt>
      <trkpt lat="47.10054" lon="-1.12277">
        <ele>59</ele>
        <time>2022-06-01T23:18:32Z</time>
      </trkpt>
      <trkpt lat="47.10058" lon="-1.12372">
        <ele>57</ele>
        <time>2022-06-01T23:18:43Z</time>
      </trkpt>
      <trkpt lat="47.10056" lon="-1.12387">
        <ele>56</ele>
        <time>2022-06-01T23:18:45Z</time>
      </trkpt>
      <trkpt lat="47.10053" lon="-1.124">
        <ele>56</ele>
        <time>2022-06-01T23:18:47Z</time>
      </trkpt>
      <trkpt lat="47.09924" lon="-1.12658">
        <ele>47</ele>
        <time>2022-06-01T23:19:25Z</time>
      </trkpt>
      <trkpt lat="47.09917" lon="-1.1267">
        <ele>46</ele>
        <time>2022-06-01T23:19:27Z</time>
      </trkpt>
      <trkpt lat="47.09858" lon="-1.12724">
        <ele>41</ele>
        <time>2022-06-01T23:19:40Z</time>
      </trkpt>
      <trkpt lat="47.09844" lon="-1.12723">
        <ele>40</ele>
        <time>2022-06-01T23:19:42Z</time>
      </trkpt>
      <trkpt lat="47.09837" lon="-1.12715">
        <ele>38</ele>
        <time>2022-06-01T23:19:44Z</time>
      </trkpt>
      <trkpt lat="47.09815" lon="-1.12679">
        <ele>35</ele>
        <time>2022-06-01T23:19:50Z</time>
      </trkpt>
      <trkpt lat="47.09799" lon="-1.12652">
        <ele>34</ele>
        <time>2022-06-01T23:19:54Z</time>
      </trkpt>
      <trkpt lat="47.09758" lon="-1.12611">
        <ele>34</ele>
        <time>2022-06-01T23:20:03Z</time>
      </trkpt>
      <trkpt lat="47.09736" lon="-1.12594">
        <ele>34</ele>
        <time>2022-06-01T23:20:07Z</time>
      </trkpt>
      <trkpt lat="47.09715" lon="-1.12588">
        <ele>35</ele>
        <time>2022-06-01T23:20:11Z</time>
      </trkpt>
      <trkpt lat="47.09713" lon="-1.12596">
        <ele>35</ele>
        <time>2022-06-01T23:20:12Z</time>
      </trkpt>
      <trkpt lat="47.0971" lon="-1.12599">
        <ele>35</ele>
        <time>2022-06-01T23:20:13Z</time>
      </trkpt>
      <trkpt lat="47.09703" lon="-1.126">
        <ele>35</ele>
        <time>2022-06-01T23:20:14Z</time>
      </trkpt>
      <trkpt lat="47.09699" lon="-1.12618">
        <ele>35</ele>
        <time>2022-06-01T23:20:16Z</time>
      </trkpt>
      <trkpt lat="47.09693" lon="-1.12629">
        <ele>35</ele>
        <time>2022-06-01T23:20:18Z</time>
      </trkpt>
      <trkpt lat="47.09604" lon="-1.12714">
        <ele>36</ele>
        <time>2022-06-01T23:20:37Z</time>
      </trkpt>
      <trkpt lat="47.09457" lon="-1.12847">
        <ele>42</ele>
        <time>2022-06-01T23:21:07Z</time>
      </trkpt>
      <trkpt lat="47.09402" lon="-1.12847">
        <ele>44</ele>
        <time>2022-06-01T23:21:17Z</time>
      </trkpt>
      <trkpt lat="47.09232" lon="-1.12856">
        <ele>44</ele>
        <time>2022-06-01T23:21:48Z</time>
      </trkpt>
      <trkpt lat="47.09207" lon="-1.12862">
        <ele>45</ele>
        <time>2022-06-01T23:21:52Z</time>
      </trkpt>
      <trkpt lat="47.09186" lon="-1.12871">
        <ele>46</ele>
        <time>2022-06-01T23:21:56Z</time>
      </trkpt>
      <trkpt lat="47.09173" lon="-1.12881">
        <ele>46</ele>
        <time>2022-06-01T23:21:59Z</time>
      </trkpt>
      <trkpt lat="47.09158" lon="-1.12899">
        <ele>47</ele>
        <time>2022-06-01T23:22:02Z</time>
      </trkpt>
      <trkpt lat="47.09137" lon="-1.12937">
        <ele>49</ele>
        <time>2022-06-01T23:22:08Z</time>
      </trkpt>
      <trkpt lat="47.0913" lon="-1.12955">
        <ele>51</ele>
        <time>2022-06-01T23:22:10Z</time>
      </trkpt>
      <trkpt lat="47.09124" lon="-1.12979">
        <ele>52</ele>
        <time>2022-06-01T23:22:14Z</time>
      </trkpt>
      <trkpt lat="47.09122" lon="-1.12998">
        <ele>53</ele>
        <time>2022-06-01T23:22:16Z</time>
      </trkpt>
      <trkpt lat="47.09122" lon="-1.13037">
        <ele>54</ele>
        <time>2022-06-01T23:22:21Z</time>
      </trkpt>
      <trkpt lat="47.09135" lon="-1.13151">
        <ele>54</ele>
        <time>2022-06-01T23:22:35Z</time>
      </trkpt>
      <trkpt lat="47.09136" lon="-1.13206">
        <ele>55</ele>
        <time>2022-06-01T23:22:41Z</time>
      </trkpt>
      <trkpt lat="47.09136" lon="-1.13259">
        <ele>56</ele>
        <time>2022-06-01T23:22:48Z</time>
      </trkpt>
      <trkpt lat="47.09126" lon="-1.13322">
        <ele>58</ele>
        <time>2022-06-01T23:22:56Z</time>
      </trkpt>
      <trkpt lat="47.09092" lon="-1.13498">
        <ele>65</ele>
        <time>2022-06-01T23:23:18Z</time>
      </trkpt>
      <trkpt lat="47.09083" lon="-1.13528">
        <ele>65</ele>
        <time>2022-06-01T23:23:22Z</time>
      </trkpt>
      <trkpt lat="47.09071" lon="-1.13557">
        <ele>65</ele>
        <time>2022-06-01T23:23:26Z</time>
      </trkpt>
      <trkpt lat="47.09052" lon="-1.13589">
        <ele>66</ele>
        <time>2022-06-01T23:23:31Z</time>
      </trkpt>
      <trkpt lat="47.09032" lon="-1.13608">
        <ele>68</ele>
        <time>2022-06-01T23:23:35Z</time>
      </trkpt>
      <trkpt lat="47.09012" lon="-1.13622">
        <ele>69</ele>
        <time>2022-06-01T23:23:39Z</time>
      </trkpt>
      <trkpt lat="47.08988" lon="-1.13631">
        <ele>71</ele>
        <time>2022-06-01T23:23:43Z</time>
      </trkpt>
      <trkpt lat="47.08963" lon="-1.13634">
        <ele>73</ele>
        <time>2022-06-01T23:23:48Z</time>
      </trkpt>
      <trkpt lat="47.08922" lon="-1.13624">
        <ele>78</ele>
        <time>2022-06-01T23:23:55Z</time>
      </trkpt>
      <trkpt lat="47.08728" lon="-1.13526">
        <ele>84</ele>
        <time>2022-06-01T23:24:32Z</time>
      </trkpt>
      <trkpt lat="47.08715" lon="-1.13528">
        <ele>84</ele>
        <time>2022-06-01T23:24:34Z</time>
      </trkpt>
      <trkpt lat="47.0868" lon="-1.1355">
        <ele>84</ele>
        <time>2022-06-01T23:24:41Z</time>
      </trkpt>
      <trkpt lat="47.08656" lon="-1.13579">
        <ele>84</ele>
        <time>2022-06-01T23:24:46Z</time>
      </trkpt>
      <trkpt lat="47.08608" lon="-1.13656">
        <ele>84</ele>
        <time>2022-06-01T23:24:59Z</time>
      </trkpt>
      <trkpt lat="47.08597" lon="-1.13676">
        <ele>84</ele>
        <time>2022-06-01T23:25:02Z</time>
      </trkpt>
      <trkpt lat="47.0859" lon="-1.13697">
        <ele>84</ele>
        <time>2022-06-01T23:25:05Z</time>
      </trkpt>
      <trkpt lat="47.08583" lon="-1.13732">
        <ele>84</ele>
        <time>2022-06-01T23:25:09Z</time>
      </trkpt>
      <trkpt lat="47.08586" lon="-1.1375">
        <ele>84</ele>
        <time>2022-06-01T23:25:12Z</time>
      </trkpt>
      <trkpt lat="47.08574" lon="-1.1377">
        <ele>84</ele>
        <time>2022-06-01T23:25:15Z</time>
      </trkpt>
      <trkpt lat="47.08565" lon="-1.13775">
        <ele>84</ele>
        <time>2022-06-01T23:25:17Z</time>
      </trkpt>
      <trkpt lat="47.08554" lon="-1.13775">
        <ele>83</ele>
        <time>2022-06-01T23:25:19Z</time>
      </trkpt>
      <trkpt lat="47.08495" lon="-1.13748">
        <ele>84</ele>
        <time>2022-06-01T23:25:30Z</time>
      </trkpt>
      <trkpt lat="47.08464" lon="-1.13751">
        <ele>83</ele>
        <time>2022-06-01T23:25:35Z</time>
      </trkpt>
      <trkpt lat="47.08452" lon="-1.13758">
        <ele>83</ele>
        <time>2022-06-01T23:25:37Z</time>
      </trkpt>
      <trkpt lat="47.08447" lon="-1.13764">
        <ele>82</ele>
        <time>2022-06-01T23:25:39Z</time>
      </trkpt>
      <trkpt lat="47.08438" lon="-1.13748">
        <ele>82</ele>
        <time>2022-06-01T23:25:41Z</time>
      </trkpt>
      <trkpt lat="47.08434" lon="-1.13734">
        <ele>82</ele>
        <time>2022-06-01T23:25:43Z</time>
      </trkpt>
      <trkpt lat="47.08433" lon="-1.1372">
        <ele>81</ele>
        <time>2022-06-01T23:25:45Z</time>
      </trkpt>
      <trkpt lat="47.08435" lon="-1.13663">
        <ele>80</ele>
        <time>2022-06-01T23:25:52Z</time>
      </trkpt>
      <trkpt lat="47.08427" lon="-1.13636">
        <ele>80</ele>
        <time>2022-06-01T23:25:55Z</time>
      </trkpt>
      <trkpt lat="47.0842" lon="-1.13622">
        <ele>80</ele>
        <time>2022-06-01T23:25:57Z</time>
      </trkpt>
      <trkpt lat="47.08397" lon="-1.13604">
        <ele>80</ele>
        <time>2022-06-01T23:26:02Z</time>
      </trkpt>
      <trkpt lat="47.08275" lon="-1.13495">
        <ele>84</ele>
        <time>2022-06-01T23:26:27Z</time>
      </trkpt>
      <trkpt lat="47.0811" lon="-1.13339">
        <ele>86</ele>
        <time>2022-06-01T23:27:02Z</time>
      </trkpt>
      <trkpt lat="47.08092" lon="-1.13317">
        <ele>86</ele>
        <time>2022-06-01T23:27:06Z</time>
      </trkpt>
      <trkpt lat="47.07998" lon="-1.13179">
        <ele>86</ele>
        <time>2022-06-01T23:27:30Z</time>
      </trkpt>
      <trkpt lat="47.07974" lon="-1.13159">
        <ele>86</ele>
        <time>2022-06-01T23:27:35Z</time>
      </trkpt>
      <trkpt lat="47.07955" lon="-1.13147">
        <ele>86</ele>
        <time>2022-06-01T23:27:39Z</time>
      </trkpt>
      <trkpt lat="47.07906" lon="-1.13132">
        <ele>86</ele>
        <time>2022-06-01T23:27:48Z</time>
      </trkpt>
      <trkpt lat="47.07892" lon="-1.13121">
        <ele>86</ele>
        <time>2022-06-01T23:27:50Z</time>
      </trkpt>
      <trkpt lat="47.07881" lon="-1.13108">
        <ele>87</ele>
        <time>2022-06-01T23:27:53Z</time>
      </trkpt>
      <trkpt lat="47.07704" lon="-1.12805">
        <ele>93</ele>
        <time>2022-06-01T23:28:41Z</time>
      </trkpt>
      <trkpt lat="47.07648" lon="-1.127">
        <ele>94</ele>
        <time>2022-06-01T23:28:57Z</time>
      </trkpt>
      <trkpt lat="47.07623" lon="-1.12646">
        <ele>95</ele>
        <time>2022-06-01T23:29:05Z</time>
      </trkpt>
      <trkpt lat="47.07545" lon="-1.12421">
        <ele>98</ele>
        <time>2022-06-01T23:29:36Z</time>
      </trkpt>
      <trkpt lat="47.07527" lon="-1.12375">
        <ele>99</ele>
        <time>2022-06-01T23:29:42Z</time>
      </trkpt>
      <trkpt lat="47.07508" lon="-1.12343">
        <ele>100</ele>
        <time>2022-06-01T23:29:47Z</time>
      </trkpt>
      <trkpt lat="47.07486" lon="-1.12316">
        <ele>100</ele>
        <time>2022-06-01T23:29:53Z</time>
      </trkpt>
      <trkpt lat="47.07416" lon="-1.12247">
        <ele>101</ele>
        <time>2022-06-01T23:30:08Z</time>
      </trkpt>
      <trkpt lat="47.07282" lon="-1.1214">
        <ele>101</ele>
        <time>2022-06-01T23:30:35Z</time>
      </trkpt>
      <trkpt lat="47.07257" lon="-1.12128">
        <ele>101</ele>
        <time>2022-06-01T23:30:39Z</time>
      </trkpt>
      <trkpt lat="47.07234" lon="-1.12124">
        <ele>102</ele>
        <time>2022-06-01T23:30:44Z</time>
      </trkpt>
      <trkpt lat="47.07079" lon="-1.12118">
        <ele>101</ele>
        <time>2022-06-01T23:31:11Z</time>
      </trkpt>
      <trkpt lat="47.07015" lon="-1.12119">
        <ele>101</ele>
        <time>2022-06-01T23:31:22Z</time>
      </trkpt>
      <trkpt lat="47.06855" lon="-1.12129">
        <ele>104</ele>
        <time>2022-06-01T23:31:51Z</time>
      </trkpt>
      <trkpt lat="47.06611" lon="-1.12152">
        <ele>101</ele>
        <time>2022-06-01T23:32:34Z</time>
      </trkpt>
      <trkpt lat="47.06569" lon="-1.12162">
        <ele>100</ele>
        <time>2022-06-01T23:32:42Z</time>
      </trkpt>
      <trkpt lat="47.06427" lon="-1.12207">
        <ele>99</ele>
        <time>2022-06-01T23:33:08Z</time>
      </trkpt>
      <trkpt lat="47.06403" lon="-1.12212">
        <ele>100</ele>
        <time>2022-06-01T23:33:12Z</time>
      </trkpt>
      <trkpt lat="47.06239" lon="-1.12215">
        <ele>102</ele>
        <time>2022-06-01T23:33:41Z</time>
      </trkpt>
      <trkpt lat="47.0619" lon="-1.12212">
        <ele>101</ele>
        <time>2022-06-01T23:33:50Z</time>
      </trkpt>
      <trkpt lat="47.06021" lon="-1.12171">
        <ele>101</ele>
        <time>2022-06-01T23:34:21Z</time>
      </trkpt>
      <trkpt lat="47.05967" lon="-1.12166">
        <ele>102</ele>
        <time>2022-06-01T23:34:30Z</time>
      </trkpt>
      <trkpt lat="47.05659" lon="-1.12165">
        <ele>110</ele>
        <time>2022-06-01T23:35:25Z</time>
      </trkpt>
      <trkpt lat="47.05626" lon="-1.12162">
        <ele>110</ele>
        <time>2022-06-01T23:35:31Z</time>
      </trkpt>
      <trkpt lat="47.0558" lon="-1.12154">
        <ele>110</ele>
        <time>2022-06-01T23:35:39Z</time>
      </trkpt>
      <trkpt lat="47.05508" lon="-1.1213">
        <ele>110</ele>
        <time>2022-06-01T23:35:52Z</time>
      </trkpt>
      <trkpt lat="47.05456" lon="-1.12116">
        <ele>110</ele>
        <time>2022-06-01T23:36:02Z</time>
      </trkpt>
      <trkpt lat="47.05422" lon="-1.12113">
        <ele>110</ele>
        <time>2022-06-01T23:36:08Z</time>
      </trkpt>
      <trkpt lat="47.05384" lon="-1.12116">
        <ele>110</ele>
        <time>2022-06-01T23:36:15Z</time>
      </trkpt>
      <trkpt lat="47.05341" lon="-1.12125">
        <ele>110</ele>
        <time>2022-06-01T23:36:22Z</time>
      </trkpt>
      <trkpt lat="47.04921" lon="-1.12286">
        <ele>106</ele>
        <time>2022-06-01T23:37:40Z</time>
      </trkpt>
      <trkpt lat="47.04891" lon="-1.12294">
        <ele>106</ele>
        <time>2022-06-01T23:37:45Z</time>
      </trkpt>
      <trkpt lat="47.04848" lon="-1.12297">
        <ele>105</ele>
        <time>2022-06-01T23:37:53Z</time>
      </trkpt>
      <trkpt lat="47.04558" lon="-1.12288">
        <ele>103</ele>
        <time>2022-06-01T23:38:44Z</time>
      </trkpt>
      <trkpt lat="47.04511" lon="-1.12282">
        <ele>103</ele>
        <time>2022-06-01T23:38:53Z</time>
      </trkpt>
      <trkpt lat="47.04459" lon="-1.12268">
        <ele>102</ele>
        <time>2022-06-01T23:39:02Z</time>
      </trkpt>
      <trkpt lat="47.04292" lon="-1.12197">
        <ele>100</ele>
        <time>2022-06-01T23:39:33Z</time>
      </trkpt>
      <trkpt lat="47.04267" lon="-1.1219">
        <ele>99</ele>
        <time>2022-06-01T23:39:37Z</time>
      </trkpt>
      <trkpt lat="47.04254" lon="-1.12191">
        <ele>99</ele>
        <time>2022-06-01T23:39:40Z</time>
      </trkpt>
      <trkpt lat="47.0424" lon="-1.12199">
        <ele>98</ele>
        <time>2022-06-01T23:39:42Z</time>
      </trkpt>
      <trkpt lat="47.04224" lon="-1.12217">
        <ele>98</ele>
        <time>2022-06-01T23:39:46Z</time>
      </trkpt>
      <trkpt lat="47.04059" lon="-1.12495">
        <ele>92</ele>
        <time>2022-06-01T23:40:31Z</time>
      </trkpt>
      <trkpt lat="47.0405" lon="-1.12506">
        <ele>91</ele>
        <time>2022-06-01T23:40:33Z</time>
      </trkpt>
      <trkpt lat="47.04037" lon="-1.12519">
        <ele>91</ele>
        <time>2022-06-01T23:40:36Z</time>
      </trkpt>
      <trkpt lat="47.04021" lon="-1.12494">
        <ele>90</ele>
        <time>2022-06-01T23:40:40Z</time>
      </trkpt>
      <trkpt lat="47.04009" lon="-1.12481">
        <ele>90</ele>
        <time>2022-06-01T23:40:42Z</time>
      </trkpt>
      <trkpt lat="47.03982" lon="-1.12458">
        <ele>89</ele>
        <time>2022-06-01T23:40:48Z</time>
      </trkpt>
      <trkpt lat="47.03913" lon="-1.12413">
        <ele>84</ele>
        <time>2022-06-01T23:41:01Z</time>
      </trkpt>
      <trkpt lat="47.03879" lon="-1.12379">
        <ele>83</ele>
        <time>2022-06-01T23:41:09Z</time>
      </trkpt>
      <trkpt lat="47.03852" lon="-1.12342">
        <ele>82</ele>
        <time>2022-06-01T23:41:15Z</time>
      </trkpt>
      <trkpt lat="47.03836" lon="-1.1232">
        <ele>81</ele>
        <time>2022-06-01T23:41:19Z</time>
      </trkpt>
      <trkpt lat="47.03814" lon="-1.12284">
        <ele>84</ele>
        <time>2022-06-01T23:41:25Z</time>
      </trkpt>
      <trkpt lat="47.038" lon="-1.12246">
        <ele>86</ele>
        <time>2022-06-01T23:41:30Z</time>
      </trkpt>
      <trkpt lat="47.03796" lon="-1.12226">
        <ele>87</ele>
        <time>2022-06-01T23:41:33Z</time>
      </trkpt>
      <trkpt lat="47.03793" lon="-1.12198">
        <ele>88</ele>
        <time>2022-06-01T23:41:36Z</time>
      </trkpt>
      <trkpt lat="47.03793" lon="-1.12164">
        <ele>88</ele>
        <time>2022-06-01T23:41:40Z</time>
      </trkpt>
      <trkpt lat="47.03795" lon="-1.12125">
        <ele>89</ele>
        <time>2022-06-01T23:41:45Z</time>
      </trkpt>
      <trkpt lat="47.03802" lon="-1.12083">
        <ele>89</ele>
        <time>2022-06-01T23:41:50Z</time>
      </trkpt>
      <trkpt lat="47.03811" lon="-1.12089">
        <ele>87</ele>
        <time>2022-06-01T23:41:52Z</time>
      </trkpt>
      <trkpt lat="47.03794" lon="-1.1215">
        <ele>89</ele>
        <time>2022-06-01T23:42:00Z</time>
      </trkpt>
      <trkpt lat="47.03795" lon="-1.12125">
        <ele>89</ele>
        <time>2022-06-01T23:42:03Z</time>
      </trkpt>
      <trkpt lat="47.03809" lon="-1.12048">
        <ele>89</ele>
        <time>2022-06-01T23:42:13Z</time>
      </trkpt>
      <trkpt lat="47.03816" lon="-1.11998">
        <ele>90</ele>
        <time>2022-06-01T23:42:19Z</time>
      </trkpt>
      <trkpt lat="47.03826" lon="-1.11955">
        <ele>91</ele>
        <time>2022-06-01T23:42:25Z</time>
      </trkpt>
      <trkpt lat="47.03823" lon="-1.11951">
        <ele>92</ele>
        <time>2022-06-01T23:42:25Z</time>
      </trkpt>
      <trkpt lat="47.03811" lon="-1.11924">
        <ele>94</ele>
        <time>2022-06-01T23:42:29Z</time>
      </trkpt>
      <trkpt lat="47.03805" lon="-1.11904">
        <ele>95</ele>
        <time>2022-06-01T23:42:32Z</time>
      </trkpt>
      <trkpt lat="47.03768" lon="-1.11854">
        <ele>99</ele>
        <time>2022-06-01T23:42:41Z</time>
      </trkpt>
      <trkpt lat="47.03769" lon="-1.11818">
        <ele>100</ele>
        <time>2022-06-01T23:42:45Z</time>
      </trkpt>
      <trkpt lat="47.03757" lon="-1.11763">
        <ele>101</ele>
        <time>2022-06-01T23:42:52Z</time>
      </trkpt>
      <trkpt lat="47.03771" lon="-1.11748">
        <ele>101</ele>
        <time>2022-06-01T23:42:55Z</time>
      </trkpt>
      <trkpt lat="47.03699" lon="-1.11641">
        <ele>102</ele>
        <time>2022-06-01T23:43:13Z</time>
      </trkpt>
      <trkpt lat="47.0369" lon="-1.11631">
        <ele>102</ele>
        <time>2022-06-01T23:43:15Z</time>
      </trkpt>
      <trkpt lat="47.0365" lon="-1.11629">
        <ele>103</ele>
        <time>2022-06-01T23:43:23Z</time>
      </trkpt>
      <trkpt lat="47.03567" lon="-1.11618">
        <ele>104</ele>
        <time>2022-06-01T23:43:37Z</time>
      </trkpt>
      <trkpt lat="47.03548" lon="-1.11623">
        <ele>104</ele>
        <time>2022-06-01T23:43:41Z</time>
      </trkpt>
      <trkpt lat="47.03475" lon="-1.11662">
        <ele>102</ele>
        <time>2022-06-01T23:43:55Z</time>
      </trkpt>
      <trkpt lat="47.03398" lon="-1.11715">
        <ele>99</ele>
        <time>2022-06-01T23:44:10Z</time>
      </trkpt>
      <trkpt lat="47.0333" lon="-1.11749">
        <ele>97</ele>
        <time>2022-06-01T23:44:23Z</time>
      </trkpt>
      <trkpt lat="47.03304" lon="-1.11761">
        <ele>96</ele>
        <time>2022-06-01T23:44:27Z</time>
      </trkpt>
      <trkpt lat="47.03291" lon="-1.11765">
        <ele>96</ele>
        <time>2022-06-01T23:44:30Z</time>
      </trkpt>
      <trkpt lat="47.03278" lon="-1.11765">
        <ele>96</ele>
        <time>2022-06-01T23:44:32Z</time>
      </trkpt>
      <trkpt lat="47.03204" lon="-1.11739">
        <ele>92</ele>
        <time>2022-06-01T23:44:46Z</time>
      </trkpt>
      <trkpt lat="47.03181" lon="-1.11726">
        <ele>91</ele>
        <time>2022-06-01T23:44:50Z</time>
      </trkpt>
      <trkpt lat="47.0315" lon="-1.11703">
        <ele>89</ele>
        <time>2022-06-01T23:44:56Z</time>
      </trkpt>
      <trkpt lat="47.03134" lon="-1.11695">
        <ele>88</ele>
        <time>2022-06-01T23:44:59Z</time>
      </trkpt>
      <trkpt lat="47.0307" lon="-1.11683">
        <ele>85</ele>
        <time>2022-06-01T23:45:11Z</time>
      </trkpt>
      <trkpt lat="47.03025" lon="-1.11678">
        <ele>83</ele>
        <time>2022-06-01T23:45:19Z</time>
      </trkpt>
      <trkpt lat="47.02963" lon="-1.11677">
        <ele>83</ele>
        <time>2022-06-01T23:45:30Z</time>
      </trkpt>
      <trkpt lat="47.02852" lon="-1.11681">
        <ele>87</ele>
        <time>2022-06-01T23:45:50Z</time>
      </trkpt>
      <trkpt lat="47.02827" lon="-1.11682">
        <ele>88</ele>
        <time>2022-06-01T23:45:54Z</time>
      </trkpt>
      <trkpt lat="47.02763" lon="-1.11697">
        <ele>88</ele>
        <time>2022-06-01T23:46:06Z</time>
      </trkpt>
      <trkpt lat="47.02748" lon="-1.11698">
        <ele>89</ele>
        <time>2022-06-01T23:46:08Z</time>
      </trkpt>
      <trkpt lat="47.0274" lon="-1.11695">
        <ele>89</ele>
        <time>2022-06-01T23:46:10Z</time>
      </trkpt>
      <trkpt lat="47.02725" lon="-1.11682">
        <ele>89</ele>
        <time>2022-06-01T23:46:13Z</time>
      </trkpt>
      <trkpt lat="47.02712" lon="-1.1166">
        <ele>90</ele>
        <time>2022-06-01T23:46:16Z</time>
      </trkpt>
      <trkpt lat="47.02637" lon="-1.11419">
        <ele>93</ele>
        <time>2022-06-01T23:46:48Z</time>
      </trkpt>
      <trkpt lat="47.02624" lon="-1.11388">
        <ele>94</ele>
        <time>2022-06-01T23:46:53Z</time>
      </trkpt>
      <trkpt lat="47.0261" lon="-1.1136">
        <ele>93</ele>
        <time>2022-06-01T23:46:57Z</time>
      </trkpt>
      <trkpt lat="47.02593" lon="-1.11332">
        <ele>93</ele>
        <time>2022-06-01T23:47:02Z</time>
      </trkpt>
      <trkpt lat="47.02376" lon="-1.11012">
        <ele>85</ele>
        <time>2022-06-01T23:47:56Z</time>
      </trkpt>
      <trkpt lat="47.0235" lon="-1.10985">
        <ele>86</ele>
        <time>2022-06-01T23:48:02Z</time>
      </trkpt>
      <trkpt lat="47.02296" lon="-1.10946">
        <ele>90</ele>
        <time>2022-06-01T23:48:13Z</time>
      </trkpt>
      <trkpt lat="47.02276" lon="-1.10922">
        <ele>91</ele>
        <time>2022-06-01T23:48:17Z</time>
      </trkpt>
      <trkpt lat="47.0226" lon="-1.10897">
        <ele>91</ele>
        <time>2022-06-01T23:48:21Z</time>
      </trkpt>
      <trkpt lat="47.02126" lon="-1.10662">
        <ele>89</ele>
        <time>2022-06-01T23:48:59Z</time>
      </trkpt>
      <trkpt lat="47.02102" lon="-1.10617">
        <ele>87</ele>
        <time>2022-06-01T23:49:06Z</time>
      </trkpt>
      <trkpt lat="47.02097" lon="-1.1061">
        <ele>87</ele>
        <time>2022-06-01T23:49:07Z</time>
      </trkpt>
      <trkpt lat="47.02039" lon="-1.10657">
        <ele>85</ele>
        <time>2022-06-01T23:49:19Z</time>
      </trkpt>
      <trkpt lat="47.02015" lon="-1.10681">
        <ele>83</ele>
        <time>2022-06-01T23:49:24Z</time>
      </trkpt>
      <trkpt lat="47.01978" lon="-1.10739">
        <ele>82</ele>
        <time>2022-06-01T23:49:33Z</time>
      </trkpt>
      <trkpt lat="47.01964" lon="-1.10755">
        <ele>81</ele>
        <time>2022-06-01T23:49:37Z</time>
      </trkpt>
      <trkpt lat="47.0188" lon="-1.10834">
        <ele>76</ele>
        <time>2022-06-01T23:49:54Z</time>
      </trkpt>
      <trkpt lat="47.01851" lon="-1.10859">
        <ele>75</ele>
        <time>2022-06-01T23:50:00Z</time>
      </trkpt>
      <trkpt lat="47.01831" lon="-1.10874">
        <ele>75</ele>
        <time>2022-06-01T23:50:04Z</time>
      </trkpt>
      <trkpt lat="47.01799" lon="-1.10892">
        <ele>72</ele>
        <time>2022-06-01T23:50:10Z</time>
      </trkpt>
      <trkpt lat="47.01782" lon="-1.10896">
        <ele>70</ele>
        <time>2022-06-01T23:50:13Z</time>
      </trkpt>
      <trkpt lat="47.01748" lon="-1.10893">
        <ele>67</ele>
        <time>2022-06-01T23:50:20Z</time>
      </trkpt>
      <trkpt lat="47.01733" lon="-1.10894">
        <ele>65</ele>
        <time>2022-06-01T23:50:22Z</time>
      </trkpt>
      <trkpt lat="47.01715" lon="-1.10904">
        <ele>64</ele>
        <time>2022-06-01T23:50:26Z</time>
      </trkpt>
      <trkpt lat="47.01662" lon="-1.10943">
        <ele>58</ele>
        <time>2022-06-01T23:50:36Z</time>
      </trkpt>
      <trkpt lat="47.01653" lon="-1.10954">
        <ele>57</ele>
        <time>2022-06-01T23:50:38Z</time>
      </trkpt>
      <trkpt lat="47.01634" lon="-1.10987">
        <ele>55</ele>
        <time>2022-06-01T23:50:43Z</time>
      </trkpt>
      <trkpt lat="47.01622" lon="-1.11016">
        <ele>53</ele>
        <time>2022-06-01T23:50:48Z</time>
      </trkpt>
      <trkpt lat="47.01614" lon="-1.11053">
        <ele>52</ele>
        <time>2022-06-01T23:50:52Z</time>
      </trkpt>
      <trkpt lat="47.01607" lon="-1.11112">
        <ele>51</ele>
        <time>2022-06-01T23:51:00Z</time>
      </trkpt>
      <trkpt lat="47.016" lon="-1.11176">
        <ele>50</ele>
        <time>2022-06-01T23:51:07Z</time>
      </trkpt>
      <trkpt lat="47.01594" lon="-1.11226">
        <ele>50</ele>
        <time>2022-06-01T23:51:14Z</time>
      </trkpt>
      <trkpt lat="47.01579" lon="-1.11301">
        <ele>56</ele>
        <time>2022-06-01T23:51:23Z</time>
      </trkpt>
      <trkpt lat="47.01546" lon="-1.1139">
        <ele>68</ele>
        <time>2022-06-01T23:51:35Z</time>
      </trkpt>
      <trkpt lat="47.0153" lon="-1.11447">
        <ele>70</ele>
        <time>2022-06-01T23:51:43Z</time>
      </trkpt>
      <trkpt lat="47.01508" lon="-1.11509">
        <ele>68</ele>
        <time>2022-06-01T23:51:51Z</time>
      </trkpt>
      <trkpt lat="47.01505" lon="-1.11506">
        <ele>68</ele>
        <time>2022-06-01T23:51:52Z</time>
      </trkpt>
      <trkpt lat="47.01496" lon="-1.11507">
        <ele>69</ele>
        <time>2022-06-01T23:51:54Z</time>
      </trkpt>
      <trkpt lat="47.01474" lon="-1.11538">
        <ele>68</ele>
        <time>2022-06-01T23:51:59Z</time>
      </trkpt>
      <trkpt lat="47.01446" lon="-1.11561">
        <ele>70</ele>
        <time>2022-06-01T23:52:05Z</time>
      </trkpt>
      <trkpt lat="47.01419" lon="-1.11575">
        <ele>72</ele>
        <time>2022-06-01T23:52:10Z</time>
      </trkpt>
      <trkpt lat="47.01396" lon="-1.1158">
        <ele>73</ele>
        <time>2022-06-01T23:52:14Z</time>
      </trkpt>
      <trkpt lat="47.01356" lon="-1.11579">
        <ele>75</ele>
        <time>2022-06-01T23:52:21Z</time>
      </trkpt>
      <trkpt lat="47.0133" lon="-1.11569">
        <ele>77</ele>
        <time>2022-06-01T23:52:26Z</time>
      </trkpt>
      <trkpt lat="47.01264" lon="-1.11536">
        <ele>77</ele>
        <time>2022-06-01T23:52:38Z</time>
      </trkpt>
      <trkpt lat="47.0123" lon="-1.11521">
        <ele>78</ele>
        <time>2022-06-01T23:52:45Z</time>
      </trkpt>
      <trkpt lat="47.01205" lon="-1.11517">
        <ele>78</ele>
        <time>2022-06-01T23:52:49Z</time>
      </trkpt>
      <trkpt lat="47.01187" lon="-1.11517">
        <ele>79</ele>
        <time>2022-06-01T23:52:52Z</time>
      </trkpt>
      <trkpt lat="47.01138" lon="-1.11526">
        <ele>79</ele>
        <time>2022-06-01T23:53:01Z</time>
      </trkpt>
      <trkpt lat="47.01072" lon="-1.11548">
        <ele>80</ele>
        <time>2022-06-01T23:53:13Z</time>
      </trkpt>
      <trkpt lat="47.01031" lon="-1.11551">
        <ele>80</ele>
        <time>2022-06-01T23:53:20Z</time>
      </trkpt>
      <trkpt lat="47.0099" lon="-1.1154">
        <ele>81</ele>
        <time>2022-06-01T23:53:28Z</time>
      </trkpt>
      <trkpt lat="47.00965" lon="-1.11526">
        <ele>82</ele>
        <time>2022-06-01T23:53:33Z</time>
      </trkpt>
      <trkpt lat="47.00931" lon="-1.11498">
        <ele>84</ele>
        <time>2022-06-01T23:53:39Z</time>
      </trkpt>
      <trkpt lat="47.00888" lon="-1.11453">
        <ele>86</ele>
        <time>2022-06-01T23:53:49Z</time>
      </trkpt>
      <trkpt lat="47.00868" lon="-1.11423">
        <ele>87</ele>
        <time>2022-06-01T23:53:54Z</time>
      </trkpt>
      <trkpt lat="47.00853" lon="-1.11395">
        <ele>88</ele>
        <time>2022-06-01T23:53:58Z</time>
      </trkpt>
      <trkpt lat="47.00833" lon="-1.11339">
        <ele>91</ele>
        <time>2022-06-01T23:54:06Z</time>
      </trkpt>
      <trkpt lat="47.00814" lon="-1.11273">
        <ele>93</ele>
        <time>2022-06-01T23:54:15Z</time>
      </trkpt>
      <trkpt lat="47.0081" lon="-1.1127">
        <ele>93</ele>
        <time>2022-06-01T23:54:15Z</time>
      </trkpt>
      <trkpt lat="47.00793" lon="-1.11203">
        <ele>94</ele>
        <time>2022-06-01T23:54:24Z</time>
      </trkpt>
      <trkpt lat="47.00795" lon="-1.11197">
        <ele>94</ele>
        <time>2022-06-01T23:54:25Z</time>
      </trkpt>
      <trkpt lat="47.00776" lon="-1.1111">
        <ele>96</ele>
        <time>2022-06-01T23:54:36Z</time>
      </trkpt>
      <trkpt lat="47.0076" lon="-1.10987">
        <ele>98</ele>
        <time>2022-06-01T23:54:51Z</time>
      </trkpt>
      <trkpt lat="47.00755" lon="-1.10935">
        <ele>99</ele>
        <time>2022-06-01T23:54:58Z</time>
      </trkpt>
      <trkpt lat="47.00751" lon="-1.10852">
        <ele>99</ele>
        <time>2022-06-01T23:55:08Z</time>
      </trkpt>
      <trkpt lat="47.00744" lon="-1.10771">
        <ele>100</ele>
        <time>2022-06-01T23:55:18Z</time>
      </trkpt>
      <trkpt lat="47.00735" lon="-1.10701">
        <ele>102</ele>
        <time>2022-06-01T23:55:26Z</time>
      </trkpt>
      <trkpt lat="47.00716" lon="-1.10607">
        <ele>103</ele>
        <time>2022-06-01T23:55:38Z</time>
      </trkpt>
      <trkpt lat="47.00706" lon="-1.10567">
        <ele>104</ele>
        <time>2022-06-01T23:55:43Z</time>
      </trkpt>
      <trkpt lat="47.00682" lon="-1.10484">
        <ele>104</ele>
        <time>2022-06-01T23:55:54Z</time>
      </trkpt>
      <trkpt lat="47.00632" lon="-1.10339">
        <ele>104</ele>
        <time>2022-06-01T23:56:14Z</time>
      </trkpt>
      <trkpt lat="47.00576" lon="-1.10194">
        <ele>105</ele>
        <time>2022-06-01T23:56:34Z</time>
      </trkpt>
      <trkpt lat="47.00538" lon="-1.10106">
        <ele>105</ele>
        <time>2022-06-01T23:56:47Z</time>
      </trkpt>
      <trkpt lat="47.00477" lon="-1.0998">
        <ele>105</ele>
        <time>2022-06-01T23:57:06Z</time>
      </trkpt>
      <trkpt lat="47.00422" lon="-1.09874">
        <ele>106</ele>
        <time>2022-06-01T23:57:22Z</time>
      </trkpt>
      <trkpt lat="47.00383" lon="-1.09808">
        <ele>106</ele>
        <time>2022-06-01T23:57:32Z</time>
      </trkpt>
      <trkpt lat="47.00354" lon="-1.0976">
        <ele>107</ele>
        <time>2022-06-01T23:57:40Z</time>
      </trkpt>
      <trkpt lat="47.00323" lon="-1.09715">
        <ele>107</ele>
        <time>2022-06-01T23:57:48Z</time>
      </trkpt>
      <trkpt lat="47.00302" lon="-1.09687">
        <ele>106</ele>
        <time>2022-06-01T23:57:53Z</time>
      </trkpt>
      <trkpt lat="47.00236" lon="-1.09608">
        <ele>105</ele>
        <time>2022-06-01T23:58:08Z</time>
      </trkpt>
      <trkpt lat="47.00198" lon="-1.09569">
        <ele>104</ele>
        <time>2022-06-01T23:58:16Z</time>
      </trkpt>
      <trkpt lat="47.00146" lon="-1.09526">
        <ele>104</ele>
        <time>2022-06-01T23:58:27Z</time>
      </trkpt>
      <trkpt lat="47.0003" lon="-1.09445">
        <ele>104</ele>
        <time>2022-06-01T23:58:50Z</time>
      </trkpt>
      <trkpt lat="46.99884" lon="-1.09356">
        <ele>103</ele>
        <time>2022-06-01T23:59:18Z</time>
      </trkpt>
      <trkpt lat="46.99759" lon="-1.09283">
        <ele>100</ele>
        <time>2022-06-01T23:59:42Z</time>
      </trkpt>
      <trkpt lat="46.99689" lon="-1.09239">
        <ele>99</ele>
        <time>2022-06-01T23:59:55Z</time>
      </trkpt>
      <trkpt lat="46.99625" lon="-1.09196">
        <ele>100</ele>
        <time>2022-06-02T00:00:08Z</time>
      </trkpt>
      <trkpt lat="46.99535" lon="-1.09127">
        <ele>101</ele>
        <time>2022-06-02T00:00:26Z</time>
      </trkpt>
      <trkpt lat="46.99484" lon="-1.0908">
        <ele>102</ele>
        <time>2022-06-02T00:00:37Z</time>
      </trkpt>
      <trkpt lat="46.99357" lon="-1.08947">
        <ele>107</ele>
        <time>2022-06-02T00:01:05Z</time>
      </trkpt>
      <trkpt lat="46.99303" lon="-1.08895">
        <ele>108</ele>
        <time>2022-06-02T00:01:16Z</time>
      </trkpt>
      <trkpt lat="46.99223" lon="-1.08826">
        <ele>108</ele>
        <time>2022-06-02T00:01:33Z</time>
      </trkpt>
      <trkpt lat="46.99146" lon="-1.0877">
        <ele>109</ele>
        <time>2022-06-02T00:01:48Z</time>
      </trkpt>
      <trkpt lat="46.99102" lon="-1.0874">
        <ele>109</ele>
        <time>2022-06-02T00:01:56Z</time>
      </trkpt>
      <trkpt lat="46.99068" lon="-1.0872">
        <ele>109</ele>
        <time>2022-06-02T00:02:03Z</time>
      </trkpt>
      <trkpt lat="46.98959" lon="-1.08658">
        <ele>109</ele>
        <time>2022-06-02T00:02:24Z</time>
      </trkpt>
      <trkpt lat="46.98841" lon="-1.08599">
        <ele>111</ele>
        <time>2022-06-02T00:02:46Z</time>
      </trkpt>
      <trkpt lat="46.98657" lon="-1.08515">
        <ele>110</ele>
        <time>2022-06-02T00:03:20Z</time>
      </trkpt>
      <trkpt lat="46.98581" lon="-1.08472">
        <ele>109</ele>
        <time>2022-06-02T00:03:35Z</time>
      </trkpt>
      <trkpt lat="46.98532" lon="-1.08439">
        <ele>109</ele>
        <time>2022-06-02T00:03:44Z</time>
      </trkpt>
      <trkpt lat="46.98383" lon="-1.08328">
        <ele>110</ele>
        <time>2022-06-02T00:04:14Z</time>
      </trkpt>
      <trkpt lat="46.98337" lon="-1.08297">
        <ele>110</ele>
        <time>2022-06-02T00:04:23Z</time>
      </trkpt>
      <trkpt lat="46.98165" lon="-1.08201">
        <ele>113</ele>
        <time>2022-06-02T00:04:56Z</time>
      </trkpt>
      <trkpt lat="46.98069" lon="-1.08138">
        <ele>116</ele>
        <time>2022-06-02T00:05:15Z</time>
      </trkpt>
      <trkpt lat="46.9802" lon="-1.08101">
        <ele>117</ele>
        <time>2022-06-02T00:05:24Z</time>
      </trkpt>
      <trkpt lat="46.97978" lon="-1.08064">
        <ele>117</ele>
        <time>2022-06-02T00:05:33Z</time>
      </trkpt>
      <trkpt lat="46.97931" lon="-1.08019">
        <ele>117</ele>
        <time>2022-06-02T00:05:43Z</time>
      </trkpt>
      <trkpt lat="46.9783" lon="-1.07913">
        <ele>118</ele>
        <time>2022-06-02T00:06:05Z</time>
      </trkpt>
      <trkpt lat="46.97769" lon="-1.07858">
        <ele>119</ele>
        <time>2022-06-02T00:06:18Z</time>
      </trkpt>
      <trkpt lat="46.9773" lon="-1.07827">
        <ele>119</ele>
        <time>2022-06-02T00:06:26Z</time>
      </trkpt>
      <trkpt lat="46.97661" lon="-1.07778">
        <ele>120</ele>
        <time>2022-06-02T00:06:39Z</time>
      </trkpt>
      <trkpt lat="46.9762" lon="-1.07752">
        <ele>121</ele>
        <time>2022-06-02T00:06:47Z</time>
      </trkpt>
      <trkpt lat="46.97497" lon="-1.07682">
        <ele>121</ele>
        <time>2022-06-02T00:07:11Z</time>
      </trkpt>
      <trkpt lat="46.97411" lon="-1.07638">
        <ele>121</ele>
        <time>2022-06-02T00:07:27Z</time>
      </trkpt>
      <trkpt lat="46.97269" lon="-1.07576">
        <ele>122</ele>
        <time>2022-06-02T00:07:53Z</time>
      </trkpt>
      <trkpt lat="46.97227" lon="-1.07561">
        <ele>122</ele>
        <time>2022-06-02T00:08:01Z</time>
      </trkpt>
      <trkpt lat="46.97153" lon="-1.07538">
        <ele>121</ele>
        <time>2022-06-02T00:08:15Z</time>
      </trkpt>
      <trkpt lat="46.97044" lon="-1.07512">
        <ele>120</ele>
        <time>2022-06-02T00:08:34Z</time>
      </trkpt>
      <trkpt lat="46.9696" lon="-1.07496">
        <ele>119</ele>
        <time>2022-06-02T00:08:49Z</time>
      </trkpt>
      <trkpt lat="46.96834" lon="-1.07481">
        <ele>119</ele>
        <time>2022-06-02T00:09:12Z</time>
      </trkpt>
      <trkpt lat="46.9672" lon="-1.07471">
        <ele>120</ele>
        <time>2022-06-02T00:09:32Z</time>
      </trkpt>
      <trkpt lat="46.96618" lon="-1.07472">
        <ele>119</ele>
        <time>2022-06-02T00:09:50Z</time>
      </trkpt>
      <trkpt lat="46.96552" lon="-1.07478">
        <ele>118</ele>
        <time>2022-06-02T00:10:02Z</time>
      </trkpt>
      <trkpt lat="46.9648" lon="-1.07497">
        <ele>115</ele>
        <time>2022-06-02T00:10:15Z</time>
      </trkpt>
      <trkpt lat="46.96382" lon="-1.0754">
        <ele>112</ele>
        <time>2022-06-02T00:10:33Z</time>
      </trkpt>
      <trkpt lat="46.9635" lon="-1.07548">
        <ele>111</ele>
        <time>2022-06-02T00:10:39Z</time>
      </trkpt>
      <trkpt lat="46.96315" lon="-1.07545">
        <ele>110</ele>
        <time>2022-06-02T00:10:45Z</time>
      </trkpt>
      <trkpt lat="46.96297" lon="-1.0754">
        <ele>110</ele>
        <time>2022-06-02T00:10:49Z</time>
      </trkpt>
      <trkpt lat="46.96229" lon="-1.07506">
        <ele>107</ele>
        <time>2022-06-02T00:11:01Z</time>
      </trkpt>
      <trkpt lat="46.96216" lon="-1.07505">
        <ele>106</ele>
        <time>2022-06-02T00:11:04Z</time>
      </trkpt>
      <trkpt lat="46.96191" lon="-1.07515">
        <ele>104</ele>
        <time>2022-06-02T00:11:08Z</time>
      </trkpt>
      <trkpt lat="46.96171" lon="-1.0753">
        <ele>103</ele>
        <time>2022-06-02T00:11:12Z</time>
      </trkpt>
      <trkpt lat="46.96141" lon="-1.07565">
        <ele>101</ele>
        <time>2022-06-02T00:11:19Z</time>
      </trkpt>
      <trkpt lat="46.96124" lon="-1.07582">
        <ele>100</ele>
        <time>2022-06-02T00:11:23Z</time>
      </trkpt>
      <trkpt lat="46.96103" lon="-1.07597">
        <ele>99</ele>
        <time>2022-06-02T00:11:27Z</time>
      </trkpt>
      <trkpt lat="46.96082" lon="-1.07606">
        <ele>98</ele>
        <time>2022-06-02T00:11:31Z</time>
      </trkpt>
      <trkpt lat="46.9606" lon="-1.07608">
        <ele>97</ele>
        <time>2022-06-02T00:11:35Z</time>
      </trkpt>
      <trkpt lat="46.96043" lon="-1.07607">
        <ele>96</ele>
        <time>2022-06-02T00:11:38Z</time>
      </trkpt>
      <trkpt lat="46.9602" lon="-1.07602">
        <ele>94</ele>
        <time>2022-06-02T00:11:42Z</time>
      </trkpt>
      <trkpt lat="46.95997" lon="-1.07587">
        <ele>93</ele>
        <time>2022-06-02T00:11:46Z</time>
      </trkpt>
      <trkpt lat="46.95978" lon="-1.07572">
        <ele>94</ele>
        <time>2022-06-02T00:11:50Z</time>
      </trkpt>
      <trkpt lat="46.95948" lon="-1.0754">
        <ele>94</ele>
        <time>2022-06-02T00:11:57Z</time>
      </trkpt>
      <trkpt lat="46.95924" lon="-1.07501">
        <ele>95</ele>
        <time>2022-06-02T00:12:03Z</time>
      </trkpt>
      <trkpt lat="46.95907" lon="-1.07468">
        <ele>96</ele>
        <time>2022-06-02T00:12:08Z</time>
      </trkpt>
      <trkpt lat="46.95897" lon="-1.07452">
        <ele>96</ele>
        <time>2022-06-02T00:12:11Z</time>
      </trkpt>
      <trkpt lat="46.95886" lon="-1.07442">
        <ele>96</ele>
        <time>2022-06-02T00:12:13Z</time>
      </trkpt>
      <trkpt lat="46.95874" lon="-1.07435">
        <ele>97</ele>
        <time>2022-06-02T00:12:15Z</time>
      </trkpt>
      <trkpt lat="46.95862" lon="-1.07432">
        <ele>97</ele>
        <time>2022-06-02T00:12:18Z</time>
      </trkpt>
      <trkpt lat="46.95836" lon="-1.07436">
        <ele>99</ele>
        <time>2022-06-02T00:12:22Z</time>
      </trkpt>
      <trkpt lat="46.95821" lon="-1.07445">
        <ele>100</ele>
        <time>2022-06-02T00:12:25Z</time>
      </trkpt>
      <trkpt lat="46.95775" lon="-1.075">
        <ele>105</ele>
        <time>2022-06-02T00:12:36Z</time>
      </trkpt>
      <trkpt lat="46.95762" lon="-1.07512">
        <ele>106</ele>
        <time>2022-06-02T00:12:38Z</time>
      </trkpt>
      <trkpt lat="46.95747" lon="-1.07524">
        <ele>108</ele>
        <time>2022-06-02T00:12:41Z</time>
      </trkpt>
      <trkpt lat="46.95707" lon="-1.0754">
        <ele>111</ele>
        <time>2022-06-02T00:12:49Z</time>
      </trkpt>
      <trkpt lat="46.95672" lon="-1.07545">
        <ele>112</ele>
        <time>2022-06-02T00:12:55Z</time>
      </trkpt>
      <trkpt lat="46.95577" lon="-1.07532">
        <ele>116</ele>
        <time>2022-06-02T00:13:12Z</time>
      </trkpt>
      <trkpt lat="46.95538" lon="-1.07533">
        <ele>117</ele>
        <time>2022-06-02T00:13:19Z</time>
      </trkpt>
      <trkpt lat="46.95491" lon="-1.07547">
        <ele>119</ele>
        <time>2022-06-02T00:13:28Z</time>
      </trkpt>
      <trkpt lat="46.95469" lon="-1.07558">
        <ele>121</ele>
        <time>2022-06-02T00:13:32Z</time>
      </trkpt>
      <trkpt lat="46.95447" lon="-1.07573">
        <ele>122</ele>
        <time>2022-06-02T00:13:36Z</time>
      </trkpt>
      <trkpt lat="46.95415" lon="-1.07604">
        <ele>124</ele>
        <time>2022-06-02T00:13:43Z</time>
      </trkpt>
      <trkpt lat="46.95388" lon="-1.07639">
        <ele>124</ele>
        <time>2022-06-02T00:13:49Z</time>
      </trkpt>
      <trkpt lat="46.95352" lon="-1.07702">
        <ele>124</ele>
        <time>2022-06-02T00:13:59Z</time>
      </trkpt>
      <trkpt lat="46.95301" lon="-1.07805">
        <ele>124</ele>
        <time>2022-06-02T00:14:15Z</time>
      </trkpt>
      <trkpt lat="46.95265" lon="-1.07859">
        <ele>123</ele>
        <time>2022-06-02T00:14:24Z</time>
      </trkpt>
      <trkpt lat="46.95234" lon="-1.07892">
        <ele>122</ele>
        <time>2022-06-02T00:14:31Z</time>
      </trkpt>
      <trkpt lat="46.95167" lon="-1.0794">
        <ele>120</ele>
        <time>2022-06-02T00:14:44Z</time>
      </trkpt>
      <trkpt lat="46.95168" lon="-1.07952">
        <ele>120</ele>
        <time>2022-06-02T00:14:45Z</time>
      </trkpt>
      <trkpt lat="46.95164" lon="-1.07964">
        <ele>120</ele>
        <time>2022-06-02T00:14:47Z</time>
      </trkpt>
      <trkpt lat="46.95161" lon="-1.07967">
        <ele>120</ele>
        <time>2022-06-02T00:14:48Z</time>
      </trkpt>
      <trkpt lat="46.95152" lon="-1.0797">
        <ele>120</ele>
        <time>2022-06-02T00:14:49Z</time>
      </trkpt>
      <trkpt lat="46.95148" lon="-1.07968">
        <ele>120</ele>
        <time>2022-06-02T00:14:50Z</time>
      </trkpt>
      <trkpt lat="46.95141" lon="-1.0796">
        <ele>120</ele>
        <time>2022-06-02T00:14:52Z</time>
      </trkpt>
      <trkpt lat="46.95139" lon="-1.07948">
        <ele>120</ele>
        <time>2022-06-02T00:14:53Z</time>
      </trkpt>
      <trkpt lat="46.95141" lon="-1.07936">
        <ele>120</ele>
        <time>2022-06-02T00:14:55Z</time>
      </trkpt>
      <trkpt lat="46.95148" lon="-1.07928">
        <ele>120</ele>
        <time>2022-06-02T00:14:56Z</time>
      </trkpt>
      <trkpt lat="46.95049" lon="-1.07656">
        <ele>123</ele>
        <time>2022-06-02T00:15:34Z</time>
      </trkpt>
      <trkpt lat="46.94985" lon="-1.07471">
        <ele>118</ele>
        <time>2022-06-02T00:15:59Z</time>
      </trkpt>
      <trkpt lat="46.94972" lon="-1.07438">
        <ele>116</ele>
        <time>2022-06-02T00:16:03Z</time>
      </trkpt>
      <trkpt lat="46.94957" lon="-1.07416">
        <ele>115</ele>
        <time>2022-06-02T00:16:07Z</time>
      </trkpt>
      <trkpt lat="46.94948" lon="-1.07407">
        <ele>115</ele>
        <time>2022-06-02T00:16:09Z</time>
      </trkpt>
      <trkpt lat="46.94931" lon="-1.07395">
        <ele>115</ele>
        <time>2022-06-02T00:16:13Z</time>
      </trkpt>
      <trkpt lat="46.94871" lon="-1.07368">
        <ele>118</ele>
        <time>2022-06-02T00:16:24Z</time>
      </trkpt>
      <trkpt lat="46.94848" lon="-1.07354">
        <ele>120</ele>
        <time>2022-06-02T00:16:28Z</time>
      </trkpt>
      <trkpt lat="46.94811" lon="-1.07325">
        <ele>122</ele>
        <time>2022-06-02T00:16:36Z</time>
      </trkpt>
      <trkpt lat="46.94788" lon="-1.07303">
        <ele>124</ele>
        <time>2022-06-02T00:16:41Z</time>
      </trkpt>
      <trkpt lat="46.94719" lon="-1.07218">
        <ele>129</ele>
        <time>2022-06-02T00:16:57Z</time>
      </trkpt>
      <trkpt lat="46.94673" lon="-1.07145">
        <ele>130</ele>
        <time>2022-06-02T00:17:09Z</time>
      </trkpt>
      <trkpt lat="46.94606" lon="-1.07028">
        <ele>130</ele>
        <time>2022-06-02T00:17:27Z</time>
      </trkpt>
      <trkpt lat="46.94541" lon="-1.06899">
        <ele>130</ele>
        <time>2022-06-02T00:17:47Z</time>
      </trkpt>
      <trkpt lat="46.94488" lon="-1.06783">
        <ele>132</ele>
        <time>2022-06-02T00:18:04Z</time>
      </trkpt>
      <trkpt lat="46.94481" lon="-1.06785">
        <ele>133</ele>
        <time>2022-06-02T00:18:05Z</time>
      </trkpt>
      <trkpt lat="46.94475" lon="-1.06779">
        <ele>133</ele>
        <time>2022-06-02T00:18:06Z</time>
      </trkpt>
      <trkpt lat="46.94402" lon="-1.06821">
        <ele>137</ele>
        <time>2022-06-02T00:18:20Z</time>
      </trkpt>
      <trkpt lat="46.94377" lon="-1.06838">
        <ele>138</ele>
        <time>2022-06-02T00:18:25Z</time>
      </trkpt>
      <trkpt lat="46.94352" lon="-1.06851">
        <ele>139</ele>
        <time>2022-06-02T00:18:30Z</time>
      </trkpt>
      <trkpt lat="46.94291" lon="-1.0689">
        <ele>139</ele>
        <time>2022-06-02T00:18:42Z</time>
      </trkpt>
      <trkpt lat="46.94273" lon="-1.06833">
        <ele>140</ele>
        <time>2022-06-02T00:18:49Z</time>
      </trkpt>
      <trkpt lat="46.94204" lon="-1.06654">
        <ele>144</ele>
        <time>2022-06-02T00:19:14Z</time>
      </trkpt>
      <trkpt lat="46.94161" lon="-1.06434">
        <ele>151</ele>
        <time>2022-06-02T00:19:42Z</time>
      </trkpt>
      <trkpt lat="46.94157" lon="-1.06409">
        <ele>152</ele>
        <time>2022-06-02T00:19:45Z</time>
      </trkpt>
      <trkpt lat="46.94158" lon="-1.06392">
        <ele>152</ele>
        <time>2022-06-02T00:19:47Z</time>
      </trkpt>
      <trkpt lat="46.94152" lon="-1.06385">
        <ele>153</ele>
        <time>2022-06-02T00:19:49Z</time>
      </trkpt>
      <trkpt lat="46.94129" lon="-1.06343">
        <ele>155</ele>
        <time>2022-06-02T00:19:55Z</time>
      </trkpt>
      <trkpt lat="46.94113" lon="-1.06323">
        <ele>156</ele>
        <time>2022-06-02T00:19:59Z</time>
      </trkpt>
      <trkpt lat="46.94055" lon="-1.06279">
        <ele>160</ele>
        <time>2022-06-02T00:20:10Z</time>
      </trkpt>
      <trkpt lat="46.94025" lon="-1.06262">
        <ele>162</ele>
        <time>2022-06-02T00:20:16Z</time>
      </trkpt>
      <trkpt lat="46.93954" lon="-1.06226">
        <ele>163</ele>
        <time>2022-06-02T00:20:30Z</time>
      </trkpt>
      <trkpt lat="46.93925" lon="-1.06205">
        <ele>164</ele>
        <time>2022-06-02T00:20:35Z</time>
      </trkpt>
      <trkpt lat="46.93905" lon="-1.06187">
        <ele>164</ele>
        <time>2022-06-02T00:20:39Z</time>
      </trkpt>
      <trkpt lat="46.9387" lon="-1.06147">
        <ele>166</ele>
        <time>2022-06-02T00:20:47Z</time>
      </trkpt>
      <trkpt lat="46.93847" lon="-1.06118">
        <ele>167</ele>
        <time>2022-06-02T00:20:53Z</time>
      </trkpt>
      <trkpt lat="46.93826" lon="-1.06084">
        <ele>169</ele>
        <time>2022-06-02T00:20:58Z</time>
      </trkpt>
      <trkpt lat="46.93815" lon="-1.06063">
        <ele>169</ele>
        <time>2022-06-02T00:21:02Z</time>
      </trkpt>
      <trkpt lat="46.938" lon="-1.0603">
        <ele>170</ele>
        <time>2022-06-02T00:21:06Z</time>
      </trkpt>
      <trkpt lat="46.9379" lon="-1.06003">
        <ele>171</ele>
        <time>2022-06-02T00:21:10Z</time>
      </trkpt>
      <trkpt lat="46.93782" lon="-1.05971">
        <ele>172</ele>
        <time>2022-06-02T00:21:14Z</time>
      </trkpt>
      <trkpt lat="46.93767" lon="-1.05887">
        <ele>173</ele>
        <time>2022-06-02T00:21:25Z</time>
      </trkpt>
      <trkpt lat="46.9376" lon="-1.05862">
        <ele>173</ele>
        <time>2022-06-02T00:21:28Z</time>
      </trkpt>
      <trkpt lat="46.93745" lon="-1.05826">
        <ele>173</ele>
        <time>2022-06-02T00:21:33Z</time>
      </trkpt>
      <trkpt lat="46.9373" lon="-1.05799">
        <ele>175</ele>
        <time>2022-06-02T00:21:37Z</time>
      </trkpt>
      <trkpt lat="46.93716" lon="-1.0578">
        <ele>176</ele>
        <time>2022-06-02T00:21:41Z</time>
      </trkpt>
      <trkpt lat="46.93688" lon="-1.05752">
        <ele>177</ele>
        <time>2022-06-02T00:21:47Z</time>
      </trkpt>
      <trkpt lat="46.93628" lon="-1.05709">
        <ele>181</ele>
        <time>2022-06-02T00:21:59Z</time>
      </trkpt>
      <trkpt lat="46.93582" lon="-1.0568">
        <ele>184</ele>
        <time>2022-06-02T00:22:08Z</time>
      </trkpt>
      <trkpt lat="46.93562" lon="-1.0567">
        <ele>184</ele>
        <time>2022-06-02T00:22:11Z</time>
      </trkpt>
      <trkpt lat="46.93514" lon="-1.05652">
        <ele>186</ele>
        <time>2022-06-02T00:22:20Z</time>
      </trkpt>
      <trkpt lat="46.93427" lon="-1.05625">
        <ele>187</ele>
        <time>2022-06-02T00:22:36Z</time>
      </trkpt>
      <trkpt lat="46.9335" lon="-1.05592">
        <ele>185</ele>
        <time>2022-06-02T00:22:50Z</time>
      </trkpt>
      <trkpt lat="46.93186" lon="-1.05513">
        <ele>181</ele>
        <time>2022-06-02T00:23:21Z</time>
      </trkpt>
      <trkpt lat="46.9318" lon="-1.05526">
        <ele>180</ele>
        <time>2022-06-02T00:23:23Z</time>
      </trkpt>
      <trkpt lat="46.93169" lon="-1.05533">
        <ele>180</ele>
        <time>2022-06-02T00:23:25Z</time>
      </trkpt>
      <trkpt lat="46.93162" lon="-1.05533">
        <ele>179</ele>
        <time>2022-06-02T00:23:26Z</time>
      </trkpt>
      <trkpt lat="46.93155" lon="-1.05529">
        <ele>179</ele>
        <time>2022-06-02T00:23:28Z</time>
      </trkpt>
      <trkpt lat="46.9315" lon="-1.05523">
        <ele>179</ele>
        <time>2022-06-02T00:23:29Z</time>
      </trkpt>
      <trkpt lat="46.93145" lon="-1.05508">
        <ele>180</ele>
        <time>2022-06-02T00:23:31Z</time>
      </trkpt>
      <trkpt lat="46.93146" lon="-1.05491">
        <ele>181</ele>
        <time>2022-06-02T00:23:33Z</time>
      </trkpt>
      <trkpt lat="46.92188" lon="-1.05024">
        <ele>160</ele>
        <time>2022-06-02T00:26:33Z</time>
      </trkpt>
      <trkpt lat="46.9206" lon="-1.0496">
        <ele>155</ele>
        <time>2022-06-02T00:26:57Z</time>
      </trkpt>
      <trkpt lat="46.91893" lon="-1.0488">
        <ele>150</ele>
        <time>2022-06-02T00:27:28Z</time>
      </trkpt>
      <trkpt lat="46.91797" lon="-1.04831">
        <ele>146</ele>
        <time>2022-06-02T00:27:46Z</time>
      </trkpt>
      <trkpt lat="46.91719" lon="-1.04789">
        <ele>142</ele>
        <time>2022-06-02T00:28:01Z</time>
      </trkpt>
      <trkpt lat="46.91622" lon="-1.04732">
        <ele>138</ele>
        <time>2022-06-02T00:28:19Z</time>
      </trkpt>
      <trkpt lat="46.91185" lon="-1.04517">
        <ele>122</ele>
        <time>2022-06-02T00:29:41Z</time>
      </trkpt>
      <trkpt lat="46.91153" lon="-1.04501">
        <ele>121</ele>
        <time>2022-06-02T00:29:47Z</time>
      </trkpt>
      <trkpt lat="46.91105" lon="-1.04479">
        <ele>118</ele>
        <time>2022-06-02T00:29:56Z</time>
      </trkpt>
      <trkpt lat="46.91055" lon="-1.04461">
        <ele>115</ele>
        <time>2022-06-02T00:30:06Z</time>
      </trkpt>
      <trkpt lat="46.90992" lon="-1.04444">
        <ele>112</ele>
        <time>2022-06-02T00:30:17Z</time>
      </trkpt>
      <trkpt lat="46.90965" lon="-1.0444">
        <ele>114</ele>
        <time>2022-06-02T00:30:22Z</time>
      </trkpt>
      <trkpt lat="46.9091" lon="-1.04436">
        <ele>117</ele>
        <time>2022-06-02T00:30:32Z</time>
      </trkpt>
      <trkpt lat="46.90865" lon="-1.04437">
        <ele>120</ele>
        <time>2022-06-02T00:30:40Z</time>
      </trkpt>
      <trkpt lat="46.90698" lon="-1.04449">
        <ele>123</ele>
        <time>2022-06-02T00:31:09Z</time>
      </trkpt>
      <trkpt lat="46.9058" lon="-1.04454">
        <ele>123</ele>
        <time>2022-06-02T00:31:30Z</time>
      </trkpt>
      <trkpt lat="46.90535" lon="-1.0445">
        <ele>121</ele>
        <time>2022-06-02T00:31:38Z</time>
      </trkpt>
      <trkpt lat="46.90491" lon="-1.04443">
        <ele>120</ele>
        <time>2022-06-02T00:31:46Z</time>
      </trkpt>
      <trkpt lat="46.90409" lon="-1.0442">
        <ele>121</ele>
        <time>2022-06-02T00:32:01Z</time>
      </trkpt>
      <trkpt lat="46.90342" lon="-1.04391">
        <ele>120</ele>
        <time>2022-06-02T00:32:14Z</time>
      </trkpt>
      <trkpt lat="46.90231" lon="-1.04339">
        <ele>118</ele>
        <time>2022-06-02T00:32:34Z</time>
      </trkpt>
      <trkpt lat="46.9021" lon="-1.04339">
        <ele>118</ele>
        <time>2022-06-02T00:32:38Z</time>
      </trkpt>
      <trkpt lat="46.90198" lon="-1.04344">
        <ele>118</ele>
        <time>2022-06-02T00:32:40Z</time>
      </trkpt>
      <trkpt lat="46.90192" lon="-1.04357">
        <ele>118</ele>
        <time>2022-06-02T00:32:42Z</time>
      </trkpt>
      <trkpt lat="46.90181" lon="-1.04365">
        <ele>118</ele>
        <time>2022-06-02T00:32:44Z</time>
      </trkpt>
      <trkpt lat="46.90175" lon="-1.04365">
        <ele>118</ele>
        <time>2022-06-02T00:32:45Z</time>
      </trkpt>
      <trkpt lat="46.90167" lon="-1.04362">
        <ele>118</ele>
        <time>2022-06-02T00:32:47Z</time>
      </trkpt>
      <trkpt lat="46.90158" lon="-1.04354">
        <ele>118</ele>
        <time>2022-06-02T00:32:49Z</time>
      </trkpt>
      <trkpt lat="46.90154" lon="-1.04343">
        <ele>118</ele>
        <time>2022-06-02T00:32:50Z</time>
      </trkpt>
      <trkpt lat="46.90152" lon="-1.04331">
        <ele>119</ele>
        <time>2022-06-02T00:32:52Z</time>
      </trkpt>
      <trkpt lat="46.9012" lon="-1.04304">
        <ele>120</ele>
        <time>2022-06-02T00:32:58Z</time>
      </trkpt>
      <trkpt lat="46.89875" lon="-1.0419">
        <ele>119</ele>
        <time>2022-06-02T00:33:44Z</time>
      </trkpt>
      <trkpt lat="46.89639" lon="-1.04059">
        <ele>117</ele>
        <time>2022-06-02T00:34:29Z</time>
      </trkpt>
      <trkpt lat="46.89114" lon="-1.03776">
        <ele>114</ele>
        <time>2022-06-02T00:36:08Z</time>
      </trkpt>
      <trkpt lat="46.89083" lon="-1.03757">
        <ele>115</ele>
        <time>2022-06-02T00:36:14Z</time>
      </trkpt>
      <trkpt lat="46.89054" lon="-1.03735">
        <ele>115</ele>
        <time>2022-06-02T00:36:20Z</time>
      </trkpt>
      <trkpt lat="46.88904" lon="-1.03612">
        <ele>111</ele>
        <time>2022-06-02T00:36:51Z</time>
      </trkpt>
      <trkpt lat="46.8891" lon="-1.03601">
        <ele>112</ele>
        <time>2022-06-02T00:36:53Z</time>
      </trkpt>
      <trkpt lat="46.88906" lon="-1.03583">
        <ele>112</ele>
        <time>2022-06-02T00:36:55Z</time>
      </trkpt>
      <trkpt lat="46.88906" lon="-1.03576">
        <ele>112</ele>
        <time>2022-06-02T00:36:56Z</time>
      </trkpt>
      <trkpt lat="46.88894" lon="-1.03553">
        <ele>112</ele>
        <time>2022-06-02T00:36:59Z</time>
      </trkpt>
      <trkpt lat="46.88884" lon="-1.03551">
        <ele>112</ele>
        <time>2022-06-02T00:37:01Z</time>
      </trkpt>
      <trkpt lat="46.88876" lon="-1.03542">
        <ele>112</ele>
        <time>2022-06-02T00:37:03Z</time>
      </trkpt>
      <trkpt lat="46.88863" lon="-1.03553">
        <ele>112</ele>
        <time>2022-06-02T00:37:06Z</time>
      </trkpt>
      <trkpt lat="46.88857" lon="-1.03516">
        <ele>112</ele>
        <time>2022-06-02T00:37:10Z</time>
      </trkpt>
      <trkpt lat="46.8885" lon="-1.03489">
        <ele>113</ele>
        <time>2022-06-02T00:37:14Z</time>
      </trkpt>
      <trkpt lat="46.88845" lon="-1.03458">
        <ele>114</ele>
        <time>2022-06-02T00:37:18Z</time>
      </trkpt>
      <trkpt lat="46.88842" lon="-1.03427">
        <ele>115</ele>
        <time>2022-06-02T00:37:21Z</time>
      </trkpt>
      <trkpt lat="46.88846" lon="-1.0329">
        <ele>119</ele>
        <time>2022-06-02T00:37:38Z</time>
      </trkpt>
      <trkpt lat="46.88845" lon="-1.03241">
        <ele>120</ele>
        <time>2022-06-02T00:37:44Z</time>
      </trkpt>
      <trkpt lat="46.8884" lon="-1.03196">
        <ele>121</ele>
        <time>2022-06-02T00:37:50Z</time>
      </trkpt>
      <trkpt lat="46.88831" lon="-1.0314">
        <ele>122</ele>
        <time>2022-06-02T00:37:57Z</time>
      </trkpt>
      <trkpt lat="46.88819" lon="-1.03102">
        <ele>122</ele>
        <time>2022-06-02T00:38:02Z</time>
      </trkpt>
      <trkpt lat="46.88803" lon="-1.03063">
        <ele>123</ele>
        <time>2022-06-02T00:38:07Z</time>
      </trkpt>
      <trkpt lat="46.88785" lon="-1.03027">
        <ele>123</ele>
        <time>2022-06-02T00:38:13Z</time>
      </trkpt>
      <trkpt lat="46.88769" lon="-1.03">
        <ele>124</ele>
        <time>2022-06-02T00:38:17Z</time>
      </trkpt>
      <trkpt lat="46.8875" lon="-1.02974">
        <ele>125</ele>
        <time>2022-06-02T00:38:22Z</time>
      </trkpt>
      <trkpt lat="46.88723" lon="-1.02946">
        <ele>126</ele>
        <time>2022-06-02T00:38:27Z</time>
      </trkpt>
      <trkpt lat="46.88692" lon="-1.02919">
        <ele>126</ele>
        <time>2022-06-02T00:38:34Z</time>
      </trkpt>
      <trkpt lat="46.88196" lon="-1.02544">
        <ele>119</ele>
        <time>2022-06-02T00:40:13Z</time>
      </trkpt>
      <trkpt lat="46.88189" lon="-1.02554">
        <ele>119</ele>
        <time>2022-06-02T00:40:15Z</time>
      </trkpt>
      <trkpt lat="46.8818" lon="-1.02555">
        <ele>119</ele>
        <time>2022-06-02T00:40:17Z</time>
      </trkpt>
      <trkpt lat="46.88172" lon="-1.02546">
        <ele>119</ele>
        <time>2022-06-02T00:40:18Z</time>
      </trkpt>
      <trkpt lat="46.8817" lon="-1.0254">
        <ele>119</ele>
        <time>2022-06-02T00:40:19Z</time>
      </trkpt>
      <trkpt lat="46.88171" lon="-1.02526">
        <ele>119</ele>
        <time>2022-06-02T00:40:21Z</time>
      </trkpt>
      <trkpt lat="46.87724" lon="-1.02188">
        <ele>116</ele>
        <time>2022-06-02T00:41:50Z</time>
      </trkpt>
      <trkpt lat="46.87704" lon="-1.02165">
        <ele>116</ele>
        <time>2022-06-02T00:41:55Z</time>
      </trkpt>
      <trkpt lat="46.87698" lon="-1.02173">
        <ele>116</ele>
        <time>2022-06-02T00:41:56Z</time>
      </trkpt>
      <trkpt lat="46.87689" lon="-1.02171">
        <ele>116</ele>
        <time>2022-06-02T00:41:58Z</time>
      </trkpt>
      <trkpt lat="46.87684" lon="-1.02159">
        <ele>116</ele>
        <time>2022-06-02T00:42:00Z</time>
      </trkpt>
      <trkpt lat="46.87685" lon="-1.0215">
        <ele>116</ele>
        <time>2022-06-02T00:42:01Z</time>
      </trkpt>
      <trkpt lat="46.87667" lon="-1.02144">
        <ele>116</ele>
        <time>2022-06-02T00:42:04Z</time>
      </trkpt>
      <trkpt lat="46.87456" lon="-1.01984">
        <ele>110</ele>
        <time>2022-06-02T00:42:46Z</time>
      </trkpt>
      <trkpt lat="46.87393" lon="-1.01939">
        <ele>110</ele>
        <time>2022-06-02T00:42:59Z</time>
      </trkpt>
      <trkpt lat="46.87229" lon="-1.01816">
        <ele>113</ele>
        <time>2022-06-02T00:43:32Z</time>
      </trkpt>
      <trkpt lat="46.87081" lon="-1.01707">
        <ele>111</ele>
        <time>2022-06-02T00:44:01Z</time>
      </trkpt>
      <trkpt lat="46.87078" lon="-1.01712">
        <ele>111</ele>
        <time>2022-06-02T00:44:02Z</time>
      </trkpt>
      <trkpt lat="46.87075" lon="-1.01712">
        <ele>110</ele>
        <time>2022-06-02T00:44:02Z</time>
      </trkpt>
      <trkpt lat="46.87073" lon="-1.01709">
        <ele>110</ele>
        <time>2022-06-02T00:44:03Z</time>
      </trkpt>
      <trkpt lat="46.87072" lon="-1.01706">
        <ele>110</ele>
        <time>2022-06-02T00:44:03Z</time>
      </trkpt>
      <trkpt lat="46.87073" lon="-1.01702">
        <ele>110</ele>
        <time>2022-06-02T00:44:04Z</time>
      </trkpt>
      <trkpt lat="46.87077" lon="-1.017">
        <ele>110</ele>
        <time>2022-06-02T00:44:05Z</time>
      </trkpt>
      <trkpt lat="46.87103" lon="-1.01544">
        <ele>108</ele>
        <time>2022-06-02T00:44:24Z</time>
      </trkpt>
      <trkpt lat="46.87107" lon="-1.01537">
        <ele>109</ele>
        <time>2022-06-02T00:44:25Z</time>
      </trkpt>
      <trkpt lat="46.8711" lon="-1.01428">
        <ele>107</ele>
        <time>2022-06-02T00:44:39Z</time>
      </trkpt>
      <trkpt lat="46.87115" lon="-1.0134">
        <ele>108</ele>
        <time>2022-06-02T00:44:49Z</time>
      </trkpt>
      <trkpt lat="46.87115" lon="-1.0132">
        <ele>108</ele>
        <time>2022-06-02T00:44:52Z</time>
      </trkpt>
      <trkpt lat="46.87114" lon="-1.01307">
        <ele>108</ele>
        <time>2022-06-02T00:44:53Z</time>
      </trkpt>
      <trkpt lat="46.87064" lon="-1.01137">
        <ele>103</ele>
        <time>2022-06-02T00:45:16Z</time>
      </trkpt>
      <trkpt lat="46.8704" lon="-1.0106">
        <ele>102</ele>
        <time>2022-06-02T00:45:26Z</time>
      </trkpt>
      <trkpt lat="46.87006" lon="-1.00942">
        <ele>102</ele>
        <time>2022-06-02T00:45:42Z</time>
      </trkpt>
      <trkpt lat="46.87001" lon="-1.00935">
        <ele>103</ele>
        <time>2022-06-02T00:45:43Z</time>
      </trkpt>
      <trkpt lat="46.86996" lon="-1.00934">
        <ele>103</ele>
        <time>2022-06-02T00:45:44Z</time>
      </trkpt>
      <trkpt lat="46.86996" lon="-1.00928">
        <ele>103</ele>
        <time>2022-06-02T00:45:45Z</time>
      </trkpt>
      <trkpt lat="46.86998" lon="-1.00924">
        <ele>103</ele>
        <time>2022-06-02T00:45:45Z</time>
      </trkpt>
      <trkpt lat="46.86999" lon="-1.00914">
        <ele>103</ele>
        <time>2022-06-02T00:45:46Z</time>
      </trkpt>
      <trkpt lat="46.86983" lon="-1.00859">
        <ele>105</ele>
        <time>2022-06-02T00:45:54Z</time>
      </trkpt>
      <trkpt lat="46.86948" lon="-1.00671">
        <ele>109</ele>
        <time>2022-06-02T00:46:17Z</time>
      </trkpt>
      <trkpt lat="46.86937" lon="-1.00661">
        <ele>109</ele>
        <time>2022-06-02T00:46:20Z</time>
      </trkpt>
      <trkpt lat="46.86853" lon="-1.00633">
        <ele>112</ele>
        <time>2022-06-02T00:46:35Z</time>
      </trkpt>
      <trkpt lat="46.86836" lon="-1.00634">
        <ele>112</ele>
        <time>2022-06-02T00:46:38Z</time>
      </trkpt>
      <trkpt lat="46.86765" lon="-1.00654">
        <ele>111</ele>
        <time>2022-06-02T00:46:51Z</time>
      </trkpt>
      <trkpt lat="46.86714" lon="-1.00674">
        <ele>111</ele>
        <time>2022-06-02T00:47:00Z</time>
      </trkpt>
      <trkpt lat="46.86712" lon="-1.00666">
        <ele>111</ele>
        <time>2022-06-02T00:47:01Z</time>
      </trkpt>
      <trkpt lat="46.86708" lon="-1.0066">
        <ele>111</ele>
        <time>2022-06-02T00:47:02Z</time>
      </trkpt>
      <trkpt lat="46.86664" lon="-1.00646">
        <ele>111</ele>
        <time>2022-06-02T00:47:10Z</time>
      </trkpt>
      <trkpt lat="46.86595" lon="-1.00621">
        <ele>116</ele>
        <time>2022-06-02T00:47:23Z</time>
      </trkpt>
      <trkpt lat="46.86573" lon="-1.00609">
        <ele>117</ele>
        <time>2022-06-02T00:47:27Z</time>
      </trkpt>
      <trkpt lat="46.86523" lon="-1.00577">
        <ele>118</ele>
        <time>2022-06-02T00:47:37Z</time>
      </trkpt>
      <trkpt lat="46.86495" lon="-1.00567">
        <ele>119</ele>
        <time>2022-06-02T00:47:42Z</time>
      </trkpt>
      <trkpt lat="46.86461" lon="-1.00561">
        <ele>120</ele>
        <time>2022-06-02T00:47:48Z</time>
      </trkpt>
      <trkpt lat="46.86426" lon="-1.00564">
        <ele>120</ele>
        <time>2022-06-02T00:47:54Z</time>
      </trkpt>
      <trkpt lat="46.86411" lon="-1.0056">
        <ele>120</ele>
        <time>2022-06-02T00:47:57Z</time>
      </trkpt>
    </trkseg>
  </trk>
</gpx>